[[{"header":{"parameterUnit":"m.s-1","parameterCategory":1,"la1":31.0,"la2":29.5877,"lo1":-88.7671,"lo2":-86.6584,"dy":0.0162,"dx":0.0185,"nx":115,"ny":88,"refTime":"2024-08-29T06:00:00:Z","depth":0,"parameterNumber":2,"parameterNumberName":"U-component_of_WINDS"},"data":[0.0,0.0,0.0,0.0,0.0,0.0,0.0,0.0,0.0,0.0,0.0,0.0,0.0,0.0,0.0,0.0,0.0,0.0,0.0,0.0,0.0,0.0,0.0,0.0,0.0,0.0,0.0,0.0,0.0,0.0,0.0,0.0,0.0,0.0,0.0,0.0,0.0,0.0,0.0,0.0,0.0,0.0,0.0,0.0,0.0,0.0,0.0,0.0,0.0,0.0,0.0,0.0,0.0,0.0,0.0,0.0,0.0,0.0,0.0,0.0,0.0,0.0,0.0,0.0,0.0,0.0,0.0,0.0,0.0,0.0,0.0,0.0,0.0,0.0,0.0,0.0,0.0,0.0,0.0,0.0,0.0,0.0,0.0,0.0,0.0,0.0,0.0,0.0,0.0,0.0,0.0,0.0,0.0,0.0,0.0,0.0,0.0,0.0,0.0,0.0,0.0,0.0,0.0,0.0,0.0,0.0,0.0,0.0,0.0,0.0,0.0,0.0,0.0,0.0,0.0,0.0,0.0,0.0,0.0,0.0,0.0,0.0,0.0,0.0,0.0,0.0,0.0,0.0,0.0,0.0,0.0,0.0,0.0,0.0,0.0,0.0,0.0,0.0,0.0,0.0,0.0,0.0,0.0,0.0,0.0,0.0,0.0,0.0,0.0,0.0,0.0,0.0,0.0,0.0,0.0,0.0,0.0,0.0,0.0,0.0,0.0,0.0,0.0,0.0,0.0,0.0,0.0,0.0,0.0,0.0,0.0,0.0,0.0,0.0,0.0,0.0,0.0,0.0,0.0,0.0,0.0,0.0,0.0,0.0,0.0,0.0,0.0,0.0,0.0,0.0,0.0,0.0,0.0,0.0,0.0,0.0,0.0,0.0,0.0,0.0,0.0,0.0,0.0,0.0,0.0,0.0,0.0,0.0,0.0,0.0,0.0,0.0,0.0,0.0,0.0,0.0,0.0,0.0,0.0,0.0,0.0,0.0,0.0,0.0,0.0,0.0,0.0,0.0,0.0,0.0,0.0,0.0,0.0,0.0,0.0,0.0,0.0,0.0,0.0,0.0,0.0,0.0,0.0,0.0,0.0,0.0,0.0,0.0,0.0,0.0,0.0,0.0,0.0,0.0,0.0,0.0,0.0,0.0,0.0,0.0,0.0,0.0,0.0,0.0,0.0,0.0,0.0,0.0,0.0,0.0,0.0,0.0,0.0,0.0,0.0,0.0,0.0,0.0,0.0,0.0,0.0,0.0,0.0,0.0,0.0,0.0,0.0,0.0,0.0,0.0,0.0,0.0,0.0,0.0,0.0,0.0,0.0,0.0,0.0,0.0,0.0,0.0,0.0,0.0,0.0,0.0,0.0,0.0,0.0,0.0,0.0,0.0,0.0,0.0,0.0,0.0,0.0,0.0,0.0,0.0,0.0,0.0,0.0,0.0,0.0,0.0,0.0,0.0,0.0,0.0,0.0,0.0,0.0,0.0,0.0,0.0,0.0,0.0,0.0,0.0,0.0,0.0,0.0,0.0,0.0,0.0,0.0,0.0,0.0,0.0,0.0,0.0,0.0,0.0,0.0,0.0,0.0,0.0,0.0,0.0,0.0,0.0,0.0,0.0,0.0,0.0,0.0,0.0,0.0,0.0,0.0,0.0,0.0,0.0,0.0,0.0,0.0,0.0,0.0,0.0,0.0,0.0,0.0,0.0,0.0,0.0,0.0,0.0,0.0,0.0,0.0,0.0,0.0,0.0,0.0,0.0,0.0,0.0,0.0,0.0,0.0,0.0,0.0,0.0,0.0,0.0,0.0,0.0,0.0,0.0,0.0,0.0,0.0,0.0,0.0,0.0,0.0,0.0,0.0,0.0,0.0,0.0,0.0,0.0,0.0,0.0,0.0,0.0,0.0,0.0,0.0,0.0,0.0,0.0,0.0,0.0,0.0,0.0,0.0,0.0,0.0,0.0,0.0,0.0,0.0,0.0,0.0,0.0,0.0,0.0,0.0,0.0,0.0,0.0,0.0,0.0,0.0,0.0,0.0,0.0,0.0,0.0,0.0,0.0,0.0,0.0,0.0,0.0,0.0,0.0,0.0,0.0,0.0,0.0,0.0,0.0,0.0,0.0,0.0,0.0,0.0,0.0,0.0,0.0,0.0,0.0,0.0,0.0,0.0,0.0,0.0,0.0,0.0,0.0,0.0,0.0,0.0,0.0,0.0,0.0,0.0,0.0,0.0,0.0,0.0,0.0,0.0,0.0,0.0,0.0,0.0,0.0,0.0,0.0,0.0,0.0,0.0,0.0,0.0,0.0,0.0,0.0,0.0,0.0,0.0,0.0,0.0,0.0,0.0,0.0,0.0,0.0,0.0,0.0,0.0,0.0,0.0,0.0,0.0,0.0,0.0,0.0,0.0,0.0,0.0,0.0,0.0,0.0,0.0,0.0,0.0,0.0,0.0,0.0,0.0,0.0,0.0,0.0,0.0,0.0,0.0,0.0,0.0,0.0,0.0,0.0,0.0,0.0,0.0,0.0,0.0,0.0,0.0,0.0,0.0,0.0,0.0,0.0,0.0,0.0,0.0,0.0,0.0,0.0,0.0,0.0,0.0,0.0,0.0,0.0,0.0,0.0,0.0,0.0,0.0,0.0,0.0,0.0,0.0,0.0,0.0,0.0,0.0,0.0,0.0,0.0,0.0,0.0,0.0,0.0,0.0,0.0,0.0,0.0,0.0,0.0,0.0,0.0,0.0,0.0,0.0,0.0,0.0,0.0,0.0,0.0,0.0,0.0,0.0,0.0,0.0,0.0,0.0,0.0,0.0,0.0,0.0,0.0,0.0,0.0,0.0,0.0,0.0,0.0,0.0,0.0,0.0,0.0,0.0,0.0,0.0,0.0,0.0,0.0,0.0,0.0,0.0,0.0,0.0,0.0,0.0,0.0,0.0,0.0,0.0,0.0,0.0,0.0,0.0,0.0,0.0,0.0,0.0,0.0,0.0,0.0,0.0,0.0,0.0,0.0,0.0,0.0,0.0,0.0,0.0,0.0,0.0,0.0,0.0,0.0,0.0,0.0,0.0,0.0,0.0,0.0,0.0,0.0,0.0,0.0,0.0,0.0,0.0,0.0,0.0,0.0,0.0,0.0,0.0,0.0,0.0,0.0,0.0,0.0,0.0,0.0,0.0,0.0,0.0,0.0,0.0,0.0,0.0,0.0,0.0,0.0,0.0,0.0,0.0,0.0,0.0,0.0,0.0,0.0,0.0,0.0,0.0,0.0,0.0,0.0,0.0,0.0,0.0,0.0,0.0,0.0,0.0,0.0,0.0,0.0,0.0,0.0,0.0,0.0,0.0,0.0,0.0,0.0,0.0,0.0,0.0,0.0,0.0,0.0,0.0,0.0,0.0,0.0,0.0,0.0,0.0,0.0,0.0,0.0,0.0,0.0,0.0,0.0,0.0,0.0,0.0,0.0,0.0,0.0,0.0,0.0,0.0,0.0,0.0,0.0,0.0,0.0,0.0,0.0,0.0,0.0,0.0,0.0,0.0,0.0,0.0,0.0,0.0,0.0,0.0,0.0,0.0,0.0,0.0,0.0,0.0,0.0,0.0,0.0,0.0,0.0,0.0,0.0,0.0,0.0,0.0,0.0,0.0,0.0,0.0,0.0,0.0,0.0,0.0,0.0,0.0,0.0,0.0,0.0,0.0,0.0,0.0,0.0,0.0,0.0,0.0,0.0,0.0,0.0,0.0,0.0,0.0,0.0,0.0,0.0,0.0,0.0,0.0,0.0,0.0,0.0,0.0,0.0,0.0,0.0,0.0,0.0,0.0,0.0,0.0,0.0,0.0,0.0,0.0,0.0,0.0,0.0,0.0,0.0,0.0,0.0,0.0,0.0,0.0,0.0,0.0,0.0,0.0,0.0,0.0,0.0,0.0,0.0,0.0,0.0,0.0,0.0,0.0,0.0,0.0,0.0,0.0,0.0,0.0,0.0,0.0,0.0,0.0,0.0,0.0,0.0,0.0,0.0,0.0,0.0,0.0,0.0,0.0,0.0,0.0,0.0,0.0,0.0,0.0,0.0,0.0,0.0,0.0,0.0,0.0,0.0,0.0,0.0,0.0,0.0,0.0,0.0,0.0,0.0,0.0,0.0,0.0,0.0,0.0,0.0,0.0,0.0,0.0,0.0,0.0,0.0,0.0,0.0,0.0,0.0,0.0,0.0,0.0,0.0,0.0,0.0,0.0,0.0,0.0,0.0,0.0,0.0,0.0,0.0,0.0,0.0,0.1356,0.0,0.0,0.0,0.0,0.0,0.0,0.0,0.0,0.0,0.0,0.0,0.0,0.0,0.0,0.0,0.0,0.0,0.0,0.0,0.0,0.0,0.0,0.0,0.0,0.0,0.0,0.0,0.0,0.0,0.0,0.0,0.0,0.0,0.0,0.0,0.0,0.0,0.0,0.0,0.0,0.0,0.0,0.0,0.0,0.0,0.0,0.0,0.0,0.0,0.0,0.0,0.0,0.0,0.0,0.0,0.0,0.0,0.0,0.0,0.0,0.0,0.0,0.0,0.0,0.0,0.0,0.0,0.0,0.0,0.0,0.0,0.0,0.0,0.0,0.0,0.0,0.0,0.0,0.0,0.0,0.0,0.0,0.0,0.0,0.0,0.0,0.0,0.0,0.0,0.0,0.0,0.0,0.0,0.0,0.0,0.0,0.0,0.0,0.0,0.0,0.0,0.0,0.0,0.0,0.0,0.0,0.0,0.0,0.0,0.0,0.3097,0.2709,0.224,0.1769,0.1305,0.0,0.0,0.0,0.0,0.0,0.0,0.0,0.0,0.0,0.0,0.0,0.0,0.0,0.0,0.0,0.0,0.0,0.0,0.0,0.0,0.0,0.0,0.0,0.0,0.0,0.0,0.0,0.0,0.0,0.0,0.0,0.0,0.0,0.0,0.0,0.0,0.0,0.0,0.0,0.0,0.0,0.0,0.0,0.0,0.0,0.0,0.0,0.0,0.0,0.0,0.0,0.0,0.0,0.0,0.0,0.0,0.0,0.0,0.0,0.0,0.0,0.0,0.0,0.0,0.0,0.0,0.0,0.0,0.0,0.0,0.0,0.0,0.0,0.0,0.0,0.0,0.0,0.0,0.0,0.0,0.0,0.0,0.0,0.0,0.0,0.0,0.0,0.0,0.0,0.0,0.0,0.0,0.0,0.0,0.0,0.0,0.0,0.0,0.0,0.0,0.0,0.0,0.0,0.0,0.0,0.0,0.0,0.0,0.0,0.0,0.0,0.0,0.2131,0.1568,0.1093,0.0,0.0,0.0,0.0,0.0,0.0,0.0,0.0,0.0,0.0,0.0,0.0,0.0,0.0,0.0,0.0,0.0,0.0,0.0,0.0,0.0,0.0,0.0,0.0,0.0,0.0,0.0,0.0,0.0,0.0,0.0,0.0,0.0,0.0,0.0,0.0,0.0,0.0,0.0,0.0,0.0,0.0,0.0,0.0,0.0,0.0,0.0,0.0,0.0,0.0,0.0,0.0,0.0,0.0,0.0,0.0,0.0,0.0,0.0,0.0,0.0,0.0,0.0,0.0,0.0,0.0,0.0,0.0,0.0,0.0,0.0,0.0,0.0,0.0,0.0,0.0,0.0,0.0,0.0,0.0,0.0,0.0,0.0,0.0,0.0,0.0,0.0,0.0,0.0,0.0,0.0,0.0,0.0,0.0,0.0,0.0,0.0,0.0,0.0,0.0,0.0,0.0,0.0,0.0,0.0,0.0,0.0,0.0,0.0,0.0,0.2798,0.2883,0.218,0.0,0.0532,0.0,0.0,0.0,0.0,0.0,0.0,0.0,0.0,0.0,0.0,0.0,0.0,0.0,0.0,0.0,0.0,0.0,0.0,0.0,0.0,0.0,0.0,0.0,0.0,0.0,0.0,0.0,0.0,0.0,0.0,0.0,0.0,0.0,0.0,0.0,0.0,0.0,0.0,0.0,0.0,0.0,0.0,0.0,0.0,0.0,0.0,0.0,0.0,0.0,0.0,0.0,0.0,0.0,0.0,0.0,0.0,0.0,0.0,0.0,0.0,0.0,0.0,0.0,0.0,0.0,0.0,0.0,0.0,0.0,0.0,0.0,0.0,0.0,0.0,0.0,0.0,0.0,0.0,0.0,0.0,0.0,0.0,0.0,0.0,0.0,0.0,0.0,0.0,0.0,0.0,0.0,0.0,0.0,0.0,0.0,0.0,0.0,0.0,0.0,0.0,0.0,0.0,0.0,0.0,0.0,0.0,0.0,0.0,0.0,0.0,0.2631,0.2252,0.1534,0.0842,0.0,0.0,0.0,0.0,0.0,0.0,0.0,0.0,0.0,0.0,0.0,0.0,0.0,0.0,0.0,0.0,0.0,0.0,0.0,0.0,0.0,0.0,0.0,0.0,0.0,0.0,0.0,0.0,0.0,0.0,0.0,0.0,0.0,0.0,0.0,0.0,0.0,0.0,0.0,0.0,0.0,0.0,0.0,0.0,0.0,0.0,0.0,0.0,0.0,0.0,0.0,0.0,0.0,0.0,0.0,0.0,0.0,0.0,0.0,0.0,0.0,0.0,0.0,0.0,0.0,0.0,0.0,0.0,0.0,0.0,0.0,0.0,0.0,0.0,0.0,0.0,0.0,0.0,0.0,0.0,0.0,0.0,0.0,0.0,0.0,0.0,0.0,0.0,0.0,0.0,0.0,0.0,0.0,0.0,0.0,0.0,0.0,0.0,0.0,0.0,0.0,0.0,0.0,0.0,0.0,0.0,0.0,0.0,0.0,0.0,0.2425,0.0,0.151,0.0939,0.0413,0.0,0.0,0.0,0.0,0.0,0.0,0.0,0.0,0.0,0.0,0.0,0.0,0.0,0.0,0.0,0.0,0.0,0.0,0.0,0.0,0.0,0.0,0.0,0.0,0.0,0.0,0.0,0.0,0.0,0.0,0.0,0.0,0.0,0.0,0.0,0.0,0.0,0.0,0.0,0.0,0.0,0.0,0.0,0.0,0.0,0.0,0.0,0.0,0.0,0.0,0.0,0.0,0.0,0.0,0.0,0.0,0.0,0.0,0.0,0.0,0.0,0.0,0.0,0.0,0.0,0.0,0.0,0.0,0.0,0.0,0.0,0.0,0.0,0.0,0.0,0.0,0.0,0.0,0.0,0.0,0.0,0.0,0.0,0.0,0.0,0.0,0.0,0.0,0.0,0.0,0.0,0.0,0.0,0.0,0.0,0.0,0.0,0.0,0.0,0.0,0.0,0.0,0.0,0.0,0.0,0.0,0.0,0.0,0.0,0.0,0.1534,0.1177,0.0789,0.0519,0.0274,0.0,0.0,0.0,0.0,0.0,0.0,0.0,0.0,0.0,0.0,0.0,0.0,0.0,0.0,0.0,0.0,0.0,0.0,0.0,0.0,0.0,0.0,0.0,0.0,0.0,0.0,0.0,0.0,0.0,0.0,0.0,0.0,0.0,0.0,0.0,0.0,0.0,0.0,0.0,0.0,0.0,0.0,0.0,0.0,0.0,0.0,0.0,0.0,0.0,0.0,0.0,0.0,0.0,0.0,0.0,0.0,0.0,0.0,0.0,0.0,0.0,0.0,0.0,0.0,0.0,0.0,0.0,0.0,0.0,0.0,0.0,0.0,0.0,0.0,0.0,0.0,0.0,0.0,0.0,0.0,0.0,0.0,0.0,0.0,0.0,0.0,0.0,0.0,0.0,0.0,0.0,0.0,0.0,0.0,0.0,0.0,0.0,0.0,0.0,0.0,0.0,0.0,0.0,0.0,0.0,0.0,0.0,0.0,0.0,0.1322,0.0948,0.0805,0.0932,0.0425,0.0086,0.0,0.0,0.0,0.0,0.0,0.0,0.0,0.0,0.0,0.0,0.0,0.0,0.0,0.0,0.0,0.0,0.0,0.0,0.0,0.0,0.0,0.0,0.0,0.0,0.0,0.0,0.0,0.0,0.0,0.0,0.0,0.0,0.0,0.0,0.0,0.0,0.0,0.0,0.0,0.0,0.0,0.0,0.0,0.0,0.0,0.0,0.0,0.0,0.0,0.0,0.0,0.0,0.0,0.0,0.0,0.0,0.0,0.0,0.0,0.0,0.0,0.0,0.0,0.0,0.0,0.0,0.0,0.0,0.0,0.0,0.0,0.0,0.0,0.0,0.0,0.0,0.0,0.0,0.0,0.0,0.0,0.0,0.0,0.0,0.0,0.0,0.0,0.0,0.0,0.0,0.0,0.0,0.0,0.0,0.0,0.0,0.0,0.0,0.0,0.0,0.0,0.0,0.0,0.0,0.0,0.0,0.0,0.0,0.0,0.0744,0.0,0.042,0.0,0.0251,0.0,0.0,0.0,0.0,0.0,0.0,0.0,0.0,0.0,0.0,0.0,0.0,0.0,0.0,0.0,0.0,0.0,0.0,0.0,0.0,0.0,0.0,0.0,0.0,0.0,0.0,0.0,0.0,0.0,0.0,0.0,0.0,0.0,0.0,0.0,0.0,0.0,0.0,0.0,0.0,0.0,0.0,0.0,0.0,0.0,0.0,0.0,0.0,0.0,0.0,0.0,0.0,0.0,0.0,0.0,0.0,0.0,0.0,0.0,0.0,0.0,0.0,0.0,0.0,0.0,0.0,0.0,0.0,0.0,0.0,0.0,0.0,0.0,0.0,0.0,0.0,0.0,0.0,0.0,0.0,0.0,0.0,0.0,0.0,0.0,0.0,0.0,0.0,0.0,0.0,0.0,0.0,0.0,0.0,0.0,0.0,0.0,0.0,0.0,0.0,0.0,0.0,0.0,0.0,0.0,0.0,0.0,0.0,0.0,-0.0016,0.0,0.0,0.0,0.0,0.0,0.0,0.0,0.0,0.0,0.0,0.0,0.0,0.0,0.0,0.0,0.0,0.0,0.0,0.0,0.0,0.0,0.0,0.0,0.0,0.0,0.0,0.0,0.0,0.0,0.0,0.0,0.0,0.0,0.0,0.0,0.0,0.0,0.0,0.0,0.0,0.0,0.0,0.0,0.0,0.0,0.0,0.0,0.0,0.0,0.0,0.0,0.0,0.0,0.0,0.0,0.0,0.0,0.0,0.0,0.0,0.0,0.0,0.0,0.0,0.0,0.0,0.0,0.0,0.0,0.0,0.0,0.0,0.0,0.0,0.0,0.0,0.0,0.0,0.0,0.0,0.0,0.0,0.0,0.0,0.0,0.0,0.0,0.0,0.0,0.0,0.0,0.0,0.0,0.0,0.0,0.0,0.0,0.0,0.0,0.0,0.0,0.0,0.0,0.0,0.0,0.0,0.0,0.0,0.0,0.0,0.0,0.0,0.0,0.0,0.0,0.0,0.0,0.0,0.0,0.0,0.0,0.0,0.0,0.0,0.0,0.0,0.0,0.0,0.0,0.0,0.0,0.0,0.0,0.0,0.0,0.0,0.0,0.0,0.0,0.0,0.0,0.0,0.0,0.0,0.0,0.0,0.0,0.0,0.0,0.0,0.0,0.0,0.0,0.0,0.0,0.0,0.0,0.0,0.0,0.0,0.0,0.0,0.0,0.0,0.0,0.0,0.0,0.0,0.0,0.0,0.0,0.0,0.0,0.0,0.0,0.0,0.0,0.0,0.0,0.0,0.0,0.0,0.0,0.0,0.0,0.0,0.0,0.0,0.0,0.0,0.0,0.0,0.0,0.0,0.0,0.0,0.0,0.0,0.0,0.0,0.0,0.0,0.0,0.0,0.0,0.0,0.0,0.0,0.0,0.0,0.0,0.0,0.0,0.0,0.0,0.0,0.0,0.0,0.0,0.0,0.0,0.0,0.0,0.0,0.0,0.0,0.0,0.0,0.0,0.0,-0.0939,-0.0587,-0.0267,0.0,0.0,0.0,0.0,0.0,0.0,0.0,0.0,0.0,0.0,0.0,0.0,0.0,0.0,0.0,0.0,0.0,0.0,0.0,0.0,0.0,0.0,0.0,0.0,0.0,0.0,0.0,0.0,0.0,0.0,0.0,0.0,0.0,0.0,0.0,0.0,0.0,0.0,0.0,0.0,0.0,0.0,0.0,0.0,0.0,0.0,0.0,0.0,0.0,0.0,0.0,0.0,0.0,0.0,0.0,0.0,0.0,0.0,0.0,0.0,0.0,0.0,0.0,0.0,0.0,0.0,0.0,0.0,0.0,0.0,0.0,0.0,0.0,0.0,0.0,0.0,0.0,0.0,0.0,0.0,0.0,0.0,0.0,0.0,0.0,0.0,0.0,0.0,0.0,0.0,0.0,0.0,0.0,0.0,0.0,0.0,0.0,0.0,0.0,0.0,0.0,0.0,0.0,0.0,0.0,0.0,0.0,0.0,0.0,0.0,0.0,0.0,-0.2509,-0.1687,-0.0888,0.0,0.0,-0.0044,0.0,0.0,0.0,0.0,0.0,0.0,0.0,0.0,0.0,0.0,0.0,0.0,0.0,0.0,0.0,0.0,0.0,0.0,0.0,0.0,0.0,0.0,0.0,0.0,0.0,0.0,0.0,0.0,0.0,0.0,0.0,0.0,0.0,0.0,0.0,0.0,0.0,0.0,0.0,0.0,0.0,0.0,0.0,0.0,0.0,0.0,0.0,0.0,0.0,0.0,0.0,0.0,0.0,0.0,0.0,0.0,0.0,0.0,0.0,0.0,0.0,0.0,0.0,0.0,0.0,0.0,0.0,0.0,0.0,0.0,0.0,0.0,0.0,0.0,0.0,0.0,0.0,0.0,0.0,0.0,0.0,0.0,0.0,0.0,0.0,0.0,0.0,0.0,0.0,0.0,0.0,0.0,0.0,0.0,0.0,0.0,0.0,0.0,0.0,0.0,0.0,0.0,0.0,0.0,0.0,0.0,0.0,0.0,0.0,-0.2659,-0.3049,-0.2519,-0.1039,-0.0954,-0.064,0.0,0.0,0.0,0.0,0.0,0.0,0.0,0.0,0.0,0.0,0.0,0.0,0.0,0.0,0.0,0.0,0.0,0.0,0.0,0.0,0.0,0.0,0.0,0.0,0.0,0.0,0.0,0.0,0.0,0.0,0.0,0.0,0.0,0.0,0.0,0.0,0.0,0.0,0.0,0.0,0.0,0.0,0.0,0.0,0.0,0.0,0.0,0.0,0.0,0.0,0.0,0.0,0.0,0.0,0.0,0.0,0.0,0.0,0.0,0.0,0.0,0.0,0.0,0.0,0.0,0.0,0.0,0.0,0.0,0.0,0.0,0.0,0.0,0.0,0.0,0.0,0.0,0.0,0.0,0.0,0.0,0.0,0.0,0.0,0.0,0.0,0.0,0.0,0.0,0.0,0.0,0.0,0.0,0.0,0.0,0.0,0.0,0.0,0.0,0.0,0.0,0.0,0.0,0.0,0.0,0.0,0.0,0.0,-0.3823,-0.3719,-0.4386,-0.4051,-0.2557,-0.1824,-0.1146,0.0,0.0,0.0,0.0,0.0,0.0,0.0,0.0,0.0,0.0,0.0,0.0,0.0,0.0,0.0,0.0,0.0,0.0,0.0,0.0,0.0,0.0,0.0,0.0,0.0,0.0,0.0,0.0,0.0,0.0,0.0,0.0,0.0,0.0,0.0,0.0,0.0,0.0,0.0,0.0,0.0,0.0,0.0,0.0,0.0,0.0,0.0,0.0,0.0,0.0,0.0,0.0,0.0,0.0,0.0,0.0,0.0,0.0,0.0,0.0,0.0,0.0,0.0,0.0,0.0,0.0,0.0,0.0,0.0,0.0,0.0,0.0,0.0,0.0,0.0,0.0,0.0,0.0,0.0,0.0,0.0,0.0,0.0,0.0,0.0,0.0,0.0,0.0,0.0,0.0,0.0,0.0,0.0,0.0,0.0,0.0,0.0,0.0,0.0,0.0,0.0,0.0,0.0,0.0,0.0,0.0,0.0,0.0,-0.498,-0.53,-0.5634,-0.5377,-0.4417,-0.2741,-0.1668,0.0,0.0,0.0,0.0,0.0,0.0,0.0,0.0,0.0,0.0,0.0,0.0,0.0,0.0,0.0,0.0,0.0,0.0,0.0,0.0,0.0,0.0,0.0,0.0,0.0,0.0,0.0,0.0,0.0,0.0,0.0,0.0,0.0,0.0,0.0,0.0,0.0,0.0,0.0,0.0,0.0,0.0,0.0,0.0,0.0,0.0,0.0,0.0,0.0,0.0,0.0,0.0,0.0,0.0,0.0,0.0,0.0,0.0,0.0,0.0,0.0,0.0,0.0,0.0,0.0,0.0,0.0,0.0,0.0,0.0,0.0,0.0,0.0,0.0,0.0,0.0,0.0,0.0,0.0,0.0,0.0,0.0,0.0,0.0,0.0,0.0,0.0,0.0,0.0,0.0,0.0,0.0,0.0,0.0,0.0,0.0,0.0,0.0,0.0,0.0,0.0,0.0,0.0,0.0,0.0,0.0,0.0,0.0,-0.5992,-0.6508,-0.6162,-0.5838,-0.5626,-0.4221,-0.2824,0.0,0.0,0.0,0.0,0.0,0.0,0.0,0.0,0.0,0.0,0.0,0.0,0.0,0.0,0.0,0.0,0.0,0.0,0.0,0.0,0.0,0.0,0.0,0.0,0.0,0.0,0.0,0.0,0.0,0.0,0.0,0.0,0.0,0.0,0.0,0.0,0.0,0.0,0.0,0.0,0.0,0.0,0.0,0.0,0.0,0.0,0.0,0.0,-0.2713,0.0,0.0,0.0,0.0,0.0,0.0,0.0,0.0,0.0,0.0,0.0,0.0,0.0,0.0,0.0,0.0,0.0,0.0,0.0,0.0,0.0,0.0,0.0,0.0,0.0,0.0,0.0,0.0,0.0,0.0,0.0,0.0,0.0,0.0,0.0,0.0,0.0,0.0,0.0,0.0,0.0,0.0,0.0,0.0,0.0,0.0,0.0,0.0,0.0,0.0,0.0,0.0,0.0,0.0,0.0,0.0,0.0,0.0,0.0,-0.6979,-0.7094,-0.6927,-0.6588,-0.6017,-0.5198,-0.3894,0.0,0.0,0.0,0.0,0.0,0.0,0.0,0.0,0.0,0.0,0.0,0.0,0.0,0.0,0.0,0.0,0.0,0.0,0.0,0.0,0.0,0.0,0.0,0.0,0.0,0.0,0.0,0.0,0.0,0.0,0.0,0.0,0.0,0.0,0.0,0.0,0.0,0.0,0.0,0.0,0.0,0.0,0.0,0.0,0.0,0.0,0.0,0.0,0.0,0.0,0.0,0.0,0.0,0.0,0.0,0.0,0.0,0.0,0.0,0.0,0.0,0.0,0.0,0.0,0.0,0.0,0.0,0.0,0.0,0.0,0.0,0.0,0.0,0.0,0.0,0.0,0.0,0.0,0.0,0.0,0.0,0.0,0.0,0.0,0.0,0.0,0.0,0.0,0.0,0.0,0.0,0.0,0.0,0.0,0.0,0.0,0.0,0.0,0.0,0.0,0.0,0.0,0.0,0.0,0.0,0.0,0.0,-0.7747,-0.7921,-0.7562,-0.7709,-0.7255,-0.6105,-0.5633,-0.4704,-0.3116,0.0,0.0,0.0,0.0,0.0,0.0,0.0,0.0,0.0,0.0,0.0,0.0,0.0,0.0,0.0,0.0,0.0,0.0,0.0,0.0,0.0,0.0,0.0,0.0,0.0,0.0,0.0,0.0,0.0,0.0,0.0,0.0,0.0,0.0,0.0,0.0,0.0,0.0,0.2164,0.0586,0.0,0.0,0.0,0.0,0.0,0.0,0.0,0.0,-0.4994,0.0,0.0,0.0,0.0,0.0,0.0,0.0,0.0,0.0,0.0,0.0,0.0,0.0,0.0,0.0,0.0,0.0,0.0,0.0,0.0,0.0,0.0,0.0,0.0,0.0,0.0,0.0,0.0,0.0,0.0,0.0,0.0,0.0,0.0,0.0,0.0,0.0,0.0,0.0,0.0,0.0,0.0,0.0,0.0,0.0,0.0,0.0,0.0,0.0,0.0,0.0,0.0,0.0,0.0,0.0,0.0,-0.9143,-0.8752,-0.8532,-0.8546,-0.8036,-0.731,-0.629,-0.5218,-0.4419,-0.381,0.0,0.0,0.0,0.0,0.0,0.0,0.0,0.0,0.0,0.0,0.0,0.0,0.0,0.0,0.0,0.0,0.0,0.0,0.0,0.0,0.0,0.0,0.0,0.0,0.0,0.0,0.0,0.0,0.0,0.0,0.0,0.0,0.0,0.0,0.0,0.0,0.0,0.0,0.0,-0.0857,-0.2349,0.0,0.0,0.0,0.0,0.0,0.0,0.0,0.0,-0.5709,0.0,0.0,0.0,0.0,0.0,0.0,0.0,0.0,0.0,0.0,0.0,0.0,0.0,0.0,0.0,0.0,0.0,0.0,0.0,0.0,0.0,0.0,0.0,0.0,0.0,0.0,0.0,0.0,0.0,0.0,0.0,0.0,0.0,0.0,0.0,0.0,0.0,0.0,0.0,0.0,0.0,0.0,0.0,0.0,0.0,0.0,0.0,0.0,0.0,0.0,0.0,0.0,0.0,0.0,0.0,-0.9606,-0.9798,-0.9837,-0.9821,-0.901,-0.8036,-0.6919,-0.5655,-0.4626,0.0,0.0,0.0,0.0,0.0,0.0,0.0,0.0,0.0,0.0,0.0,0.0,0.0,0.0,0.0,0.0,0.0,0.0,0.0,0.0,0.0,0.0,0.0,0.0,0.0,0.0,0.0,0.0,0.0,0.0,0.0,0.0,0.0,0.0,0.0,0.0,0.0,0.0,0.0,0.0,-0.1685,-0.3198,-0.4,0.0,0.0,0.0,0.0,0.0,0.0,-0.69,-0.6493,0.0,0.0,0.0,0.0,0.0,0.0,0.0,0.0,0.0,0.0,0.0,0.0,0.0,0.0,0.0,0.0,0.0,0.0,0.0,0.0,0.0,0.0,0.0,0.0,0.0,0.0,0.0,0.0,0.0,0.0,0.0,0.0,0.0,0.0,0.0,0.0,0.0,0.0,0.0,0.0,0.0,0.0,0.0,0.0,0.0,0.0,0.0,0.0,0.0,0.0,0.0,0.0,0.0,0.0,0.0,-0.9646,-1.0526,-1.0872,-1.0736,-0.982,-0.874,-0.7528,-0.6175,-0.4922,0.0,0.0,0.0,0.0,0.0,0.0,0.0,0.0,0.0,0.0,0.0,0.0,0.0,0.0,0.0,0.0,0.0,0.0,0.0,0.0,0.0,0.0,0.0,0.0,0.0,0.0,0.0,0.0,0.0,0.0,0.0,0.0,0.0,0.0,0.0,0.0,0.0,0.0,0.0,0.0,0.0,-0.3705,-0.4023,-0.449,0.0,0.0,0.0,0.0,-0.7091,-0.7038,0.0,0.0,0.0,0.0,0.0,0.0,0.0,0.0,0.0,0.0,0.0,0.0,0.0,0.0,0.0,0.0,0.0,0.0,0.0,0.0,0.0,0.0,0.0,0.0,0.0,0.0,0.0,0.0,0.0,0.0,0.0,0.0,0.0,0.0,0.0,0.0,0.0,0.0,0.0,0.0,0.0,0.0,0.0,0.0,0.0,0.0,0.0,0.0,0.0,0.0,0.0,0.0,0.0,0.0,0.0,0.0,-0.9626,-1.0325,-1.0707,-1.0724,-0.982,-0.874,-0.7532,-0.6248,-0.5022,0.0,0.0,0.0,0.0,0.0,0.0,0.0,0.0,0.0,0.0,0.0,0.0,0.0,0.0,0.0,0.0,0.0,0.0,0.0,0.0,0.0,0.0,0.0,0.0,0.0,0.0,0.0,0.0,0.0,0.0,0.0,0.0,0.0,0.0,0.0,0.0,0.0,0.0,0.0,0.0,0.0,-0.3658,-0.426,-0.3688,-0.3707,0.0,0.0,-0.5765,-0.6575,-0.6657,0.0,0.0,0.0,0.0,0.0,0.0,0.0,0.0,0.0,0.0,0.0,0.0,0.0,0.0,0.0,0.0,0.0,0.0,0.0,0.0,0.0,0.0,0.0,0.0,0.0,0.0,0.0,0.0,0.0,0.0,0.0,0.0,0.0,0.0,0.0,0.0,0.0,0.0,0.0,0.0,0.0,0.0,0.0,0.0,0.0,0.0,0.0,0.0,0.0,0.0,0.0,0.0,0.0,0.0,0.0,-0.9072,-1.0157,-1.1244,-1.1758,-1.1619,-1.0121,-0.8976,-0.8234,-0.6335,-0.4925,0.0,0.0,0.0,0.0,0.0,0.0,0.0,0.0,0.0,0.0,0.0,0.0,0.0,0.0,0.0,0.0,0.0,0.0,0.0,0.0,0.0,0.0,0.0,0.0,0.0,0.0,0.0,0.0,0.0,0.0,0.0,0.0,0.0,0.0,0.0,0.0,0.0,0.0,0.0,0.0,0.0,0.0,-0.4667,-0.4003,0.0,0.0,0.0,-0.5187,-0.5597,0.0,0.0,0.0,0.0,0.0,0.0,0.0,0.0,0.0,0.0,0.0,0.0,0.0,0.0,0.0,0.0,0.0,0.0,0.0,0.0,0.0,0.0,0.0,0.0,0.0,0.0,0.0,0.0,0.0,0.0,0.0,0.0,0.0,0.0,0.0,0.0,0.0,0.0,0.0,0.0,0.0,0.0,0.0,0.0,0.0,0.0,0.0,0.0,0.0,0.0,0.0,0.0,0.0,0.0,0.0,0.0,0.0,-1.0501,-1.1949,-1.2583,-1.2278,-1.0351,-0.9121,-0.8759,-0.6453,0.0,0.0,0.0,0.0,0.0,0.0,0.0,0.0,0.0,0.0,0.0,0.0,0.0,0.0,0.0,0.0,0.0,0.0,0.0,0.0,0.0,0.0,0.0,0.0,0.0,0.0,0.0,0.0337,0.0,0.0,0.0,0.0,0.0,0.0,0.0,0.0,0.0,0.0,0.0,0.0,0.0,0.0,-0.4988,-0.4738,-0.4183,-0.4233,0.0,0.0,-0.4869,-0.5033,-0.5322,-0.5035,0.0,0.0,0.0,0.0,0.0,0.0,0.0,0.0,0.0,0.0,0.0,0.0,0.0,0.0,0.0,0.0,0.0,0.0,0.0,0.0,0.0,0.0,0.0,0.0,0.0,0.0,0.0,0.0,0.0,0.0,0.0,0.0,0.0,0.0,0.0,0.0,0.0,0.0,0.0,0.0,0.0,0.0,0.0,0.0,0.0,0.0,0.0,0.0,0.0,0.0,0.0,0.0,0.0,0.0,0.0,-1.0537,-1.1949,-1.2583,-1.2271,-1.0346,-0.9153,-0.8769,-0.6578,-0.4841,0.0,0.0,0.0,0.0,0.0,0.0,0.0,0.0,0.0,0.0,0.0,0.0,0.0,0.0,0.0,0.0,0.0,0.0,0.0,0.0,0.0,0.0,0.0,0.0,0.0,0.0,0.0,0.0,0.0,0.0,0.0,0.0,0.0,0.0,0.0,0.0,0.0,0.0,0.0,0.0,0.0,-0.4761,-0.433,-0.3611,-0.3506,0.0,-0.4582,-0.476,-0.5431,-0.5579,-0.5371,-0.469,0.0,0.0,0.0,0.0,0.0,0.0,0.0,0.0,0.0,0.0,0.0,0.0,0.0,0.0,0.0,0.0,0.0,0.0,0.0,0.0,0.0,0.0,0.0,0.0,0.0,0.0,0.0,0.0,0.0,0.0,0.0,0.0,0.0,0.0,0.0,0.0,0.0,0.0,0.0,0.0,0.0,0.0,0.0,0.0,0.0,0.0,0.0,0.0,0.0,0.0,0.0,0.0,0.0,-1.1186,-1.1855,-1.2916,-1.3355,-1.3099,-1.123,-0.9807,-0.9016,-0.7341,-0.5788,0.0,0.0,0.0,0.0,0.0,0.0,0.0,0.0,0.0,0.0,0.0,0.0,0.0,0.0,0.0,0.0,0.0,0.0,0.0,0.0,0.0,0.0,0.0,0.0,0.0,0.0,0.0,0.0,-0.3109,-0.3666,-0.3742,0.0,0.0,0.0,0.0,0.0,0.0,0.0,0.0,0.0,0.0,-0.7309,-0.7327,-0.615,0.0,0.0,-0.6552,-0.607,-0.6768,-0.7119,-0.6751,-0.5287,-0.4859,0.0,0.0,0.0,0.0,0.0,0.0,0.0,0.0,0.0,0.0,0.0,0.0,0.0,0.0,0.0,0.0,0.0,0.0,0.0,0.0,0.0,0.0,0.0,0.0,0.0,0.0,0.0,0.0,0.0,0.0,0.0,0.0,0.0,0.0,0.0,0.0,0.0,0.0,0.0,0.0,0.0,0.0,0.0,0.0,0.0,0.0,0.0,0.0,0.0,0.0,0.0,0.0,-1.2143,-1.2917,-1.3945,-1.4237,-1.3702,-1.2074,-1.0691,-0.9576,-0.8215,-0.6778,0.0,0.0,0.0,0.0,0.0,0.0,0.0,0.0,0.0,0.0,0.0,0.0,0.0,0.0,0.0,0.0,0.0,0.0,0.0,0.0,0.0,0.0,0.0,0.0,0.0,0.0,0.0,0.0,-0.4434,-0.5033,-0.53,0.0,0.0,0.0,0.0,0.0,0.0,0.0,0.0,0.0,0.0,-1.0272,-1.0074,-0.8609,-0.8039,-0.9473,-0.8651,-0.8119,-0.8913,-0.9567,-0.9532,-0.8126,0.0,0.0,0.0,0.0,0.0,0.0,0.0,0.0,0.0,0.0,0.0,0.0,0.0,0.0,0.0,0.0,0.0,0.0,0.0,0.0,0.0,0.0,0.0,0.0,0.0,0.0,0.0,-0.3673,0.0,0.0,-0.2635,0.0,0.0,0.0,0.0,0.0,0.0,0.0,0.0,0.0,0.0,0.0,0.0,0.0,0.0,0.0,0.0,0.0,0.0,0.0,0.0,0.0,0.0,-1.2601,-1.34,-1.5024,-1.5189,-1.3803,-1.272,-1.1674,-1.0605,-0.9151,-0.7754,-0.6413,0.0,0.0,0.0,0.0,0.0,0.0,0.0,0.0,0.0,0.0,0.0,0.0,0.0,0.0,0.0,0.0,0.0,0.0,0.0,0.0,0.0,0.0,0.0,0.0,0.0,0.0,-0.4529,-0.548,-0.6327,0.0,0.0,0.0,0.0,0.0,0.0,0.0,0.0,0.0,0.0,-1.4463,-1.3324,-1.1992,-1.0544,-0.9814,-1.0225,-1.0467,-1.0991,-1.2005,-1.3119,-1.388,0.0,0.0,0.0,0.0,0.0,0.0,0.0,0.0,0.0,0.0,0.0,0.0,0.0,0.0,0.0,0.0,0.0,0.0,0.0,0.0,0.0,0.0,0.0,0.0,0.0,0.0,0.0,-0.7115,-0.6937,0.0,0.0,0.0,0.0,0.0,0.0,0.0,0.0,0.0,0.0,0.0,-0.8586,-0.9415,0.0,0.0,0.0,0.0,0.0,0.0,0.0,0.0,0.0,0.0,0.0,0.0,-1.3887,-1.4754,-1.6053,-1.6514,-1.6007,-1.4154,-1.2722,-1.1698,-1.0497,-0.9053,-0.732,0.0,0.0,0.0,0.0,0.0,0.0,0.0,0.0,0.0,0.0,0.0,0.0,0.0,0.0,0.0,0.0,0.0,0.0,0.0,0.0,0.0,0.0,0.0,0.0,0.0,-0.5137,0.0,0.0,0.0,0.0,0.0,0.0,0.0,0.0,0.0,0.0,0.0,-1.862,-1.8927,-1.8077,-1.6855,-1.5281,-1.3505,-1.2648,0.0,0.0,0.0,0.0,0.0,0.0,0.0,0.0,0.0,0.0,0.0,0.0,0.0,0.0,-1.1483,-0.818,-0.7992,-0.8845,-1.0466,0.0,0.0,0.0,0.0,0.0,0.0,0.0,0.0,0.0,0.0,0.0,0.0,0.0,0.0,-1.0359,-1.0435,-0.9256,0.0,0.0,0.0,0.0,0.0,0.0,0.0,0.0,-1.0873,-1.1435,-1.1773,-1.2501,-1.2644,0.0,-1.366,-1.3143,0.0,0.0,0.0,0.0,0.0,0.0,0.0,0.0,-1.5531,-1.6266,-1.7692,-1.8056,-1.718,-1.5694,-1.438,-1.3288,-1.1793,-1.0156,-0.8379,-0.6897,-0.5866,0.0,0.0,0.0,0.0,0.0,0.0,0.0,0.0,0.0,0.0,0.0,0.0,0.0,0.0,0.0,0.0,0.0,0.0,0.0,0.0,0.0,0.0,0.0,-0.7145,0.0,0.0,0.0,0.0,0.0,0.0,0.0,0.0,0.0,-2.1656,-2.2776,-2.3825,-2.4256,-2.2887,-2.11,-1.9058,0.0,0.0,0.0,0.0,0.0,0.0,0.0,-2.1305,-2.2989,-2.2551,-2.1499,-2.0205,-1.8387,-1.6987,-1.6685,0.0,0.0,-1.2403,-1.1952,-1.2845,-1.4428,-1.4864,-1.5263,-1.6298,-1.6519,-1.6474,0.0,0.0,0.0,0.0,0.0,0.0,0.0,0.0,-1.3593,-1.3688,0.0,-1.3158,0.0,0.0,0.0,0.0,-1.0683,-1.253,0.0,0.0,-1.6425,-1.7175,-1.7245,-1.7106,-1.6968,-1.683,-1.7858,-1.7642,-1.6069,-1.3654,0.0,0.0,0.0,0.0,0.0,0.0,-1.7484,-1.7956,-1.9807,-1.9667,-1.7496,-1.7234,-1.6545,-1.5163,-1.3065,-1.1222,-0.9695,-0.8465,-0.712,-0.5714,-0.5674,0.0,0.0,0.0,0.0,0.0,0.0,0.0,0.0,0.0,0.0,0.0,0.0,0.0,0.0,0.0,0.0,0.0,0.0,0.0,0.0,-0.8445,0.0,0.0,0.0,0.0,0.0,0.0,0.0,0.0,0.0,0.0,-2.7293,-2.9137,-3.0703,-3.0908,0.0,0.0,0.0,0.0,-1.8944,-1.8228,-1.8711,-1.9888,-2.2144,-2.3395,-2.497,-2.7509,0.0,0.0,-2.4372,-2.2837,-2.171,-2.0954,-2.1966,-2.1667,-1.7523,-1.6876,-1.7313,-1.8256,-1.8377,-1.8732,-1.961,-1.9447,-1.9219,-1.8055,0.0,0.0,0.0,0.0,-1.7211,-1.7849,-1.9003,-1.7825,-1.7252,-1.7,-1.5754,0.0,0.0,0.0,0.0,0.0,0.0,-1.5876,-1.6467,-1.7186,-1.7681,-1.7959,-1.8087,-1.8138,-1.8079,-1.8868,-1.9045,-1.8559,-1.7681,-1.5957,-1.3447,0.0,0.0,0.0,0.0,-1.9369,-2.0463,-2.1284,-2.1207,-2.0224,-1.8223,-1.6553,-1.5242,-1.4348,-1.3332,-1.2257,-1.0789,-0.9447,-0.8282,-0.7037,0.0,0.0,0.0,0.0,0.0,0.0,0.0,0.0,0.0,0.0,0.0,0.0,0.0,0.0,0.0,0.0,0.0,0.0,0.0,-0.8659,-0.9431,-1.0542,0.0,0.0,0.0,0.0,0.0,0.0,0.0,0.0,0.0,-3.2434,-3.3141,-3.3535,0.0,0.0,-3.0071,-2.6689,-2.4331,-2.2418,-2.1017,-1.9564,0.0,-2.2622,-2.2754,-2.41,-2.8714,-2.9876,-2.9654,-2.8114,-2.6362,-2.5093,-2.4807,-2.5136,-2.5028,-2.3897,-2.1976,-2.0716,-2.0507,-2.0388,-2.0574,-2.114,-2.1223,-2.1128,-2.1868,-2.0626,-1.9515,-1.9424,-2.0019,-1.9748,-2.0323,-2.1424,-2.0328,-1.9916,-1.9885,-1.8707,-1.7487,-1.6301,-1.5602,0.0,0.0,0.0,-1.8444,-1.9143,-1.9435,-1.9784,-2.011,-2.0166,-2.0159,-2.0141,-2.0403,-2.0507,-2.0488,-2.037,-1.9004,-1.6484,0.0,0.0,-1.7385,-1.9942,-2.1608,-2.2265,-2.288,-2.2791,-2.1988,-1.9631,-1.7614,-1.6066,-1.5652,-1.4965,-1.3896,-1.275,-1.1473,-1.0001,-0.889,-0.7617,0.0,0.0,0.0,0.0,0.0,0.0,0.0,0.0,0.0,0.0,0.0,-0.5869,-0.4939,0.0,0.0,0.0,-0.8713,-1.0043,-1.124,-1.2035,0.0,0.0,0.0,0.0,0.0,0.0,0.0,-2.6685,-3.0372,-3.3505,-3.5326,-3.6088,-3.6362,-3.6274,-3.5244,-3.3367,-3.0138,0.0,-2.5866,-2.3687,-2.1578,-2.0732,-2.2139,-2.1906,-2.3271,-2.835,-2.9879,-3.0413,-3.0214,-2.8839,-2.7827,-2.7799,-2.7799,-2.7678,-2.7209,-2.5356,-2.3638,-2.2788,-2.2263,-2.209,-2.2344,-2.2383,-2.2393,-2.5062,-2.484,-2.2261,-2.1382,-2.1609,-2.1548,-2.1734,-2.2099,-2.1562,-2.1775,-2.2441,-2.1648,-2.0715,-1.9715,-1.8509,0.0,-1.7629,-1.9814,-2.1416,-2.2559,-2.2559,-2.2721,-2.3071,-2.2691,-2.2568,-2.2516,-2.2168,-2.1982,-2.1982,-2.2058,-2.1469,-2.0287,-2.0252,-2.0219,-2.0288,-2.2812,-2.3988,-2.3647,-2.4564,-2.4354,-2.2915,-2.1224,-1.9387,-1.7494,-1.709,-1.63,-1.4959,-1.4463,-1.3316,-1.1298,-1.1041,-0.9742,-0.7184,0.0,0.0,0.0,0.0,0.0,0.0,0.0,0.0,0.0,0.0,0.0,0.0,0.0,0.0,0.0,-1.1385,0.0,-1.4204,-1.541,0.0,0.0,0.0,-2.0293,-2.1117,-2.4545,-2.741,-2.8894,0.0,0.0,-3.6483,-3.7919,-3.8799,-3.8799,-3.7682,-3.5953,-3.3441,-3.1275,-2.9038,-2.6135,-2.4043,-2.2379,-2.1381,-2.1381,-2.2965,-2.6896,-2.8658,-2.9885,-3.0818,-3.033,-2.983,-2.9663,-2.974,-2.9443,-2.8398,-2.7198,-2.6171,-2.5051,-2.3869,-2.3062,-2.3033,-2.3023,-2.3013,-2.7323,-2.7246,-2.6579,-2.5904,-2.5183,-2.4315,-2.4011,-2.4052,-2.3057,-2.2574,-2.249,-2.2305,-2.189,-2.1368,-2.1337,-2.1278,-2.1271,-2.2123,-2.2695,-2.2935,-2.2945,-2.3003,-2.3081,-2.2994,-2.2955,-2.2945,-2.2847,-2.2799,-2.2822,-2.3356,-2.3515,-2.3232,-2.4389,-2.4084,-2.2468,-2.4458,-2.5784,-2.6352,-2.5852,-2.4729,-2.2984,-2.2457,-2.1317,-1.9475,-1.9565,-1.8656,-1.6567,-1.5886,-1.4958,-1.3701,-1.2377,-1.1264,-1.0362,-0.9197,0.0,0.0,0.0,0.0,0.0,0.0,0.0,0.0,0.0,-1.0259,-0.7925,0.0,-1.2082,0.0,-1.3626,-1.5051,-1.6005,-1.6365,0.0,0.0,-2.0403,-2.1326,-2.3629,-2.5333,-2.7002,-2.8613,-3.1673,-3.4147,-3.5442,-3.7014,-3.8064,-3.8048,-3.8235,-3.7488,-3.502,-3.288,-3.058,-2.7671,-2.4136,-2.152,-2.1327,-2.2582,-2.4189,-2.615,-2.8138,-2.9897,-3.1005,-3.0406,-2.9779,-2.9779,-2.9779,-2.9663,-2.9404,-2.7839,-2.6513,-2.6016,-2.452,-2.3101,-2.3101,-2.3101,-2.3101,-2.8858,-2.8889,-2.9381,-2.9237,-2.8539,-2.6707,-2.5913,-2.5807,-2.4475,-2.3745,-2.3481,-2.2998,-2.2346,-2.1707,-2.2418,-2.2481,-2.2029,-2.2756,-2.3101,-2.3101,-2.3101,-2.3101,-2.3101,-2.3101,-2.3101,-2.3101,-2.3101,-2.3101,-2.3169,-2.4007,-2.4462,-2.4524,-2.6325,-2.6635,-2.5436,-2.6395,-2.7186,-2.7657,-2.6867,-2.5637,-2.3919,-2.3618,-2.2593,-2.0682,-2.0831,-1.9964,-1.7915,-1.7552,-1.6737,-1.531,-1.4157,-1.3241,-1.2599,-1.1564,-1.0919,0.0,0.0,0.0,0.0,0.0,0.0,0.0,0.0,0.0,0.0,0.0,-1.4533,-1.4598,-1.5967,-1.7174,-1.8032,-1.8672,-1.9723,-2.1458,-2.2118,-2.2814,-2.3621,-2.4745,-2.6034,-2.7374,-2.9512,-3.1836,-3.412,-3.5734,-3.6811,-3.7188,-3.7257,-3.6762,-3.5416,-3.3816,-3.1845,-2.8966,-2.5234,-2.2073,-2.0819,-2.1851,-2.3503,-2.5233,-2.7352,-2.9256,-3.0342,-3.0177,-2.9779,-2.9779,-2.9779,-2.9779,-2.9702,-2.845,-2.7128,-2.6389,-2.5094,-2.38,-2.3222,-2.3101,-2.3101,-3.023,-3.0326,-3.1216,-3.1612,-3.1426,-2.8962,-2.7824,-2.749,-2.5903,-2.5105,-2.4828,-2.3614,-2.2501,-2.1614,-2.2633,-2.2536,-2.1614,-2.2624,-2.3101,-2.3101,-2.3101,-2.3101,-2.3101,-2.3101,-2.3101,-2.3101,-2.3101,-2.3101,-2.3144,-2.4382,-2.4999,-2.5126,-2.7227,-2.8307,-2.8311,-2.8311,-2.8285,-2.821,-2.7607,-2.6641,-2.5337,-2.482,-2.361,-2.162,-2.1561,-2.0812,-1.9168,-1.9133,-1.8393,-1.6758,-1.6223,-1.55,-1.4456,-1.3925,-1.3781,0.0,-1.3915,0.0,0.0,0.0,0.0,0.0,0.0,0.0,0.0,-1.7146,-1.7245,-1.7226,-1.834,-1.9319,-2.0098,-2.126,-2.1992,-2.2102,-2.3402,-2.3783,-2.2405,-2.325,-2.4356,-2.5378,-2.6605,-2.8793,-3.2317,-3.396,-3.5085,-3.5817,-3.5409,-3.4818,-3.4589,-3.3825,-3.2294,-2.9809,-2.6725,-2.3365,-2.1016,-2.1015,-2.2452,-2.4609,-2.6705,-2.8505,-2.9857,-3.0037,-2.9998,-3.0037,-3.0037,-2.996,-2.9818,-2.8858,-2.7735,-2.6719,-2.5504,-2.4372,-2.343,-2.3101,-2.3101,-3.2486,-3.2498,-3.2669,-3.2797,-3.2717,-3.1707,-3.0519,-2.9228,-2.8005,-2.6704,-2.5366,-2.3787,-2.3003,-2.2775,-2.2994,-2.296,-2.2775,-2.3003,-2.3101,-2.3101,-2.3101,-2.3101,-2.3101,-2.3101,-2.3101,-2.3101,-2.3101,-2.3101,-2.3135,-2.5179,-2.6182,-2.6224,-2.8371,-2.9495,-2.9482,0.0,0.0,0.0,-2.7795,-2.7147,-2.6858,-2.6357,-2.5129,-2.3171,-2.2873,0.0,-2.0082,-1.9665,-1.9347,-1.8969,-1.8356,0.0,0.0,0.0,0.0,0.0,0.0,0.0,0.0,0.0,0.0,0.0,-2.0937,-1.9963,-1.8753,-2.0118,-2.0839,-2.0205,-2.0817,-2.1328,-2.1504,-2.2041,-2.2529,-2.2818,-2.2324,-2.1824,-2.1485,-2.0935,-2.0962,-2.2318,-2.4242,-2.6596,-2.9431,-3.1266,-3.2732,-3.3839,-3.3473,-3.2792,-3.215,-3.1933,-3.1162,-2.9554,-2.6736,-2.4155,-2.2443,-2.3186,-2.4367,-2.5807,-2.7105,-2.8785,-3.0481,-3.0895,-3.0895,-3.0895,-3.0932,-3.0658,-2.9921,-2.8885,-2.7844,-2.673,-2.563,-2.4457,-2.3343,-2.3101,-2.3101,-3.3319,-3.3124,-3.3124,-3.3124,0.0,-3.2767,-3.2169,-3.1308,-2.9647,-2.7794,-2.5849,-2.4376,-2.3608,-2.3422,-2.3467,-2.334,-2.3101,-2.3101,-2.3101,-2.3101,-2.3101,-2.3101,-2.3101,-2.3101,-2.3101,-2.3135,-2.3671,-2.392,-2.4092,-2.6202,-2.729,-2.7331,-2.8949,-2.9779,-2.9779,-2.9779,-2.9515,-2.89,-2.8373,-2.7833,-2.7341,-2.704,-2.5996,-2.4247,-2.4283,0.0,0.0,0.0,0.0,0.0,0.0,0.0,0.0,0.0,0.0,-1.9873,-2.018,-2.0407,-2.0726,-2.1413,-2.2469,-2.3804,-2.467,-2.4204,-2.2126,-2.2717,-2.3021,-2.2548,-2.2372,-2.2275,-2.249,-2.2705,-2.2867,-2.3018,-2.2031,-2.1114,-2.0458,-1.9469,-1.912,-1.9857,-2.1494,-2.376,-2.6899,-2.9094,-3.0978,-3.2595,-3.2788,-3.2407,-3.1741,-3.1352,-3.0655,-2.9075,-2.7618,-2.5956,-2.4977,-2.5561,-2.646,-2.7175,-2.818,-2.9447,-3.0944,-3.1204,-3.1204,-3.1204,-3.1204,-3.0908,-2.9998,-2.9326,-2.8609,-2.7481,-2.6419,-2.5294,-2.4168,-2.3507,-2.3101,-3.3771,-3.3357,-3.3257,-3.3232,-3.3219,-3.3162,-3.3124,-3.2963,-3.0846,0.0,0.0,-2.5638,-2.4756,-2.4247,-2.4247,-2.3964,-2.3515,-2.3505,-2.3466,-2.3387,-2.343,-2.3299,-2.3101,-2.3101,-2.3101,-2.3135,-2.4253,-2.4798,-2.4872,-2.7012,-2.8084,-2.8215,-2.9248,-2.9779,-2.9779,-2.9779,-2.9566,-2.9063,-2.895,-2.8486,-2.7607,-2.7517,-2.6691,-2.5146,-2.5423,-2.4644,-2.2711,-2.302,-2.2648,-2.1383,-2.137,-2.1556,-2.1895,-2.2033,-2.2698,-2.4017,-2.423,-2.4368,-2.4569,-2.5398,-2.5799,-2.5548,-2.7306,-2.763,-2.5817,-2.5205,-2.4826,-2.4632,-2.3552,-2.2968,-2.3105,-2.3101,-2.3101,-2.3091,-2.1845,-2.0593,-1.9641,-1.8456,-1.7823,-1.8044,-1.9275,-2.1333,-2.4735,-2.6944,-2.9098,-3.1173,-3.1842,-3.2109,-3.1643,-3.1123,-3.0329,-2.8888,-2.8374,-2.8016,-2.7452,-2.7695,-2.8347,-2.8426,-2.9157,-3.0101,-3.0895,-3.1204,-3.1204,-3.1204,-3.1204,-3.0796,-3.0024,-2.974,-2.9404,-2.8307,-2.7238,-2.6182,-2.5041,-2.3877,-2.3135,-3.4562,-3.4462,-3.3985,-3.3784,-3.3746,-3.3282,-3.3124,-3.2975,-3.1246,-3.0312,-2.9875,-2.8294,-2.6975,-2.5944,-2.5954,-2.5625,-2.5078,-2.5068,-2.4883,-2.4595,-2.4575,-2.4049,-2.3135,-2.3101,-2.3101,-2.3178,-2.4253,-2.4798,-2.5041,-2.7052,-2.8084,-2.8255,-2.9223,-2.9779,-2.9779,-2.9779,-2.9754,-2.9666,-2.9189,-2.8813,-2.8699,-2.8235,-2.7431,-2.6323,-2.5858,-2.5034,-2.3828,-2.3853,-2.3778,-2.3552,-2.3979,-2.4067,-2.369,-2.4092,-2.4437,-2.4675,-2.5121,-2.5799,-2.6728,-2.7014,-2.7431,-2.8248,-2.9101,-2.9201,-2.8438,-2.7866,-2.7185,-2.6236,-2.5093,-2.4096,-2.3256,-2.3135,-2.3101,-2.2969,-2.1087,-1.9787,-1.9808,-1.8011,-1.6917,-1.7369,-1.8535,-2.0462,-2.3275,-2.4808,-2.6571,-2.8675,-3.0097,-3.012,-3.0104,-2.996,-2.9907,-2.965,-2.9573,-2.9495,-2.9268,-2.939,-2.9493,-2.9546,-2.9636,-3.0101,-3.1031,-3.1204,-3.1204,-3.1204,-3.1204,-3.0833,-2.9998,-2.9779,-2.9365,-2.8386,-2.7331,-2.6182,-2.5083,-2.3973,-2.3135,-3.4944,-3.4713,-3.4449,-3.4349,-3.4311,-3.3759,-3.3345,-3.3056,-3.2265,-3.1556,-3.0798,-2.9417,-2.8366,-2.7677,-2.7677,-2.737,-2.6878,-2.6868,-2.6606,-2.6159,-2.6148,-2.571,-2.4946,-2.4349,-2.4339,-2.4935,-2.5462,-2.5994,-2.6685,-2.8267,-2.9028,-2.9067,-2.9534,-2.9779,-2.9779,-2.9779,-2.9779,-2.9779,-2.9528,-2.9214,-2.89,-2.865,-2.816,-2.7369,-2.708,-2.659,-2.5812,-2.5787,-2.5649,-2.538,-2.5573,-2.5737,-2.5787,-2.6013,-2.6289,-2.6578,-2.6816,-2.7193,-2.7695,-2.8009,-2.8524,-2.9327,-2.9628,-2.9691,-2.9428,-2.8582,-2.7884,-2.736,-2.5828,-2.4585,-2.4039,-2.3464,-2.3179,-2.3477,-2.188,-2.0732,-2.0225,-1.8931,-1.7739,-1.7415,-1.8497,-2.0206,-2.2281,-2.4038,-2.6088,-2.8539,-2.9619,-2.9793,-2.9152,-2.8862,-2.8964,-2.9549,-3.0233,-3.0631,-3.0633,-3.0394,-3.0269,-3.0244,-2.998,-3.0203,-3.097,-3.118,-3.1193,-3.1204,-3.118,-3.0833,-3.0023,-2.9792,-2.9534,-2.9118,-2.7585,-2.6389,-2.5683,-2.4349,-2.343,-3.5479,-3.509,-3.4919,-3.4793,-3.4688,-3.4274,-3.3771,-3.3282,-3.3257,-3.268,-3.1601,-3.0643,-2.9917,-2.9362,-2.935,-2.9066,-2.8676,-2.863,-2.8357,-2.7912,-2.7846,-2.7447,-2.6673,-2.5751,-2.578,-2.6494,-2.6719,-2.7279,-2.8176,-2.9236,-2.9779,-2.9779,-2.9779,-2.9779,-2.9779,-2.9779,-2.9779,-2.9779,-2.9779,-2.9566,-2.9113,-2.9076,-2.8813,-2.8335,-2.8248,-2.8034,-2.7542,-2.7469,-2.7304,-2.6901,-2.6864,-2.7065,-2.7467,-2.7469,-2.7708,-2.821,-2.8285,-2.836,-2.8499,-2.8875,-2.9315,-2.9741,-2.9779,-2.9779,-2.9702,-2.9028,-2.8335,-2.7964,-2.6614,-2.5493,-2.5094,-2.429,-2.3751,-2.4044,-2.2941,-2.1886,-2.1182,-2.0261,-1.933,-1.8505,-1.9324,-2.0633,-2.2139,-2.4076,-2.6465,-2.8826,-2.9657,-2.9339,-2.8521,-2.8121,-2.8583,-2.9339,-3.0392,-3.0996,-3.1279,-3.1072,-3.0821,-3.0796,-3.0482,-3.0621,-3.1086,-3.1237,-3.1262,-3.1251,-3.125,-3.1022,-3.0351,-3.0193,-3.0218,-3.0007,-2.8729,-2.7209,-2.6381,-2.512,-2.4012,-3.6292,-3.6179,-3.5655,-3.5132,-3.4705,-3.463,-3.4336,-3.3859,-3.3822,-3.3477,-3.289,-3.2797,-3.204,-3.1063,-3.095,-3.0667,-3.0217,-3.0194,-2.9965,-2.9599,-2.9564,-2.8733,-2.742,-2.7144,-2.6867,-2.6745,-2.7476,-2.7931,-2.8255,-2.9275,-2.9779,-2.9779,-2.9779,-2.9779,-2.9779,-2.9779,-2.9779,-2.9779,-2.9779,-2.9767,-2.9716,-2.9716,-2.944,-2.8838,-2.8813,-2.8562,-2.8084,-2.8034,-2.8009,-2.7959,-2.7959,-2.7971,-2.8034,-2.8034,-2.8285,-2.8775,-2.8813,-2.9038,-2.9553,-2.9679,-2.9716,-2.9779,-2.9779,-2.9779,-2.9779,-2.9702,-2.9197,-2.8347,-2.7924,-2.7238,-2.6453,-2.5637,-2.5197,-2.5142,-2.3792,-2.2609,-2.2566,-2.172,-2.1073,-2.1316,-2.1263,-2.2005,-2.3358,-2.4868,-2.6628,-2.9017,-2.8835,-2.825,-2.7936,-2.8427,-2.8979,-2.9353,-2.9701,-3.0302,-3.1133,-3.1373,-3.1323,-3.1323,-3.1273,-3.1231,-3.1303,-3.1341,-3.14,-3.1323,-3.1367,-3.1248,-3.1218,-3.1235,-3.116,-3.0876,-2.9896,-2.8692,-2.6943,-2.585,-2.5357,-3.6417,-3.6392,-3.6119,-3.5705,-3.5194,-3.5169,-3.4843,-3.4412,-3.4387,-3.4085,-3.3596,-3.3558,-3.3096,-3.2339,-3.2326,-3.2203,-3.2007,-3.1994,-3.1699,-3.1262,-3.1225,-3.0668,-2.9778,-2.9063,-2.8792,-2.8793,-2.8081,-2.8174,-2.9037,-2.9573,-2.9779,-2.9779,-2.9779,-2.9779,-2.9779,-2.9779,-2.9779,-2.9779,-2.9779,-2.9779,-2.9779,-2.9779,-2.9679,-2.9465,-2.944,-2.9352,-2.9126,-2.9114,-2.9101,-2.9101,-2.9114,-2.9101,-2.9101,-2.9114,-2.9189,-2.9428,-2.944,-2.9528,-2.9767,-2.9779,-2.9779,-2.9779,-2.9779,-2.9779,-2.9779,-2.9779,-2.9573,-2.9145,-2.8505,-2.8002,-2.7847,-2.7088,-2.6487,-2.6249,-2.5574,-2.4704,-2.3492,-2.2987,-2.2503,-2.1929,-2.2408,-2.3349,-2.4741,-2.6554,-2.8093,-2.9212,-2.8912,-2.8495,-2.7814,-2.8038,-2.8588,-2.9225,-2.9432,-3.0334,-3.1838,-3.2064,-3.1926,-3.1825,-3.1587,-3.1399,-3.1436,-3.1386,-3.1414,-3.1411,-3.1474,-3.1502,-3.1364,-3.1386,-3.1386,-3.1178,-2.9749,-2.8145,-2.6564,-2.5653,-2.5223,-3.6417,-3.6417,-3.6417,-3.6132,-3.578,-3.5721,-3.5408,-3.4931,-3.4906,-3.4593,-3.4135,-3.3972,-3.3684,-3.3319,-3.3156,-3.3124,-3.3124,-3.3124,-3.2855,-3.2466,-3.2453,-3.2152,-3.1567,-3.0842,-3.0572,-3.0537,-2.9087,-2.8805,-2.9674,-2.9443,-2.9495,-2.9753,-2.9779,-2.9779,-2.9779,-2.9779,-2.9779,-2.9779,-2.9779,-2.9779,-2.9779,-2.9779,-2.9779,-2.9779,-2.9779,-2.9779,-2.9779,-2.9779,-2.9624,-2.9365,-2.9326,-2.9209,-2.8922,-2.8922,-2.904,-2.9326,-2.9663,-2.9779,-2.9779,-2.9779,-2.9779,-2.9779,-2.9779,-2.9779,-2.9779,-2.9779,-2.9867,-2.9939,-2.9236,-2.9008,-2.9176,-2.8631,-2.8113,-2.7883,-2.7476,-2.6367,-2.5052,-2.4531,-2.3881,-2.3076,-2.411,-2.5402,-2.6913,-2.8674,-2.9909,-2.9943,-2.9897,-2.9269,-2.8085,-2.7908,-2.8412,-2.8901,-2.9385,-3.0787,-3.263,-3.2729,-3.2478,-3.239,-3.2127,-3.1964,-3.1851,-3.1863,-3.1905,-3.2219,-3.198,-3.1942,-3.2106,-3.1976,-3.1825,-3.1397,-3.0039,-2.8232,-2.7606,-2.5997,-2.5345,-3.6417,-3.6417,-3.6417,-3.6392,-3.6367,-3.6342,-3.6006,-3.547,-3.547,-3.5157,-3.465,-3.4186,-3.3897,-3.3834,-3.3357,-3.3124,-3.3124,-3.3124,-3.3086,-3.3023,-3.3048,-3.2717,-3.2202,-3.2123,-3.1805,-3.1348,-3.0571,-3.005,-2.9738,-2.8791,-2.8715,-2.9753,-2.9779,-2.9779,-2.9779,-2.9779,-2.9779,-2.9779,-2.9779,-2.9779,-2.9779,-2.9779,-2.9779,-2.9702,-2.9792,-2.9779,-2.9779,-2.9779,-2.9326,-2.8215,-2.8176,-2.7735,-2.6842,-2.6771,-2.729,-2.8176,-2.9236,-2.9779,-2.9779,-2.9779,-2.9779,-2.9779,-2.9779,-2.9779,-2.9804,-2.9842,-3.0055,-3.0468,-3.0463,-3.0458,-3.049,-3.0265,-3.0099,-2.9951,-2.8604,-2.7693,-2.7332,-2.6119,-2.5674,-2.5509,-2.6398,-2.7949,-3.0326,-3.1033,-3.1045,-3.1078,-3.1089,-3.0271,-2.8495,-2.8634,-2.8727,-2.8459,-2.9453,-3.15,-3.2742,-3.2955,-3.2955,-3.2893,-3.2767,-3.291,-3.3011,-3.3048,-3.2986,-3.2948,-3.2822,-3.281,-3.2973,-3.2943,-3.2744,-3.2056,-3.0505,-2.9161,-2.8152,-2.6855,-2.6036,-3.6732,-3.6417,-3.6417,-3.6417,-3.6417,-3.6417,-3.6279,-3.6069,-3.6081,-3.5755,-3.5232,-3.4994,-3.4763,-3.4387,-3.3847,-3.3407,-3.3149,-3.3124,-3.3124,-3.3124,-3.3124,-3.2968,-3.2792,-3.2767,-3.2466,-3.1868,-3.1023,-3.0099,-2.9363,-2.949,-2.97,-2.9739,-2.9779,-2.9779,-2.9779,-2.9779,-2.9779,-2.9792,-2.9779,-2.9779,-2.9779,-2.9779,-2.9495,-2.8819,-2.9404,-2.9779,-2.9779,-2.9106,-2.8505,-2.8124,-2.7493,-2.6883,-2.6648,-2.7168,-2.7683,-2.8136,-2.9157,-2.9779,-2.9779,-2.9779,-2.9779,-2.9779,-2.9779,-2.9792,-2.9854,-3.0105,-3.0407,-3.0631,-3.127,-3.1571,-3.1605,-3.1571,-3.1369,-3.0902,-3.029,-2.9223,-2.7955,-2.7173,-2.661,-2.6235,-2.7447,-2.9396,-3.0721,-3.1178,-3.1488,-3.2152,-3.1733,-3.0496,-2.9315,-2.9189,-2.8901,-2.7992,-2.8366,-2.9636,-3.1689,-3.2655,-3.3068,-3.3111,-3.3086,-3.3048,-3.3111,-3.3111,-3.3048,-3.3036,-3.3111,-3.3124,-3.3043,-3.2859,-3.2797,-3.1821,-3.0305,-2.9039,-2.8355,-2.6839,-2.6014,-3.7021,-3.6669,-3.6493,-3.6417,-3.6417,-3.6417,-3.6417,-3.6417,-3.6405,-3.6144,-3.583,-3.5583,-3.5295,-3.4893,-3.4412,-3.3872,-3.3357,-3.3212,-3.3124,-3.3124,-3.3124,-3.3124,-3.3124,-3.3124,-3.2923,-3.2322,-3.1192,-3.0241,-2.9816,-3.0122,-3.0338,-3.0344,-3.0306,-3.0206,-3.0093,-3.0055,-3.0005,-2.9842,-2.9779,-2.9779,-2.9779,-2.9779,-2.9236,-2.8386,-2.8858,-2.9079,-2.8752,-2.7988,-2.74,-2.6982,-2.6337,-2.5975,-2.6058,-2.6994,-2.7763,-2.8176,-2.9184,-2.9779,-2.9779,-2.9779,-2.9779,-2.9779,-2.9792,-2.9829,-3.0043,-3.0407,-3.0733,-3.1173,-3.1712,-3.221,-3.2356,-3.2127,-3.1865,-3.1704,-3.1444,-3.0586,-2.9004,-2.8412,-2.8038,-2.7945,-2.8577,-3.0,-3.1412,-3.1733,-3.2239,-3.3025,-3.2008,-3.0765,-2.9715,-2.8993,-2.8402,-2.7305,-2.74,-2.8588,-3.0271,-3.15,-3.2655,-3.284,-3.3081,-3.3124,-3.3124,-3.3124,-3.3124,-3.3124,-3.3124,-3.3124,-3.2982,-3.2754,-3.2108,-3.1211,-2.9761,-2.8319,-2.7542,-2.6668,-2.6014,-3.7199,-3.7073,-3.6609,-3.6443,-3.6417,-3.6417,-3.6417,-3.6417,-3.6417,-3.6367,-3.6241,-3.5805,-3.5571,-3.5395,-3.4931,-3.4437,-3.3972,-3.3432,-3.3131,-3.3124,-3.3124,-3.3124,-3.3124,-3.3124,-3.3111,-3.2925,-3.143,-3.0961,-3.1207,-3.0538,-3.0543,-3.1213,-3.1235,-3.0997,-3.062,-3.0608,-3.0369,-3.003,-2.993,-2.9854,-2.9792,-2.9817,-2.9197,-2.8136,-2.8056,-2.7562,-2.6554,-2.6472,-2.6047,-2.5157,-2.4861,-2.4787,-2.5041,-2.6005,-2.7005,-2.8096,-2.9157,-2.974,-2.9779,-2.9779,-2.9779,-2.9804,-2.9804,-3.008,-3.0444,-3.0696,-3.1135,-3.1863,-3.2202,-3.2411,-3.2635,-3.1923,-3.1748,-3.2698,-3.1965,-3.1089,-3.0822,-3.0045,-2.9818,-3.0395,-3.009,-3.0496,-3.2283,-3.2698,-3.2698,-3.2754,-3.2008,-3.0765,-2.959,-2.8541,-2.722,-2.638,-2.661,-2.7767,-2.9085,-3.0361,-3.1601,-3.2612,-3.2939,-3.3124,-3.3124,-3.3124,-3.3124,-3.3124,-3.3124,-3.3081,-3.2939,-3.2568,-3.1601,-3.0586,-2.9039,-2.7767,-2.6945,-2.6245,-2.5965,-3.7525,-3.7235,-3.701,-3.6744,-3.643,-3.6417,-3.6417,-3.6417,-3.6417,-3.6417,-3.638,-3.6182,-3.6107,-3.5981,-3.5542,-3.5144,-3.4906,-3.4085,-3.3458,-3.3199,-3.3136,-3.3124,-3.3124,-3.3124,-3.3124,-3.3056,-3.258,-3.2164,-3.1914,-3.1563,-3.1527,-3.142,-3.1411,-3.1311,-3.116,-3.1135,-3.1035,-3.0884,-3.0532,-3.0357,-3.0319,-2.9993,-2.8922,-2.725,-2.7005,-2.613,-2.4349,-2.4925,-2.5136,-2.4745,-2.4049,-2.3963,-2.484,-2.5891,-2.6994,-2.8056,-2.9197,-2.9779,-2.9779,-2.9792,-2.9804,-2.9867,-3.0131,-3.0407,-3.0683,-3.1298,-3.1759,-3.2252,-3.2554,-3.2635,-3.1872,-3.1456,-3.1689,-3.2939,-3.1965,-3.1178,-3.1033,-3.0079,-3.009,-3.0822,-3.0135,-3.0598,-3.2152,-3.2481,-3.2108,-3.2711,-3.1821,-3.0586,-2.9533,-2.8262,-2.7173,-2.611,-2.6524,-2.6935,-2.8226,-2.9361,-3.0406,-3.1733,-3.2426,-3.2982,-3.3025,-3.3124,-3.3124,-3.3124,-3.3124,-3.3038,-3.284,-3.2196,-3.1223,-3.0045,-2.868,-2.7579,-2.6572,-2.6052,-2.5771,-3.8128,-3.7776,-3.7349,-3.6998,-3.6694,-3.6505,-3.6417,-3.6417,-3.6417,-3.6417,-3.6417,-3.6405,-3.6417,-3.6342,-3.5994,-3.5696,-3.5433,-3.4743,-3.4211,-3.3658,-3.3237,-3.3136,-3.3124,-3.3124,-3.3124,-3.3124,-3.3124,-3.2905,-3.2554,-3.2516,-3.2365,-3.2077,-3.2014,-3.1901,-3.1725,-3.1687,-3.1625,-3.1386,-3.1072,-3.0909,-3.0834,-3.0557,-2.9335,-2.7376,-2.6895,-2.5626,-2.3624,-2.3891,-2.4168,-2.4039,-2.342,-2.3681,-2.4745,-2.5891,-2.6964,-2.8056,-2.9106,-2.9779,-2.9804,-3.0005,-3.0093,-3.0193,-3.0595,-3.1009,-3.126,-3.1938,-3.224,-3.2566,-3.2842,-3.2556,-3.1456,-3.0721,-3.1,-3.1601,-3.1456,-3.1178,-3.0989,-2.9727,-2.9361,-2.9852,-2.9407,-2.992,-3.0878,-3.1235,-3.0822,-3.1424,-3.0643,-3.0045,-2.9039,-2.7898,-2.6887,-2.6197,-2.6197,-2.6754,-2.7505,-2.8366,-2.9212,-3.0541,-3.1821,-3.2469,-3.2884,-3.3025,-3.3124,-3.3124,-3.3124,-3.3124,-3.2939,-3.1952,-3.0989,-2.9636,-2.8459,-2.7352,-2.6428,-2.5965,-2.5684,-3.8944,-3.8781,-3.7688,-3.7224,-3.7073,-3.6631,-3.6417,-3.6417,-3.6417,-3.6417,-3.6417,-3.6417,-3.6417,-3.6417,-3.6342,-3.6044,-3.5608,-3.542,-3.5094,-3.4525,-3.3822,-3.3307,-3.3232,-3.3174,-3.3124,-3.3124,-3.3124,-3.3111,-3.3023,-3.298,-3.3068,-3.2986,-3.2923,-3.278,-3.2353,-3.2252,-3.2051,-3.1687,-3.1512,-3.1436,-3.1424,-3.1323,-3.0316,-2.8173,-2.7671,-2.6562,-2.4754,-2.4237,-2.3626,-2.3198,-2.3135,-2.3627,-2.4755,-2.585,-2.6789,-2.7976,-2.9131,-2.9711,-2.9928,-3.0382,-3.0645,-3.0696,-3.1135,-3.1637,-3.2026,-3.224,-3.2541,-3.2918,-3.3086,-3.2525,-3.1178,-3.0181,-2.9624,-2.9498,-3.0316,-3.081,-3.0855,-2.9085,-2.8808,-2.9085,-2.8495,-2.8143,-2.9498,-2.9498,-2.9453,-2.9453,-2.8773,-2.8588,-2.8808,-2.8028,-2.6972,-2.6706,-2.6887,-2.7258,-2.8236,-2.7955,-2.8901,-3.0395,-3.1412,-3.1821,-3.2698,-3.3025,-3.3124,-3.3124,-3.3025,-3.3038,-3.2667,-3.1689,-3.0721,-2.9636,-2.8402,-2.7163,-2.638,-2.5868,-2.5684,-3.9245,-3.8793,-3.809,-3.7563,-3.7136,-3.6631,-3.6417,-3.6417,-3.6417,-3.6417,-3.6417,-3.6417,-3.6417,-3.6417,-3.6417,-3.6317,-3.6069,-3.5683,-3.5458,-3.5194,-3.4605,-3.406,-3.3646,-3.3257,-3.3124,-3.3124,-3.3124,-3.3124,-3.3124,-3.3124,-3.3124,-3.3124,-3.3124,-3.3018,-3.2855,-3.2817,-3.2792,-3.2579,-3.2177,-3.2001,-3.1938,-3.1612,-3.0745,-2.9484,-2.9155,-2.8339,-2.7097,-2.6857,-2.5459,-2.3261,-2.3101,-2.3594,-2.4669,-2.5189,-2.6166,-2.7771,-2.873,-2.9576,-3.0284,-3.0884,-3.116,-3.1235,-3.1687,-3.2039,-3.2202,-3.2616,-3.288,-3.3124,-3.3081,-3.2239,-3.0406,-2.959,-2.905,-2.8366,-2.9085,-2.9761,-2.9761,-2.9407,-2.9085,-2.9223,-2.8226,-2.8226,-2.8634,-2.8588,-2.8366,-2.8773,-2.8355,-2.7992,-2.8577,-2.8262,-2.721,-2.8308,-2.868,-2.8727,-2.8727,-2.8226,-2.8727,-3.0305,-3.1033,-3.1045,-3.2108,-3.3081,-3.3124,-3.3124,-3.2797,-3.2698,-3.2152,-3.1368,-3.0418,-2.9453,-2.7945,-2.661,-2.6149,-2.5684,-2.5684,-3.9509,-3.9221,-3.8605,-3.804,-3.7487,-3.6983,-3.6619,-3.6443,-3.6417,-3.6417,-3.6417,-3.6417,-3.6417,-3.6417,-3.6417,-3.6417,-3.6355,-3.6031,-3.5906,-3.5793,-3.527,-3.4638,-3.3997,-3.3533,-3.3319,-3.3124,-3.3136,-3.3124,-3.3124,-3.3124,-3.3124,-3.3124,-3.3124,-3.3124,-3.3099,-3.3124,-3.3124,-3.3048,-3.2729,-3.2579,-3.2528,-3.2277,-3.1514,-3.0584,-3.0226,-2.9542,-2.83,-2.807,-2.69,-2.4975,-2.4496,-2.452,-2.4598,-2.5134,-2.5926,-2.7299,-2.8424,-2.9556,-3.0184,-3.1083,-3.1712,-3.1838,-3.2252,-3.2528,-3.2629,-3.2905,-3.3124,-3.3124,-3.3124,-3.2108,-3.0496,-2.9315,-2.8132,-2.7125,-2.7437,-2.8085,-2.8541,-2.8075,-2.7898,-2.7662,-2.7352,-2.703,-2.7814,-2.7231,-2.7268,-2.7494,-2.7163,-2.7851,-2.8819,-2.8179,-2.8272,-2.9498,-2.9772,-2.9544,-2.9636,-2.9361,-2.8947,-3.035,-3.1267,-3.1134,-3.1965,-3.3081,-3.3025,-3.2939,-3.2612,-3.2239,-3.1745,-3.1101,-3.0045,-2.8855,-2.7295,-2.6428,-2.6052,-2.5965,-2.5917,-3.9697,-3.9647,-3.9145,-3.8617,-3.804,-3.7437,-3.6945,-3.6568,-3.6443,-3.6417,-3.6417,-3.6417,-3.6417,-3.6417,-3.6417,-3.6417,-3.6417,-3.6355,-3.6367,-3.6157,-3.578,-3.514,-3.4324,-3.4073,-3.3796,-3.3445,-3.3244,-3.3206,-3.3219,-3.3212,-3.3124,-3.3124,-3.3124,-3.3124,-3.3124,-3.3124,-3.3124,-3.3124,-3.3074,-3.3011,-3.3011,-3.2905,-3.2346,-3.161,-3.1214,-3.0453,-2.9326,-2.8699,-2.7932,-2.6679,-2.6459,-2.556,-2.4749,-2.5406,-2.5972,-2.6443,-2.7949,-2.9184,-2.9874,-3.1185,-3.2164,-3.2306,-3.2767,-3.3111,-3.3074,-3.3099,-3.3124,-3.3124,-3.3124,-3.2295,-3.0789,-2.8945,-2.744,-2.6463,-2.6064,-2.6502,-2.6972,-2.649,-2.5771,-2.582,-2.5889,-2.5879,-2.581,-2.5781,-2.5869,-2.6794,-2.6569,-2.7342,-2.8448,-2.868,-2.9498,-3.1089,-3.081,-3.0079,-3.0316,-3.0541,-3.0181,-3.044,-3.14,-3.1821,-3.2382,-3.3081,-3.2939,-3.2698,-3.2096,-3.1821,-3.1645,-3.0822,-2.9544,-2.8762,-2.7579,-2.6849,-2.6294,-2.6428,-2.6428,-3.9697,-3.9647,-3.9107,-3.8806,-3.858,-3.7626,-3.7172,-3.6973,-3.6606,-3.6468,-3.6417,-3.6417,-3.6417,-3.6417,-3.6417,-3.6417,-3.6417,-3.6417,-3.6417,-3.6392,-3.6317,-3.583,-3.5177,-3.4743,-3.4487,-3.4236,-3.3884,-3.3734,-3.3658,-3.3345,-3.3136,-3.3149,-3.3149,-3.3124,-3.3124,-3.3124,-3.3124,-3.3124,-3.3124,-3.3124,-3.3124,-3.3124,-3.2939,-3.2556,-3.2475,-3.2389,-3.1933,-3.1077,-2.9993,-2.8722,-2.7213,-2.5801,-2.4871,-2.4759,-2.532,-2.6111,-2.6945,-2.8333,-2.991,-3.0941,-3.1913,-3.2769,-3.2998,-3.3124,-3.3124,-3.3124,-3.3124,-3.3124,-3.3081,-3.2225,-3.0466,-2.8922,-2.7707,-2.6814,-2.6534,-2.678,-2.6972,-2.6635,-2.6387,-2.6582,-2.6619,-2.6678,-2.6699,-2.6367,-2.6279,-2.6221,-2.6486,-2.6986,-2.7872,-2.8806,-3.0181,-3.1633,-3.2008,-3.1323,-3.1323,-3.1412,-3.0956,-3.0765,-3.1545,-3.2283,-3.284,-3.2982,-3.284,-3.2239,-3.15,-3.1323,-3.1279,-2.9738,-2.8319,-2.8038,-2.8038,-2.7484,-2.7078,-2.7078,-2.6897,-3.9697,-3.9659,-3.9371,-3.9107,-3.8844,-3.8216,-3.7814,-3.75,-3.7033,-3.6747,-3.6719,-3.6543,-3.6417,-3.6417,-3.6417,-3.6417,-3.6417,-3.6417,-3.6417,-3.6417,-3.6392,-3.6194,-3.5981,-3.5592,-3.529,-3.4801,-3.4449,-3.4299,-3.4135,-3.3771,-3.3495,-3.342,-3.3232,-3.3136,-3.3124,-3.3149,-3.3124,-3.3124,-3.3124,-3.3124,-3.3124,-3.3124,-3.3124,-3.3124,-3.3124,-3.3124,-3.2902,-3.1853,-3.0619,-2.9307,-2.7823,-2.6326,-2.5303,-2.4992,-2.535,-2.5869,-2.6822,-2.7977,-2.9601,-3.0767,-3.1765,-3.2982,-3.3124,-3.3124,-3.3124,-3.3124,-3.3124,-3.3144,-3.3177,-3.2705,-3.1205,-3.0044,-2.8955,-2.786,-2.721,-2.7131,-2.7197,-2.6953,-2.6738,-2.6963,-2.6963,-2.6963,-2.6894,-2.6807,-2.6738,-2.666,-2.6378,-2.6848,-2.7936,-2.8932,-3.0091,-3.1368,-3.2469,-3.2754,-3.2525,-3.2239,-3.1645,-3.15,-3.1733,-3.2382,-3.2896,-3.284,-3.2655,-3.1921,-3.1089,-3.0822,-3.0496,-2.8819,-2.8319,-2.9223,-2.9361,-2.8495,-2.8075,-2.8355,-2.7851,-3.9697,-3.9697,-3.9697,-3.9421,-3.9019,-3.8932,-3.8555,-3.809,-3.745,-3.7111,-3.7073,-3.6644,-3.6417,-3.6417,-3.6417,-3.6417,-3.6417,-3.6417,-3.6417,-3.6417,-3.6417,-3.638,-3.6304,-3.6191,-3.5843,-3.5014,-3.4876,-3.4806,-3.47,-3.4324,-3.4035,-3.3947,-3.3608,-3.352,-3.3407,-3.3345,-3.3382,-3.3363,-3.3294,-3.3224,-3.3149,-3.3124,-3.3124,-3.3124,-3.3124,-3.3124,-3.2853,-3.1865,-3.0619,-2.9453,-2.8272,-2.704,-2.6062,-2.5684,-2.5684,-2.5742,-2.6597,-2.7823,-2.9272,-3.0383,-3.1412,-3.2853,-3.3124,-3.3199,-3.3206,-3.3338,-3.3382,-3.3545,-3.3709,-3.367,-3.2942,-3.1529,-3.0296,-2.9179,-2.7884,-2.7476,-2.7578,-2.7422,-2.7314,-2.7285,-2.7422,-2.7471,-2.7344,-2.7236,-2.7168,-2.7051,-2.6759,-2.6854,-2.7918,-2.9008,-3.0136,-3.1247,-3.2339,-3.3743,-3.3781,-3.416,-3.3439,-3.3375,-3.3183,-3.3163,-3.3465,-3.3007,-3.2723,-3.1545,-3.0855,-3.0676,-3.0226,-2.9177,-2.9315,-3.0586,-3.0361,-2.9223,-2.9177,-2.959,-2.8947,-3.9697,-3.9697,-3.9697,-3.9634,-3.9484,-3.9082,-3.8894,-3.8555,-3.7688,-3.7199,-3.7136,-3.6681,-3.6455,-3.6417,-3.6417,-3.6417,-3.6417,-3.6417,-3.6417,-3.6417,-3.6417,-3.6417,-3.6417,-3.6405,-3.6241,-3.6031,-3.5667,-3.537,-3.5245,-3.4843,-3.4555,-3.455,-3.4412,-3.4349,-3.4311,-3.4412,-3.4085,-3.3809,-3.3759,-3.3583,-3.3287,-3.3149,-3.3124,-3.3124,-3.3124,-3.3124,-3.2797,-3.1865,-3.0631,-2.9453,-2.8215,-2.6982,-2.6062,-2.5732,-2.5771,-2.5781,-2.6159,-2.7352,-2.9085,-2.9715,-3.0968,-3.2438,-3.3224,-3.3407,-3.3633,-3.3796,-3.396,-3.4254,-3.4327,-3.4082,-3.3002,-3.1908,-3.0877,-2.9695,-2.8702,-2.8018,-2.8096,-2.8037,-2.7949,-2.7891,-2.7969,-2.7978,-2.7803,-2.7666,-2.7588,-2.7451,-2.7158,-2.7231,-2.7877,-2.8978,-3.0131,-3.1194,-3.2283,-3.3763,-3.4956,-3.567,-3.5811,-3.5971,-3.5741,-3.5021,-3.4819,-3.3674,-3.2847,-3.2484,-3.1455,-3.0721,-3.0135,-2.9498,-3.009,-3.1235,-3.0598,-2.9863,-3.0406,-3.0866,-3.0271,-3.9697,-3.9697,-3.9697,-3.9697,-3.9647,-3.9421,-3.9295,-3.9182,-3.8479,-3.7889,-3.7525,-3.7048,-3.6656,-3.648,-3.6417,-3.6417,-3.6417,-3.6417,-3.6417,-3.6417,-3.6417,-3.6417,-3.6417,-3.6417,-3.6417,-3.6342,-3.6081,-3.5956,-3.5906,-3.537,-3.5132,-3.5019,-3.4856,-3.468,-3.468,-3.463,-3.4542,-3.4361,-3.4299,-3.406,-3.3508,-3.3294,-3.3162,-3.3136,-3.3093,-3.3124,-3.2754,-3.1146,-3.009,-2.9177,-2.7626,-2.6466,-2.6062,-2.6207,-2.6352,-2.5995,-2.6362,-2.741,-2.9301,-3.016,-3.1765,-3.3227,-3.3721,-3.4022,-3.4236,-3.4374,-3.4555,-3.4794,-3.4299,-3.4011,-3.3684,-3.2036,-3.0766,-3.0013,-2.8991,-2.8368,-2.8301,-2.8301,-2.8301,-2.8301,-2.8213,-2.8164,-2.8193,-2.8076,-2.8008,-2.7832,-2.7588,-2.7738,-2.7955,-2.9072,-3.0264,-3.1781,-3.3054,-3.4788,-3.6229,-3.7128,-3.7918,-3.8242,-3.7952,-3.7206,-3.6486,-3.5518,-3.4951,-3.4605,-3.3282,-3.1648,-3.0866,-3.0508,-3.119,-3.1777,-3.1645,-3.1601,-3.1921,-3.1952,-3.1323,-3.9697,-3.9697,-3.9697,-3.9697,-3.9697,-3.9697,-3.9685,-3.9584,-3.9133,-3.8479,-3.7977,-3.7412,-3.686,-3.6531,-3.6417,-3.6417,-3.6417,-3.6417,-3.6417,-3.6417,-3.6417,-3.6417,-3.6417,-3.6417,-3.6417,-3.6405,-3.6367,-3.6417,-3.6232,-3.5906,-3.5742,-3.5629,-3.5228,-3.5052,-3.5127,-3.524,-3.5027,-3.4843,-3.4831,-3.4613,-3.4085,-3.3658,-3.3332,-3.3201,-3.3046,-3.2816,-3.2351,-3.0687,-2.9453,-2.8588,-2.7352,-2.6102,-2.6084,-2.68,-2.7023,-2.6649,-2.7502,-2.8647,-2.9964,-3.1239,-3.2608,-3.3927,-3.4405,-3.47,-3.4906,-3.5006,-3.5128,-3.508,-3.4885,-3.3947,-3.3539,-3.2006,-3.0803,-3.0037,-2.9177,-2.8301,-2.8301,-2.8301,-2.8301,-2.8301,-2.8301,-2.8291,-2.8281,-2.8271,-2.8154,-2.8135,-2.7891,-2.7738,-2.8094,-2.9384,-3.0689,-3.2488,-3.4139,-3.5987,-3.7423,-3.8532,-3.9451,-4.0182,-3.9637,-3.8808,-3.8228,-3.7548,-3.7015,-3.6326,-3.4794,-3.3245,-3.2389,-3.1681,-3.2064,-3.2525,-3.2939,-3.2982,-3.2754,-3.2655,-3.2295,-3.9697,-3.9697,-3.9749,-3.9697,-3.9697,-3.9697,-3.9697,-3.9622,-3.9145,-3.8542,-3.8052,-3.745,-3.691,-3.6518,-3.6417,-3.6417,-3.6417,-3.6417,-3.6417,-3.6417,-3.6417,-3.6417,-3.6417,-3.6417,-3.6417,-3.6417,-3.6417,-3.6417,-3.638,-3.6292,-3.6267,-3.6191,-3.6081,-3.6166,-3.5977,-3.5952,-3.5906,-3.5483,-3.5382,-3.5119,-3.4655,-3.45,-3.4186,-3.3543,-3.2849,-3.2097,-3.1529,-3.0102,-2.9055,-2.8051,-2.7641,-2.6977,-2.6517,-2.6408,-2.7439,-2.8338,-2.9454,-3.0441,-3.1505,-3.2516,-3.338,-3.44,-3.4801,-3.4956,-3.532,-3.5687,-3.5643,-3.4595,-3.5089,-3.451,-3.2959,-3.2129,-3.1389,-3.0276,-2.9006,-2.8451,-2.8301,-2.8301,-2.8301,-2.8301,-2.8301,-2.8301,-2.8291,-2.8291,-2.8281,-2.8271,-2.8213,-2.8041,-2.8421,-2.9737,-3.1332,-3.3161,-3.5459,-3.743,-3.8635,-3.9732,-4.092,-4.1934,-4.1299,-4.0521,-4.0259,-3.9749,-3.8533,-3.7644,-3.6217,-3.501,-3.4117,-3.3552,-3.3183,-3.317,-3.3495,-3.3345,-3.3081,-3.3063,-3.3164,-4.1406,-4.0794,-4.0781,-4.0364,-3.9749,-3.9697,-3.9697,-3.9647,-3.9433,-3.9019,-3.8467,-3.7902,-3.7186,-3.6556,-3.6417,-3.6417,-3.6417,-3.6417,-3.6417,-3.6417,-3.6417,-3.6417,-3.6417,-3.6417,-3.6417,-3.6417,-3.6417,-3.6417,-3.6417,-3.6417,-3.6417,-3.6417,-3.6417,-3.6355,-3.6417,-3.6417,-3.6279,-3.5968,-3.5658,-3.5382,-3.5119,-3.4798,-3.4239,-3.3287,-3.2701,-3.1924,-3.0915,-2.9705,-2.8903,-2.8161,-2.7742,-2.7152,-2.7032,-2.7362,-2.8231,-2.882,-3.0964,-3.2136,-3.259,-3.3671,-3.4493,-3.5002,-3.5441,-3.5793,-3.6031,-3.6147,-3.5823,-3.4569,-3.4105,-3.3143,-3.152,-3.0525,-2.9859,-2.9102,-2.8698,-2.8548,-2.8301,-2.8301,-2.8301,-2.8301,-2.8301,-2.8301,-2.8301,-2.8301,-2.8301,-2.8291,-2.8325,-2.827,-2.9005,-3.0414,-3.211,-3.397,-3.646,-3.8964,-3.9941,-4.0981,-4.2376,-4.3172,-4.2847,-4.2342,-4.2535,-4.1972,-4.066,-3.9576,-3.8529,-3.7316,-3.6035,-3.4939,-3.4149,-3.4004,-3.401,-3.3872,-3.3759,-3.396,-3.3685,-4.3693,-4.2496,-4.1887,-4.1032,-4.0121,-3.9839,-3.9697,-3.9697,-3.9685,-3.9371,-3.8781,-3.809,-3.7224,-3.6593,-3.6417,-3.6417,-3.6417,-3.6417,-3.6417,-3.6417,-3.6417,-3.6417,-3.6417,-3.6417,-3.6417,-3.6417,-3.6417,-3.6417,-3.6417,-3.6417,-3.6417,-3.6417,-3.6417,-3.6417,-3.6417,-3.6417,-3.6367,-3.6317,-3.5968,-3.5793,-3.5692,-3.5378,-3.4585,-3.3673,-3.2736,-3.192,-3.0741,-2.9039,-2.8304,-2.8055,-2.7502,-2.7055,-2.7282,-2.7812,-2.8593,-2.9394,-3.1197,-3.2543,-3.3434,-3.4607,-3.5519,-3.5881,-3.6044,-3.6279,-3.6342,-3.6358,-3.5499,-3.3909,-3.3712,-3.214,-3.0266,-2.9154,-2.9102,-2.8794,-2.8344,-2.8291,-2.8301,-2.8301,-2.8301,-2.8301,-2.8301,-2.8301,-2.8301,-2.8301,-2.8301,-2.8301,-2.8344,-2.8441,-2.9493,-3.0844,-3.2403,-3.4136,-3.6497,-3.8843,-4.0091,-4.1377,-4.3091,-4.4143,-4.3771,-4.378,-4.3714,-4.3428,-4.2485,-4.1538,-4.0517,-3.9392,-3.7984,-3.6475,-3.5047,-3.4634,-3.4399,-3.4505,-3.4555,-3.4718,-3.4226,-4.6299,-4.4932,-4.2606,-4.1541,-4.1319,-4.0173,-3.9697,-3.9697,-3.9697,-3.9358,-3.868,-3.7776,-3.6973,-3.6543,-3.6417,-3.6417,-3.6417,-3.6417,-3.6417,-3.6417,-3.6417,-3.6417,-3.6417,-3.6417,-3.6417,-3.6417,-3.6417,-3.6417,-3.6417,-3.6417,-3.6417,-3.6417,-3.6417,-3.6417,-3.6417,-3.6417,-3.6417,-3.6405,-3.6267,-3.6267,-3.6267,-3.6081,-3.5706,-3.4725,-3.304,-3.1465,-3.0786,-2.888,-2.7762,-2.7772,-2.7402,-2.7324,-2.7663,-2.791,-2.858,-2.9601,-3.0414,-3.1795,-3.3235,-3.4823,-3.6031,-3.6295,-3.638,-3.6417,-3.6417,-3.6417,-3.5198,-3.3243,-3.3155,-3.1887,-3.0276,-2.9154,-2.8953,-2.8654,-2.8301,-2.8301,-2.8301,-2.8301,-2.8301,-2.8301,-2.8301,-2.8301,-2.8301,-2.8301,-2.8301,-2.8301,-2.8398,-2.8495,-2.9702,-3.1008,-3.2381,-3.4071,-3.6251,-3.8164,-3.9495,-4.0887,-4.221,-4.3494,-4.3897,-4.4205,-4.4502,-4.4059,-4.3294,-4.2837,-4.177,-4.0858,-3.9792,-3.8118,-3.6554,-3.5244,-3.4756,-3.5102,-3.5165,-3.519,-3.4481,-4.7019,-4.6358,-4.3834,-4.2315,-4.1505,-4.0224,-3.9697,-3.9697,-3.9685,-3.9157,-3.8304,-3.7525,-3.6872,-3.6531,-3.6417,-3.6417,-3.6417,-3.6417,-3.6417,-3.6417,-3.6417,-3.6417,-3.6417,-3.6417,-3.6417,-3.6417,-3.6417,-3.6417,-3.6417,-3.6417,-3.6417,-3.6417,-3.6417,-3.6417,-3.6417,-3.6417,-3.6417,-3.6417,-3.6417,-3.6417,-3.6417,-3.6358,-3.5914,-3.4715,-3.427,-3.2799,-3.1727,-3.0047,-2.9291,-2.8827,-2.8257,-2.8209,-2.816,-2.8199,-2.8552,-2.9272,-2.9807,-3.0824,-3.214,-3.3946,-3.5415,-3.631,-3.6405,-3.6417,-3.6417,-3.6358,-3.4945,-3.3589,-3.2682,-3.1429,-2.9313,-2.8751,-2.8708,-2.8398,-2.8301,-2.8301,-2.8301,-2.8301,-2.8301,-2.8301,-2.8301,-2.8301,-2.8301,-2.8301,-2.8301,-2.8291,-2.8398,-2.8698,-2.9755,-3.071,-3.1876,-3.2921,-3.486,-3.6319,-3.7632,-3.9317,-4.1108,-4.2543,-4.3821,-4.4289,-4.4533,-4.3912,-4.326,-4.3115,-4.282,-4.1711,-4.0534,-3.9371,-3.7891,-3.6166,-3.5684,-3.5818,-3.5793,-3.5629,-3.4972,-4.7077,-4.6491,-4.441,-4.2978,-4.1972,-4.0415,-3.9697,-3.9697,-3.9697,-3.9069,-3.799,-3.7425,-3.6933,-3.6531,-3.6417,-3.6417,-3.6417,-3.6417,-3.6417,-3.6417,-3.6417,-3.6417,-3.6417,-3.6417,-3.6417,-3.6417,-3.6417,-3.6417,-3.6417,-3.6417,-3.6417,-3.6417,-3.6417,-3.6417,-3.6417,-3.6417,-3.6417,-3.6417,-3.6417,-3.6417,-3.6417,-3.6358,-3.6156,-3.509,-3.4569,-3.3911,-3.2841,-3.1592,-3.0912,-3.0574,-3.014,-2.9619,-2.9398,-2.9154,-2.8943,-2.9102,-2.9303,-2.9859,-3.0876,-3.2744,-3.4921,-3.6156,-3.6417,-3.6417,-3.6358,-3.6061,-3.4459,-3.2744,-3.1977,-3.0813,-2.8548,-2.8451,-2.8495,-2.8301,-2.8301,-2.8301,-2.8301,-2.8301,-2.8301,-2.8301,-2.8301,-2.8301,-2.8301,-2.8301,-2.8301,-2.8301,-2.8344,-2.8548,-2.9102,-3.0005,-3.0813,-3.1803,-3.2952,-3.422,-3.5419,-3.7065,-3.8918,-4.1692,-4.2931,-4.3921,-4.4098,-4.3506,-4.3275,-4.321,-4.282,-4.2222,-4.1209,-3.9967,-3.843,-3.6714,-3.6445,-3.6216,-3.6216,-3.6019,-3.5824,-4.6638,-4.5312,-4.4069,-4.3442,-4.3026,-4.0743,-3.9697,-3.9672,-3.9559,-3.8944,-3.7902,-3.7349,-3.6908,-3.6493,-3.6417,-3.6417,-3.6417,-3.6417,-3.6417,-3.6417,-3.6417,-3.6417,-3.6417,-3.6417,-3.6417,-3.6417,-3.6417,-3.6417,-3.6417,-3.6417,-3.6417,-3.6417,-3.6417,-3.6417,-3.6417,-3.6417,-3.6417,-3.6417,-3.6417,-3.6417,-3.6417,-3.6417,-3.6216,-3.5918,-3.5223,-3.4569,-3.4166,-3.2994,-3.2342,-3.214,-3.1836,-3.1531,-3.148,-3.0669,-3.0317,-3.0317,-2.9154,-2.926,-3.0317,-3.2905,-3.452,-3.5858,-3.6121,-3.6417,-3.6156,-3.5367,-3.4374,-3.2994,-3.1684,-3.0214,-2.8943,-2.8291,-2.8344,-2.8301,-2.8301,-2.8301,-2.8301,-2.8301,-2.8301,-2.8301,-2.8301,-2.8301,-2.8301,-2.8301,-2.8301,-2.8301,-2.8301,-2.8495,-2.8751,-2.9092,-2.9797,-2.9683,-3.0501,-3.1081,-3.23,-3.4547,-3.6818,-3.9787,-4.166,-4.2294,-4.3095,-4.313,-4.3016,-4.3155,-4.278,-4.2126,-4.1393,-4.059,-3.8827,-3.7163,-3.6593,-3.6367,-3.6405,-3.6358,-3.6156,-4.7062,-4.6491,-4.441,-4.349,-4.3122,-4.0794,-3.9697,-3.9559,-3.8906,-3.8153,-3.7462,-3.6885,-3.6619,-3.6443,-3.6417,-3.6417,-3.6417,-3.6417,-3.6417,-3.6417,-3.6417,-3.6417,-3.6417,-3.6417,-3.6417,-3.6417,-3.6417,-3.6417,-3.6417,-3.6417,-3.6417,-3.6417,-3.6417,-3.6417,-3.6417,-3.6417,-3.6417,-3.6417,-3.6417,-3.6417,-3.6417,-3.6417,-3.6417,-3.6405,-3.5858,-3.5619,-3.5523,-3.4252,-3.3761,-3.3552,-3.3204,-3.2632,-3.2532,-3.1785,-3.1684,-3.1378,-3.0359,-2.9817,-3.0317,-3.1531,-3.2744,-3.441,-3.581,-3.6216,-3.6263,-3.6061,-3.5005,-3.37,-3.2241,-3.0916,-3.0016,-2.8804,-2.8451,-2.8344,-2.8301,-2.8301,-2.8301,-2.8301,-2.8301,-2.8301,-2.8301,-2.8301,-2.8301,-2.8301,-2.8301,-2.8301,-2.8301,-2.8301,-2.8495,-2.8325,-2.8615,-2.7605,-2.7645,-2.7994,-2.9051,-3.1131,-3.3315,-3.5907,-3.8157,-3.9666,-4.0605,-4.1857,-4.2135,-4.1947,-4.2029,-4.1974,-4.1337,-4.0476,-3.8992,-3.7678,-3.6977,-3.6452,-3.6417,-3.6417,-3.6358,-4.7019,-4.6447,-4.4886,-4.3598,-4.2606,-4.0605,-3.9609,-3.9233,-3.8241,-3.75,-3.7123,-3.6669,-3.6417,-3.6417,-3.6417,-3.6417,-3.6417,-3.6417,-3.6417,-3.6417,-3.6417,-3.6417,-3.6417,-3.6417,-3.6417,-3.6417,-3.6417,-3.6417,-3.6417,-3.6417,-3.6417,-3.6417,-3.6417,-3.6417,-3.6417,-3.6417,-3.6417,-3.6417,-3.6417,-3.6417,-3.6417,-3.6417,-3.6417,-3.6417,-3.631,-3.6358,-3.6168,-3.5667,-3.5078,-3.4775,-3.4301,-3.3639,-3.3589,-3.3292,-3.3093,-3.2644,-3.1836,-3.0927,-3.0525,-3.1071,-3.2342,-3.3464,-3.4909,-3.5858,-3.6061,-3.5763,-3.5223,-3.4166,-3.3093,-3.1825,-3.0566,-2.9355,-2.9313,-2.9207,-2.926,-2.9313,-2.8631,-2.8684,-2.8727,-2.8674,-2.8301,-2.8301,-2.8301,-2.8301,-2.8301,-2.8301,-2.8301,-2.8301,-2.8301,-2.8184,-2.778,-2.6762,-2.5973,-2.6281,-2.6738,-2.7559,-2.9785,-3.2108,-3.4521,-3.6941,-3.8888,-4.0221,-4.0462,-4.0916,-4.1337,-4.1545,-4.1197,-4.0333,-3.8992,-3.7906,-3.707,-3.6675,-3.6452,-3.6417,-3.6417,-4.6594,-4.5539,-4.5403,-4.3994,-4.1785,-4.0298,-3.9348,-3.8768,-3.7725,-3.7199,-3.7086,-3.6606,-3.6417,-3.6417,-3.6417,-3.6417,-3.6417,-3.6417,-3.6417,-3.6417,-3.6417,-3.6417,-3.6417,-3.6417,-3.6417,-3.6417,-3.6417,-3.6417,-3.6417,-3.6417,-3.6417,-3.6417,-3.6417,-3.6417,-3.6417,-3.6417,-3.6417,-3.6417,-3.6417,-3.6417,-3.6417,-3.6417,-3.6417,-3.6417,-3.6417,-3.6417,-3.631,-3.6168,-3.6168,-3.6121,-3.6108,-3.6168,-3.5858,-3.5114,-3.4678,-3.3981,-3.2955,-3.1887,-3.0979,-3.1622,-3.2241,-3.3204,-3.397,-3.5066,-3.5763,-3.5667,-3.5271,-3.4617,-3.365,-3.2241,-3.0927,-3.0927,-3.0927,-3.0979,-3.103,-3.0453,-2.9489,-2.9288,-2.9321,-2.9099,-2.8568,-2.8354,-2.8301,-2.8301,-2.8451,-2.8301,-2.8301,-2.8301,-2.8301,-2.8291,-2.7726,-2.649,-2.57,-2.5041,-2.5246,-2.5485,-2.6912,-2.9466,-3.211,-3.4546,-3.6573,-3.8381,-3.8836,-3.9481,-4.0718,-4.107,-4.0732,-4.0131,-3.9214,-3.8211,-3.7196,-3.6675,-3.6417,-3.6417,-3.637,-4.7077,-4.6682,-4.5779,-4.4661,-4.3268,-4.0406,-3.8579,-3.7698,-3.7274,-3.6998,-3.6631,-3.6493,-3.6417,-3.6417,-3.6417,-3.6417,-3.6417,-3.6417,-3.6417,-3.6417,-3.6417,-3.6417,-3.6417,-3.6417,-3.6417,-3.6417,-3.6417,-3.6417,-3.6417,-3.6417,-3.6417,-3.6417,-3.6417,-3.6417,-3.6417,-3.6417,-3.6417,-3.6417,-3.6417,-3.6417,-3.6417,-3.6417,-3.6417,-3.6417,-3.6417,-3.6417,-3.6417,-3.6417,-3.6417,-3.6417,-3.6417,-3.6417,-3.631,-3.5966,-3.5619,-3.4483,-3.3822,-3.3254,-3.209,-3.2079,-3.2716,-3.3511,-3.4225,-3.503,-3.5763,-3.6063,-3.5729,-3.5199,-3.4639,-3.3553,-3.2932,-3.2803,-3.2436,-3.2141,-3.2367,-3.227,-3.1322,-3.0831,-3.0809,-3.0182,-2.9593,-2.9059,-2.8953,-2.8548,-2.8644,-2.8398,-2.8301,-2.8301,-2.8301,-2.8301,-2.7672,-2.6372,-2.548,-2.4875,-2.3877,-2.3867,-2.5167,-2.6877,-2.9683,-3.2318,-3.4377,-3.5968,-3.6954,-3.8204,-3.9626,-4.0218,-4.0275,-3.9536,-3.8725,-3.8153,-3.723,-3.6756,-3.6417,-3.6358,-3.6216,-4.655,-4.6359,-4.492,-4.3582,-4.1955,-3.9422,-3.7882,-3.7514,-3.7074,-3.6694,-3.643,-3.6417,-3.6417,-3.6417,-3.6417,-3.6417,-3.6417,-3.6417,-3.6417,-3.6417,-3.6417,-3.6417,-3.6417,-3.6417,-3.6417,-3.6417,-3.6417,-3.6417,-3.6417,-3.6417,-3.6417,-3.6417,-3.6417,-3.6417,-3.6417,-3.6417,-3.6417,-3.6417,-3.6417,-3.6417,-3.6417,-3.6417,-3.6417,-3.6417,-3.6417,-3.6417,-3.6417,-3.6417,-3.6417,-3.6417,-3.6417,-3.6417,-3.6417,-3.6358,-3.625,-3.5319,-3.5223,-3.4471,-3.3453,-3.3155,-3.3817,-3.4402,-3.4781,-3.5649,-3.6206,-3.6639,-3.6553,-3.6337,-3.5879,-3.538,-3.5033,-3.4681,-3.3864,-3.3101,-3.3679,-3.4206,-3.3543,-3.2755,-3.2163,-3.1519,-3.0934,-3.0318,-2.9859,-2.9355,-2.9049,-2.9049,-2.8751,-2.8301,-2.8301,-2.8301,-2.7501,-2.6372,-2.5489,-2.471,-2.3822,-2.3319,-2.465,-2.6181,-2.7974,-3.0407,-3.2359,-3.4289,-3.5901,-3.7304,-3.8693,-3.9139,-3.9492,-3.8903,-3.8153,-3.7619,-3.7031,-3.6273,-3.6013,-3.6108,-3.5966,-4.5405,-4.5199,-4.3332,-4.136,-3.9137,-3.7934,-3.7625,-3.7965,-3.7062,-3.6581,-3.6628,-3.6581,-3.6593,-3.6452,-3.6417,-3.6417,-3.6417,-3.6417,-3.6417,-3.6417,-3.6417,-3.6417,-3.6417,-3.6417,-3.6417,-3.6417,-3.6417,-3.6417,-3.6417,-3.6417,-3.6417,-3.6417,-3.6417,-3.6417,-3.6417,-3.6417,-3.6417,-3.6417,-3.6417,-3.6417,-3.6417,-3.6417,-3.6417,-3.6417,-3.6417,-3.6417,-3.6417,-3.6417,-3.6417,-3.6417,-3.6417,-3.6417,-3.6417,-3.6417,-3.631,-3.6263,-3.6121,-3.5682,-3.5029,-3.4772,-3.5023,-3.5375,-3.5493,-3.6394,-3.7045,-3.7174,-3.7123,-3.7186,-3.675,-3.6579,-3.6282,-3.6343,-3.5893,-3.5467,-3.5666,-3.5935,-3.56,-3.4655,-3.3572,-3.2788,-3.1819,-3.1216,-3.0514,-2.9964,-2.926,-2.9513,-2.9154,-2.8398,-2.8301,-2.8301,-2.7672,-2.6599,-2.5873,-2.5215,-2.4765,-2.4433,-2.482,-2.6046,-2.7485,-2.8928,-3.1111,-3.3181,-3.5174,-3.6304,-3.7376,-3.8289,-3.8604,-3.7939,-3.7481,-3.7356,-3.6671,-3.5738,-3.5475,-3.5463,-3.5005,-4.516,-4.4568,-4.2239,-4.0418,-3.9097,-3.8227,-3.7946,-3.8062,-3.7848,-3.7723,-3.7723,-3.7678,-3.7196,-3.6581,-3.6546,-3.6546,-3.6405,-3.6417,-3.6417,-3.6417,-3.6417,-3.6417,-3.6417,-3.6417,-3.6417,-3.6417,-3.6417,-3.6417,-3.6417,-3.6417,-3.6417,-3.6417,-3.6417,-3.6417,-3.6417,-3.6417,-3.6417,-3.6417,-3.6417,-3.6417,-3.6417,-3.6417,-3.6417,-3.6417,-3.643,-3.6443,-3.6443,-3.643,-3.6417,-3.6417,-3.6417,-3.6417,-3.6417,-3.6417,-3.6417,-3.6417,-3.6417,-3.6283,-3.6303,-3.6185,-3.6468,-3.6949,-3.7221,-3.7556,-3.7741,-3.7639,-3.7663,-3.7776,-3.7802,-3.7618,-3.768,-3.7817,-3.7954,-3.7742,-3.7518,-3.7513,-3.748,-3.6309,-3.5086,-3.4035,-3.2904,-3.2139,-3.1443,-3.0577,-2.9765,-2.9207,-2.8751,-2.8301,-2.8301,-2.8301,-2.8301,-2.7394,-2.649,-2.5882,-2.5599,-2.5608,-2.5991,-2.6381,-2.7561,-2.884,-3.0057,-3.1977,-3.3983,-3.4945,-3.5904,-3.6514,-3.6934,-3.6917,-3.6602,-3.653,-3.5831,-3.4654,-3.4068,-3.3958,-3.3403,-4.4337,-4.3715,-4.1111,-3.9175,-3.7981,-3.7485,-3.7893,-3.8783,-3.8872,-3.9214,-3.9508,-3.9081,-3.8257,-3.7276,-3.715,-3.6756,-3.6534,-3.6417,-3.6417,-3.6417,-3.6417,-3.6417,-3.6417,-3.6417,-3.6417,-3.6417,-3.6417,-3.6417,-3.6417,-3.6417,-3.6417,-3.6417,-3.6417,-3.6417,-3.6417,-3.6417,-3.6417,-3.6417,-3.6417,-3.643,-3.643,-3.643,-3.6417,-3.6417,-3.6593,-3.6606,-3.6543,-3.6556,-3.6593,-3.6505,-3.6417,-3.6417,-3.6417,-3.6417,-3.6417,-3.6417,-3.6443,-3.6543,-3.687,-3.7149,-3.7487,-3.7914,-3.8341,-3.8367,-3.8805,-3.8743,-3.853,-3.8592,-3.8429,-3.8304,-3.8667,-3.8906,-3.8906,-3.8804,-3.8703,-3.8638,-3.8424,-3.7787,-3.6905,-3.6228,-3.5296,-3.4516,-3.3526,-3.1953,-3.1084,-2.966,-2.9059,-2.8344,-2.8301,-2.8301,-2.8301,-2.813,-2.7222,-2.7051,-2.7105,-2.706,-2.7168,-2.7565,-2.7736,-2.8774,-2.9964,-3.1286,-3.2705,-3.3502,-3.4044,-3.4179,-3.4533,-3.4945,-3.5319,-3.5295,-3.4435,-3.3403,-3.2955,-3.2392,-3.1633,-4.3183,-4.2457,-3.9946,-3.7914,-3.6584,-3.6628,-3.7861,-3.9623,-3.9885,-4.0632,-4.1462,-4.0575,-3.9448,-3.8649,-3.8062,-3.7356,-3.6837,-3.6534,-3.6452,-3.6417,-3.6417,-3.6417,-3.6417,-3.6417,-3.6417,-3.6417,-3.6417,-3.6417,-3.6417,-3.6417,-3.6417,-3.6417,-3.6417,-3.6417,-3.6417,-3.6417,-3.6417,-3.6417,-3.643,-3.6468,-3.6468,-3.6455,-3.6493,-3.6669,-3.6895,-3.6971,-3.6895,-3.6908,-3.6996,-3.6707,-3.6493,-3.6417,-3.6417,-3.6417,-3.6417,-3.6417,-3.6417,-3.6568,-3.6857,-3.7236,-3.7713,-3.8216,-3.8743,-3.912,-3.9534,-3.9521,-3.9308,-3.9119,-3.8956,-3.9006,-3.937,-3.9481,-3.9481,-3.9533,-3.947,-3.9484,-3.9156,-3.8868,-3.8404,-3.7892,-3.7283,-3.6481,-3.4695,-3.314,-3.1815,-3.0432,-2.9408,-2.8751,-2.8301,-2.8301,-2.8301,-2.8301,-2.7897,-2.795,-2.8174,-2.8014,-2.7843,-2.796,-2.8174,-2.8943,-2.9817,-3.0732,-3.144,-3.1887,-3.2331,-3.2783,-3.2883,-3.3181,-3.3502,-3.397,-3.2955,-3.2039,-3.1735,-3.103,-2.9859,-4.1945,-3.9671,-3.8641,-3.7551,-3.6675,-3.7368,-3.8604,-3.9754,-3.9986,-4.1014,-4.2249,-4.1767,-4.0646,-3.9536,-3.8469,-3.7723,-3.7243,-3.6837,-3.6499,-3.6417,-3.6417,-3.6417,-3.6417,-3.6417,-3.6417,-3.6417,-3.6417,-3.6417,-3.6417,-3.6417,-3.6417,-3.6417,-3.6417,-3.6417,-3.6417,-3.6417,-3.6417,-3.6417,-3.648,-3.6543,-3.682,-3.682,-3.6744,-3.692,-3.7159,-3.74,-3.76,-3.7764,-3.75,-3.7134,-3.6732,-3.6581,-3.6505,-3.6505,-3.648,-3.6417,-3.6417,-3.6744,-3.7084,-3.7487,-3.8027,-3.8781,-3.9195,-3.9433,-3.9672,-3.9672,-3.9482,-3.9251,-3.9152,-3.9152,-3.9376,-3.9156,-3.9104,-3.9324,-3.9351,-3.9506,-3.9432,-3.9119,-3.8768,-3.8467,-3.8079,-3.6348,-3.4062,-3.2764,-3.1644,-3.0255,-2.8867,-2.831,-2.8301,-2.8301,-2.8301,-2.8301,-2.8301,-2.8291,-2.8237,-2.8237,-2.813,-2.8237,-2.8344,-2.8698,-2.9207,-2.9817,-3.0421,-3.0669,-3.1378,-3.2028,-3.2028,-3.1429,-3.2079,-3.2392,-3.1429,-3.0618,-3.0421,-2.9964,-2.9049]},{"header":{"parameterUnit":"m.s-1","parameterCategory":1,"la1":31.0,"la2":29.5877,"lo1":-88.7671,"lo2":-86.6584,"dy":0.0162,"dx":0.0185,"nx":115,"ny":88,"refTime":"2024-08-29T06:00:00:Z","depth":0,"parameterNumber":3,"parameterNumberName":"V-component_of_WINDS"},"data":[0.0,0.0,0.0,0.0,0.0,0.0,0.0,0.0,0.0,0.0,0.0,0.0,0.0,0.0,0.0,0.0,0.0,0.0,0.0,0.0,0.0,0.0,0.0,0.0,0.0,0.0,0.0,0.0,0.0,0.0,0.0,0.0,0.0,0.0,0.0,0.0,0.0,0.0,0.0,0.0,0.0,0.0,0.0,0.0,0.0,0.0,0.0,0.0,0.0,0.0,0.0,0.0,0.0,0.0,0.0,0.0,0.0,0.0,0.0,0.0,0.0,0.0,0.0,0.0,0.0,0.0,0.0,0.0,0.0,0.0,0.0,0.0,0.0,0.0,0.0,0.0,0.0,0.0,0.0,0.0,0.0,0.0,0.0,0.0,0.0,0.0,0.0,0.0,0.0,0.0,0.0,0.0,0.0,0.0,0.0,0.0,0.0,0.0,0.0,0.0,0.0,0.0,0.0,0.0,0.0,0.0,0.0,0.0,0.0,0.0,0.0,0.0,0.0,0.0,0.0,0.0,0.0,0.0,0.0,0.0,0.0,0.0,0.0,0.0,0.0,0.0,0.0,0.0,0.0,0.0,0.0,0.0,0.0,0.0,0.0,0.0,0.0,0.0,0.0,0.0,0.0,0.0,0.0,0.0,0.0,0.0,0.0,0.0,0.0,0.0,0.0,0.0,0.0,0.0,0.0,0.0,0.0,0.0,0.0,0.0,0.0,0.0,0.0,0.0,0.0,0.0,0.0,0.0,0.0,0.0,0.0,0.0,0.0,0.0,0.0,0.0,0.0,0.0,0.0,0.0,0.0,0.0,0.0,0.0,0.0,0.0,0.0,0.0,0.0,0.0,0.0,0.0,0.0,0.0,0.0,0.0,0.0,0.0,0.0,0.0,0.0,0.0,0.0,0.0,0.0,0.0,0.0,0.0,0.0,0.0,0.0,0.0,0.0,0.0,0.0,0.0,0.0,0.0,0.0,0.0,0.0,0.0,0.0,0.0,0.0,0.0,0.0,0.0,0.0,0.0,0.0,0.0,0.0,0.0,0.0,0.0,0.0,0.0,0.0,0.0,0.0,0.0,0.0,0.0,0.0,0.0,0.0,0.0,0.0,0.0,0.0,0.0,0.0,0.0,0.0,0.0,0.0,0.0,0.0,0.0,0.0,0.0,0.0,0.0,0.0,0.0,0.0,0.0,0.0,0.0,0.0,0.0,0.0,0.0,0.0,0.0,0.0,0.0,0.0,0.0,0.0,0.0,0.0,0.0,0.0,0.0,0.0,0.0,0.0,0.0,0.0,0.0,0.0,0.0,0.0,0.0,0.0,0.0,0.0,0.0,0.0,0.0,0.0,0.0,0.0,0.0,0.0,0.0,0.0,0.0,0.0,0.0,0.0,0.0,0.0,0.0,0.0,0.0,0.0,0.0,0.0,0.0,0.0,0.0,0.0,0.0,0.0,0.0,0.0,0.0,0.0,0.0,0.0,0.0,0.0,0.0,0.0,0.0,0.0,0.0,0.0,0.0,0.0,0.0,0.0,0.0,0.0,0.0,0.0,0.0,0.0,0.0,0.0,0.0,0.0,0.0,0.0,0.0,0.0,0.0,0.0,0.0,0.0,0.0,0.0,0.0,0.0,0.0,0.0,0.0,0.0,0.0,0.0,0.0,0.0,0.0,0.0,0.0,0.0,0.0,0.0,0.0,0.0,0.0,0.0,0.0,0.0,0.0,0.0,0.0,0.0,0.0,0.0,0.0,0.0,0.0,0.0,0.0,0.0,0.0,0.0,0.0,0.0,0.0,0.0,0.0,0.0,0.0,0.0,0.0,0.0,0.0,0.0,0.0,0.0,0.0,0.0,0.0,0.0,0.0,0.0,0.0,0.0,0.0,0.0,0.0,0.0,0.0,0.0,0.0,0.0,0.0,0.0,0.0,0.0,0.0,0.0,0.0,0.0,0.0,0.0,0.0,0.0,0.0,0.0,0.0,0.0,0.0,0.0,0.0,0.0,0.0,0.0,0.0,0.0,0.0,0.0,0.0,0.0,0.0,0.0,0.0,0.0,0.0,0.0,0.0,0.0,0.0,0.0,0.0,0.0,0.0,0.0,0.0,0.0,0.0,0.0,0.0,0.0,0.0,0.0,0.0,0.0,0.0,0.0,0.0,0.0,0.0,0.0,0.0,0.0,0.0,0.0,0.0,0.0,0.0,0.0,0.0,0.0,0.0,0.0,0.0,0.0,0.0,0.0,0.0,0.0,0.0,0.0,0.0,0.0,0.0,0.0,0.0,0.0,0.0,0.0,0.0,0.0,0.0,0.0,0.0,0.0,0.0,0.0,0.0,0.0,0.0,0.0,0.0,0.0,0.0,0.0,0.0,0.0,0.0,0.0,0.0,0.0,0.0,0.0,0.0,0.0,0.0,0.0,0.0,0.0,0.0,0.0,0.0,0.0,0.0,0.0,0.0,0.0,0.0,0.0,0.0,0.0,0.0,0.0,0.0,0.0,0.0,0.0,0.0,0.0,0.0,0.0,0.0,0.0,0.0,0.0,0.0,0.0,0.0,0.0,0.0,0.0,0.0,0.0,0.0,0.0,0.0,0.0,0.0,0.0,0.0,0.0,0.0,0.0,0.0,0.0,0.0,0.0,0.0,0.0,0.0,0.0,0.0,0.0,0.0,0.0,0.0,0.0,0.0,0.0,0.0,0.0,0.0,0.0,0.0,0.0,0.0,0.0,0.0,0.0,0.0,0.0,0.0,0.0,0.0,0.0,0.0,0.0,0.0,0.0,0.0,0.0,0.0,0.0,0.0,0.0,0.0,0.0,0.0,0.0,0.0,0.0,0.0,0.0,0.0,0.0,0.0,0.0,0.0,0.0,0.0,0.0,0.0,0.0,0.0,0.0,0.0,0.0,0.0,0.0,0.0,0.0,0.0,0.0,0.0,0.0,0.0,0.0,0.0,0.0,0.0,0.0,0.0,0.0,0.0,0.0,0.0,0.0,0.0,0.0,0.0,0.0,0.0,0.0,0.0,0.0,0.0,0.0,0.0,0.0,0.0,0.0,0.0,0.0,0.0,0.0,0.0,0.0,0.0,0.0,0.0,0.0,0.0,0.0,0.0,0.0,0.0,0.0,0.0,0.0,0.0,0.0,0.0,0.0,0.0,0.0,0.0,0.0,0.0,0.0,0.0,0.0,0.0,0.0,0.0,0.0,0.0,0.0,0.0,0.0,0.0,0.0,0.0,0.0,0.0,0.0,0.0,0.0,0.0,0.0,0.0,0.0,0.0,0.0,0.0,0.0,0.0,0.0,0.0,0.0,0.0,0.0,0.0,0.0,0.0,0.0,0.0,0.0,0.0,0.0,0.0,0.0,0.0,0.0,0.0,0.0,0.0,0.0,0.0,0.0,0.0,0.0,0.0,0.0,0.0,0.0,0.0,0.0,0.0,0.0,0.0,0.0,0.0,0.0,0.0,0.0,0.0,0.0,0.0,0.0,0.0,0.0,0.0,0.0,0.0,0.0,0.0,0.0,0.0,0.0,0.0,0.0,0.0,0.0,0.0,0.0,0.0,0.0,0.0,0.0,0.0,0.0,0.0,0.0,0.0,0.0,0.0,0.0,0.0,0.0,0.0,0.0,0.0,0.0,0.0,0.0,0.0,0.0,0.0,0.0,0.0,0.0,0.0,0.0,0.0,0.0,0.0,0.0,0.0,0.0,0.0,0.0,0.0,0.0,0.0,0.0,0.0,0.0,0.0,0.0,0.0,0.0,0.0,0.0,0.0,0.0,0.0,0.0,0.0,0.0,0.0,0.0,0.0,0.0,0.0,0.0,0.0,0.0,0.0,0.0,0.0,0.0,0.0,0.0,0.0,0.0,0.0,0.0,0.0,0.0,0.0,0.0,0.0,0.0,0.0,0.0,0.0,0.0,0.0,0.0,0.0,0.0,0.0,0.0,0.0,0.0,0.0,0.0,0.0,0.0,0.0,0.0,0.0,0.0,0.0,0.0,0.0,0.0,0.0,0.0,0.0,0.0,0.0,0.0,0.0,0.0,0.0,0.0,0.0,0.0,0.0,0.0,0.0,0.0,0.0,0.0,0.0,0.0,0.0,0.0,0.0,0.0,0.0,0.0,0.0,0.0,0.0,0.0,0.0,0.0,0.0,0.0,0.0,0.0,0.0,0.0,0.0,0.0,0.0,0.0,0.0,0.0,0.0,0.0,0.0,0.0,0.0,0.0,0.0,0.0,0.0,0.0,0.0,0.0,0.0,0.0,0.0,0.0,0.0,1.2505,0.0,0.0,0.0,0.0,0.0,0.0,0.0,0.0,0.0,0.0,0.0,0.0,0.0,0.0,0.0,0.0,0.0,0.0,0.0,0.0,0.0,0.0,0.0,0.0,0.0,0.0,0.0,0.0,0.0,0.0,0.0,0.0,0.0,0.0,0.0,0.0,0.0,0.0,0.0,0.0,0.0,0.0,0.0,0.0,0.0,0.0,0.0,0.0,0.0,0.0,0.0,0.0,0.0,0.0,0.0,0.0,0.0,0.0,0.0,0.0,0.0,0.0,0.0,0.0,0.0,0.0,0.0,0.0,0.0,0.0,0.0,0.0,0.0,0.0,0.0,0.0,0.0,0.0,0.0,0.0,0.0,0.0,0.0,0.0,0.0,0.0,0.0,0.0,0.0,0.0,0.0,0.0,0.0,0.0,0.0,0.0,0.0,0.0,0.0,0.0,0.0,0.0,0.0,0.0,0.0,0.0,0.0,0.0,0.0,0.0,1.5056,1.517,1.3566,1.269,1.2687,0.0,0.0,0.0,0.0,0.0,0.0,0.0,0.0,0.0,0.0,0.0,0.0,0.0,0.0,0.0,0.0,0.0,0.0,0.0,0.0,0.0,0.0,0.0,0.0,0.0,0.0,0.0,0.0,0.0,0.0,0.0,0.0,0.0,0.0,0.0,0.0,0.0,0.0,0.0,0.0,0.0,0.0,0.0,0.0,0.0,0.0,0.0,0.0,0.0,0.0,0.0,0.0,0.0,0.0,0.0,0.0,0.0,0.0,0.0,0.0,0.0,0.0,0.0,0.0,0.0,0.0,0.0,0.0,0.0,0.0,0.0,0.0,0.0,0.0,0.0,0.0,0.0,0.0,0.0,0.0,0.0,0.0,0.0,0.0,0.0,0.0,0.0,0.0,0.0,0.0,0.0,0.0,0.0,0.0,0.0,0.0,0.0,0.0,0.0,0.0,0.0,0.0,0.0,0.0,0.0,0.0,0.0,0.0,0.0,0.0,0.0,0.0,1.4256,1.3503,1.3334,0.0,0.0,0.0,0.0,0.0,0.0,0.0,0.0,0.0,0.0,0.0,0.0,0.0,0.0,0.0,0.0,0.0,0.0,0.0,0.0,0.0,0.0,0.0,0.0,0.0,0.0,0.0,0.0,0.0,0.0,0.0,0.0,0.0,0.0,0.0,0.0,0.0,0.0,0.0,0.0,0.0,0.0,0.0,0.0,0.0,0.0,0.0,0.0,0.0,0.0,0.0,0.0,0.0,0.0,0.0,0.0,0.0,0.0,0.0,0.0,0.0,0.0,0.0,0.0,0.0,0.0,0.0,0.0,0.0,0.0,0.0,0.0,0.0,0.0,0.0,0.0,0.0,0.0,0.0,0.0,0.0,0.0,0.0,0.0,0.0,0.0,0.0,0.0,0.0,0.0,0.0,0.0,0.0,0.0,0.0,0.0,0.0,0.0,0.0,0.0,0.0,0.0,0.0,0.0,0.0,0.0,0.0,0.0,0.0,0.0,1.5571,1.6349,1.6281,0.0,1.5225,0.0,0.0,0.0,0.0,0.0,0.0,0.0,0.0,0.0,0.0,0.0,0.0,0.0,0.0,0.0,0.0,0.0,0.0,0.0,0.0,0.0,0.0,0.0,0.0,0.0,0.0,0.0,0.0,0.0,0.0,0.0,0.0,0.0,0.0,0.0,0.0,0.0,0.0,0.0,0.0,0.0,0.0,0.0,0.0,0.0,0.0,0.0,0.0,0.0,0.0,0.0,0.0,0.0,0.0,0.0,0.0,0.0,0.0,0.0,0.0,0.0,0.0,0.0,0.0,0.0,0.0,0.0,0.0,0.0,0.0,0.0,0.0,0.0,0.0,0.0,0.0,0.0,0.0,0.0,0.0,0.0,0.0,0.0,0.0,0.0,0.0,0.0,0.0,0.0,0.0,0.0,0.0,0.0,0.0,0.0,0.0,0.0,0.0,0.0,0.0,0.0,0.0,0.0,0.0,0.0,0.0,0.0,0.0,0.0,0.0,1.6154,1.6547,1.6119,1.5739,0.0,0.0,0.0,0.0,0.0,0.0,0.0,0.0,0.0,0.0,0.0,0.0,0.0,0.0,0.0,0.0,0.0,0.0,0.0,0.0,0.0,0.0,0.0,0.0,0.0,0.0,0.0,0.0,0.0,0.0,0.0,0.0,0.0,0.0,0.0,0.0,0.0,0.0,0.0,0.0,0.0,0.0,0.0,0.0,0.0,0.0,0.0,0.0,0.0,0.0,0.0,0.0,0.0,0.0,0.0,0.0,0.0,0.0,0.0,0.0,0.0,0.0,0.0,0.0,0.0,0.0,0.0,0.0,0.0,0.0,0.0,0.0,0.0,0.0,0.0,0.0,0.0,0.0,0.0,0.0,0.0,0.0,0.0,0.0,0.0,0.0,0.0,0.0,0.0,0.0,0.0,0.0,0.0,0.0,0.0,0.0,0.0,0.0,0.0,0.0,0.0,0.0,0.0,0.0,0.0,0.0,0.0,0.0,0.0,0.0,1.6107,0.0,1.7258,1.6536,1.5776,1.5059,0.0,0.0,0.0,0.0,0.0,0.0,0.0,0.0,0.0,0.0,0.0,0.0,0.0,0.0,0.0,0.0,0.0,0.0,0.0,0.0,0.0,0.0,0.0,0.0,0.0,0.0,0.0,0.0,0.0,0.0,0.0,0.0,0.0,0.0,0.0,0.0,0.0,0.0,0.0,0.0,0.0,0.0,0.0,0.0,0.0,0.0,0.0,0.0,0.0,0.0,0.0,0.0,0.0,0.0,0.0,0.0,0.0,0.0,0.0,0.0,0.0,0.0,0.0,0.0,0.0,0.0,0.0,0.0,0.0,0.0,0.0,0.0,0.0,0.0,0.0,0.0,0.0,0.0,0.0,0.0,0.0,0.0,0.0,0.0,0.0,0.0,0.0,0.0,0.0,0.0,0.0,0.0,0.0,0.0,0.0,0.0,0.0,0.0,0.0,0.0,0.0,0.0,0.0,0.0,0.0,0.0,0.0,0.0,0.0,1.7315,1.7382,1.9027,1.8293,1.6716,0.0,0.0,0.0,0.0,0.0,0.0,0.0,0.0,0.0,0.0,0.0,0.0,0.0,0.0,0.0,0.0,0.0,0.0,0.0,0.0,0.0,0.0,0.0,0.0,0.0,0.0,0.0,0.0,0.0,0.0,0.0,0.0,0.0,0.0,0.0,0.0,0.0,0.0,0.0,0.0,0.0,0.0,0.0,0.0,0.0,0.0,0.0,0.0,0.0,0.0,0.0,0.0,0.0,0.0,0.0,0.0,0.0,0.0,0.0,0.0,0.0,0.0,0.0,0.0,0.0,0.0,0.0,0.0,0.0,0.0,0.0,0.0,0.0,0.0,0.0,0.0,0.0,0.0,0.0,0.0,0.0,0.0,0.0,0.0,0.0,0.0,0.0,0.0,0.0,0.0,0.0,0.0,0.0,0.0,0.0,0.0,0.0,0.0,0.0,0.0,0.0,0.0,0.0,0.0,0.0,0.0,0.0,0.0,0.0,1.4216,1.4716,1.7149,2.1347,1.771,1.584,0.0,0.0,0.0,0.0,0.0,0.0,0.0,0.0,0.0,0.0,0.0,0.0,0.0,0.0,0.0,0.0,0.0,0.0,0.0,0.0,0.0,0.0,0.0,0.0,0.0,0.0,0.0,0.0,0.0,0.0,0.0,0.0,0.0,0.0,0.0,0.0,0.0,0.0,0.0,0.0,0.0,0.0,0.0,0.0,0.0,0.0,0.0,0.0,0.0,0.0,0.0,0.0,0.0,0.0,0.0,0.0,0.0,0.0,0.0,0.0,0.0,0.0,0.0,0.0,0.0,0.0,0.0,0.0,0.0,0.0,0.0,0.0,0.0,0.0,0.0,0.0,0.0,0.0,0.0,0.0,0.0,0.0,0.0,0.0,0.0,0.0,0.0,0.0,0.0,0.0,0.0,0.0,0.0,0.0,0.0,0.0,0.0,0.0,0.0,0.0,0.0,0.0,0.0,0.0,0.0,0.0,0.0,0.0,0.0,1.3632,0.0,1.8335,0.0,1.7674,1.5547,0.0,0.0,0.0,0.0,0.0,0.0,0.0,0.0,0.0,0.0,0.0,0.0,0.0,0.0,0.0,0.0,0.0,0.0,0.0,0.0,0.0,0.0,0.0,0.0,0.0,0.0,0.0,0.0,0.0,0.0,0.0,0.0,0.0,0.0,0.0,0.0,0.0,0.0,0.0,0.0,0.0,0.0,0.0,0.0,0.0,0.0,0.0,0.0,0.0,0.0,0.0,0.0,0.0,0.0,0.0,0.0,0.0,0.0,0.0,0.0,0.0,0.0,0.0,0.0,0.0,0.0,0.0,0.0,0.0,0.0,0.0,0.0,0.0,0.0,0.0,0.0,0.0,0.0,0.0,0.0,0.0,0.0,0.0,0.0,0.0,0.0,0.0,0.0,0.0,0.0,0.0,0.0,0.0,0.0,0.0,0.0,0.0,0.0,0.0,0.0,0.0,0.0,0.0,0.0,0.0,0.0,0.0,0.0,1.459,1.7832,2.0293,2.0859,1.9453,1.8398,1.5977,0.0,0.0,0.0,0.0,0.0,0.0,0.0,0.0,0.0,0.0,0.0,0.0,0.0,0.0,0.0,0.0,0.0,0.0,0.0,0.0,0.0,0.0,0.0,0.0,0.0,0.0,0.0,0.0,0.0,0.0,0.0,0.0,0.0,0.0,0.0,0.0,0.0,0.0,0.0,0.0,0.0,0.0,0.0,0.0,0.0,0.0,0.0,0.0,0.0,0.0,0.0,0.0,0.0,0.0,0.0,0.0,0.0,0.0,0.0,0.0,0.0,0.0,0.0,0.0,0.0,0.0,0.0,0.0,0.0,0.0,0.0,0.0,0.0,0.0,0.0,0.0,0.0,0.0,0.0,0.0,0.0,0.0,0.0,0.0,0.0,0.0,0.0,0.0,0.0,0.0,0.0,0.0,0.0,0.0,0.0,0.0,0.0,0.0,0.0,0.0,0.0,0.0,0.0,0.0,0.0,0.0,0.0,0.0,0.0,1.7129,1.8496,2.0352,2.2539,1.8516,1.6426,0.0,0.0,0.0,0.0,0.0,0.0,0.0,0.0,0.0,0.0,0.0,0.0,0.0,0.0,0.0,0.0,0.0,0.0,0.0,0.0,0.0,0.0,0.0,0.0,0.0,0.0,0.0,0.0,0.0,0.0,0.0,0.0,0.0,0.0,0.0,0.0,0.0,0.0,0.0,0.0,0.0,0.0,0.0,0.0,0.0,0.0,0.0,0.0,0.0,0.0,0.0,0.0,0.0,0.0,0.0,0.0,0.0,0.0,0.0,0.0,0.0,0.0,0.0,0.0,0.0,0.0,0.0,0.0,0.0,0.0,0.0,0.0,0.0,0.0,0.0,0.0,0.0,0.0,0.0,0.0,0.0,0.0,0.0,0.0,0.0,0.0,0.0,0.0,0.0,0.0,0.0,0.0,0.0,0.0,0.0,0.0,0.0,0.0,0.0,0.0,0.0,0.0,0.0,0.0,0.0,0.0,0.0,0.0,0.0,1.9548,2.0695,2.2283,2.4336,2.0117,1.7969,1.8223,0.0,0.0,0.0,0.0,0.0,0.0,0.0,0.0,0.0,0.0,0.0,0.0,0.0,0.0,0.0,0.0,0.0,0.0,0.0,0.0,0.0,0.0,0.0,0.0,0.0,0.0,0.0,0.0,0.0,0.0,0.0,0.0,0.0,0.0,0.0,0.0,0.0,0.0,0.0,0.0,0.0,0.0,0.0,0.0,0.0,0.0,0.0,0.0,0.0,0.0,0.0,0.0,0.0,0.0,0.0,0.0,0.0,0.0,0.0,0.0,0.0,0.0,0.0,0.0,0.0,0.0,0.0,0.0,0.0,0.0,0.0,0.0,0.0,0.0,0.0,0.0,0.0,0.0,0.0,0.0,0.0,0.0,0.0,0.0,0.0,0.0,0.0,0.0,0.0,0.0,0.0,0.0,0.0,0.0,0.0,0.0,0.0,0.0,0.0,0.0,0.0,0.0,0.0,0.0,0.0,0.0,0.0,0.0,2.4383,2.6176,2.6254,2.4687,2.2871,2.0371,0.0,0.0,0.0,0.0,0.0,0.0,0.0,0.0,0.0,0.0,0.0,0.0,0.0,0.0,0.0,0.0,0.0,0.0,0.0,0.0,0.0,0.0,0.0,0.0,0.0,0.0,0.0,0.0,0.0,0.0,0.0,0.0,0.0,0.0,0.0,0.0,0.0,0.0,0.0,0.0,0.0,0.0,0.0,0.0,0.0,0.0,0.0,0.0,0.0,0.0,0.0,0.0,0.0,0.0,0.0,0.0,0.0,0.0,0.0,0.0,0.0,0.0,0.0,0.0,0.0,0.0,0.0,0.0,0.0,0.0,0.0,0.0,0.0,0.0,0.0,0.0,0.0,0.0,0.0,0.0,0.0,0.0,0.0,0.0,0.0,0.0,0.0,0.0,0.0,0.0,0.0,0.0,0.0,0.0,0.0,0.0,0.0,0.0,0.0,0.0,0.0,0.0,0.0,0.0,0.0,0.0,0.0,0.0,0.0,2.6998,2.8706,2.8796,2.7207,2.4278,2.1729,0.0,0.0,0.0,0.0,0.0,0.0,0.0,0.0,0.0,0.0,0.0,0.0,0.0,0.0,0.0,0.0,0.0,0.0,0.0,0.0,0.0,0.0,0.0,0.0,0.0,0.0,0.0,0.0,0.0,0.0,0.0,0.0,0.0,0.0,0.0,0.0,0.0,0.0,0.0,0.0,0.0,0.0,0.0,0.0,0.0,0.0,0.0,0.0,0.0,0.0,0.0,0.0,0.0,0.0,0.0,0.0,0.0,0.0,0.0,0.0,0.0,0.0,0.0,0.0,0.0,0.0,0.0,0.0,0.0,0.0,0.0,0.0,0.0,0.0,0.0,0.0,0.0,0.0,0.0,0.0,0.0,0.0,0.0,0.0,0.0,0.0,0.0,0.0,0.0,0.0,0.0,0.0,0.0,0.0,0.0,0.0,0.0,0.0,0.0,0.0,0.0,0.0,0.0,0.0,0.0,0.0,0.0,0.0,2.5773,2.8489,3.0487,3.077,2.9224,2.693,2.4407,0.0,0.0,0.0,0.0,0.0,0.0,0.0,0.0,0.0,0.0,0.0,0.0,0.0,0.0,0.0,0.0,0.0,0.0,0.0,0.0,0.0,0.0,0.0,0.0,0.0,0.0,0.0,0.0,0.0,0.0,0.0,0.0,0.0,0.0,0.0,0.0,0.0,0.0,0.0,0.0,0.0,0.0,0.0,0.0,0.0,0.0,0.0,0.0,0.0,0.0,0.0,0.0,0.0,0.0,0.0,0.0,0.0,0.0,0.0,0.0,0.0,0.0,0.0,0.0,0.0,0.0,0.0,0.0,0.0,0.0,0.0,0.0,0.0,0.0,0.0,0.0,0.0,0.0,0.0,0.0,0.0,0.0,0.0,0.0,0.0,0.0,0.0,0.0,0.0,0.0,0.0,0.0,0.0,0.0,0.0,0.0,0.0,0.0,0.0,0.0,0.0,0.0,0.0,0.0,0.0,0.0,0.0,0.0,2.7542,2.931,3.175,3.2349,3.0936,2.9835,2.7273,0.0,0.0,0.0,0.0,0.0,0.0,0.0,0.0,0.0,0.0,0.0,0.0,0.0,0.0,0.0,0.0,0.0,0.0,0.0,0.0,0.0,0.0,0.0,0.0,0.0,0.0,0.0,0.0,0.0,0.0,0.0,0.0,0.0,0.0,0.0,0.0,0.0,0.0,0.0,0.0,0.0,0.0,0.0,0.0,0.0,0.0,0.0,0.0,0.0,0.0,0.0,0.0,0.0,0.0,0.0,0.0,0.0,0.0,0.0,0.0,0.0,0.0,0.0,0.0,0.0,0.0,0.0,0.0,0.0,0.0,0.0,0.0,0.0,0.0,0.0,0.0,0.0,0.0,0.0,0.0,0.0,0.0,0.0,0.0,0.0,0.0,0.0,0.0,0.0,0.0,0.0,0.0,0.0,0.0,0.0,0.0,0.0,0.0,0.0,0.0,0.0,0.0,0.0,0.0,0.0,0.0,0.0,0.0,2.8498,3.0784,3.2845,3.3757,3.3397,3.0037,2.6589,0.0,0.0,0.0,0.0,0.0,0.0,0.0,0.0,0.0,0.0,0.0,0.0,0.0,0.0,0.0,0.0,0.0,0.0,0.0,0.0,0.0,0.0,0.0,0.0,0.0,0.0,0.0,0.0,0.0,0.0,0.0,0.0,0.0,0.0,0.0,0.0,0.0,0.0,0.0,0.0,0.0,0.0,0.0,0.0,0.0,0.0,0.0,0.0,1.6893,0.0,0.0,0.0,0.0,0.0,0.0,0.0,0.0,0.0,0.0,0.0,0.0,0.0,0.0,0.0,0.0,0.0,0.0,0.0,0.0,0.0,0.0,0.0,0.0,0.0,0.0,0.0,0.0,0.0,0.0,0.0,0.0,0.0,0.0,0.0,0.0,0.0,0.0,0.0,0.0,0.0,0.0,0.0,0.0,0.0,0.0,0.0,0.0,0.0,0.0,0.0,0.0,0.0,0.0,0.0,0.0,0.0,0.0,0.0,2.9639,3.1836,3.367,3.4494,3.4122,3.127,2.815,0.0,0.0,0.0,0.0,0.0,0.0,0.0,0.0,0.0,0.0,0.0,0.0,0.0,0.0,0.0,0.0,0.0,0.0,0.0,0.0,0.0,0.0,0.0,0.0,0.0,0.0,0.0,0.0,0.0,0.0,0.0,0.0,0.0,0.0,0.0,0.0,0.0,0.0,0.0,0.0,0.0,0.0,0.0,0.0,0.0,0.0,0.0,0.0,0.0,0.0,0.0,0.0,0.0,0.0,0.0,0.0,0.0,0.0,0.0,0.0,0.0,0.0,0.0,0.0,0.0,0.0,0.0,0.0,0.0,0.0,0.0,0.0,0.0,0.0,0.0,0.0,0.0,0.0,0.0,0.0,0.0,0.0,0.0,0.0,0.0,0.0,0.0,0.0,0.0,0.0,0.0,0.0,0.0,0.0,0.0,0.0,0.0,0.0,0.0,0.0,0.0,0.0,0.0,0.0,0.0,0.0,0.0,2.7585,3.0492,3.2591,3.4241,3.4878,3.4404,3.2781,3.0341,2.7087,0.0,0.0,0.0,0.0,0.0,0.0,0.0,0.0,0.0,0.0,0.0,0.0,0.0,0.0,0.0,0.0,0.0,0.0,0.0,0.0,0.0,0.0,0.0,0.0,0.0,0.0,0.0,0.0,0.0,0.0,0.0,0.0,0.0,0.0,0.0,0.0,0.0,0.0,1.7011,1.9894,0.0,0.0,0.0,0.0,0.0,0.0,0.0,0.0,1.872,0.0,0.0,0.0,0.0,0.0,0.0,0.0,0.0,0.0,0.0,0.0,0.0,0.0,0.0,0.0,0.0,0.0,0.0,0.0,0.0,0.0,0.0,0.0,0.0,0.0,0.0,0.0,0.0,0.0,0.0,0.0,0.0,0.0,0.0,0.0,0.0,0.0,0.0,0.0,0.0,0.0,0.0,0.0,0.0,0.0,0.0,0.0,0.0,0.0,0.0,0.0,0.0,0.0,0.0,0.0,0.0,2.5998,2.7652,3.0002,3.3195,3.4466,3.5146,3.5224,3.366,3.1192,2.7767,0.0,0.0,0.0,0.0,0.0,0.0,0.0,0.0,0.0,0.0,0.0,0.0,0.0,0.0,0.0,0.0,0.0,0.0,0.0,0.0,0.0,0.0,0.0,0.0,0.0,0.0,0.0,0.0,0.0,0.0,0.0,0.0,0.0,0.0,0.0,0.0,0.0,0.0,0.0,2.18,2.2829,0.0,0.0,0.0,0.0,0.0,0.0,0.0,0.0,1.8821,0.0,0.0,0.0,0.0,0.0,0.0,0.0,0.0,0.0,0.0,0.0,0.0,0.0,0.0,0.0,0.0,0.0,0.0,0.0,0.0,0.0,0.0,0.0,0.0,0.0,0.0,0.0,0.0,0.0,0.0,0.0,0.0,0.0,0.0,0.0,0.0,0.0,0.0,0.0,0.0,0.0,0.0,0.0,0.0,0.0,0.0,0.0,0.0,0.0,0.0,0.0,0.0,0.0,0.0,0.0,2.6392,2.8355,3.073,3.3695,3.4527,3.4807,3.4588,3.2698,3.0274,0.0,0.0,0.0,0.0,0.0,0.0,0.0,0.0,0.0,0.0,0.0,0.0,0.0,0.0,0.0,0.0,0.0,0.0,0.0,0.0,0.0,0.0,0.0,0.0,0.0,0.0,0.0,0.0,0.0,0.0,0.0,0.0,0.0,0.0,0.0,0.0,0.0,0.0,0.0,0.0,2.3357,2.4085,2.3906,0.0,0.0,0.0,0.0,0.0,0.0,2.0181,1.9267,0.0,0.0,0.0,0.0,0.0,0.0,0.0,0.0,0.0,0.0,0.0,0.0,0.0,0.0,0.0,0.0,0.0,0.0,0.0,0.0,0.0,0.0,0.0,0.0,0.0,0.0,0.0,0.0,0.0,0.0,0.0,0.0,0.0,0.0,0.0,0.0,0.0,0.0,0.0,0.0,0.0,0.0,0.0,0.0,0.0,0.0,0.0,0.0,0.0,0.0,0.0,0.0,0.0,0.0,0.0,2.6502,2.8822,3.1352,3.4051,3.4529,3.4415,3.3781,3.1769,2.9415,0.0,0.0,0.0,0.0,0.0,0.0,0.0,0.0,0.0,0.0,0.0,0.0,0.0,0.0,0.0,0.0,0.0,0.0,0.0,0.0,0.0,0.0,0.0,0.0,0.0,0.0,0.0,0.0,0.0,0.0,0.0,0.0,0.0,0.0,0.0,0.0,0.0,0.0,0.0,0.0,0.0,2.5356,2.4536,2.4832,0.0,0.0,0.0,0.0,2.3749,2.2069,0.0,0.0,0.0,0.0,0.0,0.0,0.0,0.0,0.0,0.0,0.0,0.0,0.0,0.0,0.0,0.0,0.0,0.0,0.0,0.0,0.0,0.0,0.0,0.0,0.0,0.0,0.0,0.0,0.0,0.0,0.0,0.0,0.0,0.0,0.0,0.0,0.0,0.0,0.0,0.0,0.0,0.0,0.0,0.0,0.0,0.0,0.0,0.0,0.0,0.0,0.0,0.0,0.0,0.0,0.0,0.0,2.6447,2.8271,3.0768,3.4013,3.4529,3.4415,3.38,3.2331,3.0012,0.0,0.0,0.0,0.0,0.0,0.0,0.0,0.0,0.0,0.0,0.0,0.0,0.0,0.0,0.0,0.0,0.0,0.0,0.0,0.0,0.0,0.0,0.0,0.0,0.0,0.0,0.0,0.0,0.0,0.0,0.0,0.0,0.0,0.0,0.0,0.0,0.0,0.0,0.0,0.0,0.0,2.6447,2.6159,2.5634,2.5375,0.0,0.0,2.4848,2.5655,2.5513,0.0,0.0,0.0,0.0,0.0,0.0,0.0,0.0,0.0,0.0,0.0,0.0,0.0,0.0,0.0,0.0,0.0,0.0,0.0,0.0,0.0,0.0,0.0,0.0,0.0,0.0,0.0,0.0,0.0,0.0,0.0,0.0,0.0,0.0,0.0,0.0,0.0,0.0,0.0,0.0,0.0,0.0,0.0,0.0,0.0,0.0,0.0,0.0,0.0,0.0,0.0,0.0,0.0,0.0,0.0,2.2245,2.6289,2.8822,3.1344,3.3863,3.4442,3.4092,3.2871,3.1139,2.8662,0.0,0.0,0.0,0.0,0.0,0.0,0.0,0.0,0.0,0.0,0.0,0.0,0.0,0.0,0.0,0.0,0.0,0.0,0.0,0.0,0.0,0.0,0.0,0.0,0.0,0.0,0.0,0.0,0.0,0.0,0.0,0.0,0.0,0.0,0.0,0.0,0.0,0.0,0.0,0.0,0.0,0.0,2.7339,2.7819,0.0,0.0,0.0,2.7484,2.8299,0.0,0.0,0.0,0.0,0.0,0.0,0.0,0.0,0.0,0.0,0.0,0.0,0.0,0.0,0.0,0.0,0.0,0.0,0.0,0.0,0.0,0.0,0.0,0.0,0.0,0.0,0.0,0.0,0.0,0.0,0.0,0.0,0.0,0.0,0.0,0.0,0.0,0.0,0.0,0.0,0.0,0.0,0.0,0.0,0.0,0.0,0.0,0.0,0.0,0.0,0.0,0.0,0.0,0.0,0.0,0.0,0.0,2.6154,2.9298,3.1842,3.3733,3.4394,3.3892,3.2128,3.0357,0.0,0.0,0.0,0.0,0.0,0.0,0.0,0.0,0.0,0.0,0.0,0.0,0.0,0.0,0.0,0.0,0.0,0.0,0.0,0.0,0.0,0.0,0.0,0.0,0.0,0.0,0.0,1.103,0.0,0.0,0.0,0.0,0.0,0.0,0.0,0.0,0.0,0.0,0.0,0.0,0.0,0.0,2.9028,2.8891,3.0003,3.0607,0.0,0.0,2.9899,3.0486,2.8889,2.7333,0.0,0.0,0.0,0.0,0.0,0.0,0.0,0.0,0.0,0.0,0.0,0.0,0.0,0.0,0.0,0.0,0.0,0.0,0.0,0.0,0.0,0.0,0.0,0.0,0.0,0.0,0.0,0.0,0.0,0.0,0.0,0.0,0.0,0.0,0.0,0.0,0.0,0.0,0.0,0.0,0.0,0.0,0.0,0.0,0.0,0.0,0.0,0.0,0.0,0.0,0.0,0.0,0.0,0.0,0.0,2.6161,2.9298,3.1842,3.3715,3.4375,3.3863,3.2166,3.0949,2.8736,0.0,0.0,0.0,0.0,0.0,0.0,0.0,0.0,0.0,0.0,0.0,0.0,0.0,0.0,0.0,0.0,0.0,0.0,0.0,0.0,0.0,0.0,0.0,0.0,0.0,0.0,0.0,0.0,0.0,0.0,0.0,0.0,0.0,0.0,0.0,0.0,0.0,0.0,0.0,0.0,0.0,2.964,3.1303,3.1689,3.2016,0.0,3.2096,3.1616,3.1607,3.1442,3.0269,2.7117,0.0,0.0,0.0,0.0,0.0,0.0,0.0,0.0,0.0,0.0,0.0,0.0,0.0,0.0,0.0,0.0,0.0,0.0,0.0,0.0,0.0,0.0,0.0,0.0,0.0,0.0,0.0,0.0,0.0,0.0,0.0,0.0,0.0,0.0,0.0,0.0,0.0,0.0,0.0,0.0,0.0,0.0,0.0,0.0,0.0,0.0,0.0,0.0,0.0,0.0,0.0,0.0,0.0,2.2073,2.5569,2.8841,3.1462,3.336,3.4056,3.3923,3.2929,3.164,2.9436,0.0,0.0,0.0,0.0,0.0,0.0,0.0,0.0,0.0,0.0,0.0,0.0,0.0,0.0,0.0,0.0,0.0,0.0,0.0,0.0,0.0,0.0,0.0,0.0,0.0,0.0,0.0,0.0,1.5631,1.6452,1.6455,0.0,0.0,0.0,0.0,0.0,0.0,0.0,0.0,0.0,0.0,3.1347,3.2545,3.3384,0.0,0.0,3.3904,3.3775,3.3642,3.2111,3.0452,2.8875,2.6869,0.0,0.0,0.0,0.0,0.0,0.0,0.0,0.0,0.0,0.0,0.0,0.0,0.0,0.0,0.0,0.0,0.0,0.0,0.0,0.0,0.0,0.0,0.0,0.0,0.0,0.0,0.0,0.0,0.0,0.0,0.0,0.0,0.0,0.0,0.0,0.0,0.0,0.0,0.0,0.0,0.0,0.0,0.0,0.0,0.0,0.0,0.0,0.0,0.0,0.0,0.0,0.0,2.2076,2.5488,2.875,3.1331,3.3181,3.3745,3.3778,3.3258,3.1909,2.9805,0.0,0.0,0.0,0.0,0.0,0.0,0.0,0.0,0.0,0.0,0.0,0.0,0.0,0.0,0.0,0.0,0.0,0.0,0.0,0.0,0.0,0.0,0.0,0.0,0.0,0.0,0.0,0.0,1.6767,1.7127,1.7067,0.0,0.0,0.0,0.0,0.0,0.0,0.0,0.0,0.0,0.0,3.2702,3.4008,3.4851,3.5347,3.5354,3.5022,3.4647,3.431,3.2427,3.058,2.9426,0.0,0.0,0.0,0.0,0.0,0.0,0.0,0.0,0.0,0.0,0.0,0.0,0.0,0.0,0.0,0.0,0.0,0.0,0.0,0.0,0.0,0.0,0.0,0.0,0.0,0.0,0.0,1.607,0.0,0.0,1.4945,0.0,0.0,0.0,0.0,0.0,0.0,0.0,0.0,0.0,0.0,0.0,0.0,0.0,0.0,0.0,0.0,0.0,0.0,0.0,0.0,0.0,0.0,2.285,2.6228,2.9171,3.1489,3.3118,3.3465,3.343,3.3006,3.1653,2.9849,2.7504,0.0,0.0,0.0,0.0,0.0,0.0,0.0,0.0,0.0,0.0,0.0,0.0,0.0,0.0,0.0,0.0,0.0,0.0,0.0,0.0,0.0,0.0,0.0,0.0,0.0,0.0,1.5992,1.6496,1.6755,0.0,0.0,0.0,0.0,0.0,0.0,0.0,0.0,0.0,0.0,3.0753,3.3397,3.584,3.6028,3.6152,3.687,3.5338,3.3826,3.3209,3.2469,3.1085,0.0,0.0,0.0,0.0,0.0,0.0,0.0,0.0,0.0,0.0,0.0,0.0,0.0,0.0,0.0,0.0,0.0,0.0,0.0,0.0,0.0,0.0,0.0,0.0,0.0,0.0,0.0,2.1263,2.0437,0.0,0.0,0.0,0.0,0.0,0.0,0.0,0.0,0.0,0.0,0.0,2.8643,2.9634,0.0,0.0,0.0,0.0,0.0,0.0,0.0,0.0,0.0,0.0,0.0,0.0,2.3055,2.648,2.8886,3.1058,3.3002,3.3245,3.3359,3.3381,3.2671,3.0685,2.7318,0.0,0.0,0.0,0.0,0.0,0.0,0.0,0.0,0.0,0.0,0.0,0.0,0.0,0.0,0.0,0.0,0.0,0.0,0.0,0.0,0.0,0.0,0.0,0.0,0.0,1.6607,0.0,0.0,0.0,0.0,0.0,0.0,0.0,0.0,0.0,0.0,0.0,2.4878,2.8061,3.0766,3.3258,3.5567,3.6362,3.6731,0.0,0.0,0.0,0.0,0.0,0.0,0.0,0.0,0.0,0.0,0.0,0.0,0.0,0.0,3.3827,2.9005,2.666,2.5688,2.64,0.0,0.0,0.0,0.0,0.0,0.0,0.0,0.0,0.0,0.0,0.0,0.0,0.0,0.0,2.4629,2.4215,2.3497,0.0,0.0,0.0,0.0,0.0,0.0,0.0,0.0,2.9672,3.1525,3.2566,3.3547,3.3264,0.0,3.0413,2.7401,0.0,0.0,0.0,0.0,0.0,0.0,0.0,0.0,2.3915,2.7139,2.9518,3.1433,3.2915,3.3088,3.3169,3.3201,3.2621,3.0913,2.7951,2.5409,2.3417,0.0,0.0,0.0,0.0,0.0,0.0,0.0,0.0,0.0,0.0,0.0,0.0,0.0,0.0,0.0,0.0,0.0,0.0,0.0,0.0,0.0,0.0,0.0,1.7967,0.0,0.0,0.0,0.0,0.0,0.0,0.0,0.0,0.0,2.0958,2.2578,2.4833,2.7904,3.0442,3.2804,3.5101,0.0,0.0,0.0,0.0,0.0,0.0,0.0,3.1144,3.0095,2.9323,2.9187,3.0167,3.3865,3.6429,3.5579,0.0,0.0,3.2206,3.0054,2.9193,3.0164,3.0561,3.0866,3.1392,3.2246,3.2772,0.0,0.0,0.0,0.0,0.0,0.0,0.0,0.0,2.7116,2.7156,0.0,2.6176,0.0,0.0,0.0,0.0,2.3785,2.6568,0.0,0.0,3.434,3.5908,3.5853,3.5963,3.5574,3.4796,3.5048,3.3621,3.0542,2.4633,0.0,0.0,0.0,0.0,0.0,0.0,2.5381,2.8253,3.0942,3.257,3.2992,3.3019,3.2824,3.2517,3.1542,3.0522,2.94,2.7904,2.6117,2.3917,2.1268,0.0,0.0,0.0,0.0,0.0,0.0,0.0,0.0,0.0,0.0,0.0,0.0,0.0,0.0,0.0,0.0,0.0,0.0,0.0,0.0,1.8967,0.0,0.0,0.0,0.0,0.0,0.0,0.0,0.0,0.0,0.0,2.1661,2.2408,2.415,2.7406,0.0,0.0,0.0,0.0,3.6489,3.8003,3.7222,3.6251,3.561,3.5013,3.3591,3.0686,0.0,0.0,3.1619,3.4586,3.64,3.4027,3.473,3.5971,3.8011,3.5985,3.4536,3.4975,3.4381,3.4144,3.4572,3.5356,3.6146,3.2488,0.0,0.0,0.0,0.0,3.0812,3.1954,3.4106,3.3701,3.2965,3.1972,3.1341,0.0,0.0,0.0,0.0,0.0,0.0,3.2371,3.3669,3.573,3.6965,3.7547,3.8135,3.8241,3.8009,3.723,3.6392,3.5368,3.1735,2.7638,2.3291,0.0,0.0,0.0,0.0,2.728,2.9566,3.1041,3.2269,3.3328,3.3131,3.2841,3.2502,3.1667,3.1218,3.1215,2.9245,2.7732,2.6776,2.3948,0.0,0.0,0.0,0.0,0.0,0.0,0.0,0.0,0.0,0.0,0.0,0.0,0.0,0.0,0.0,0.0,0.0,0.0,0.0,1.8891,1.9282,1.9723,0.0,0.0,0.0,0.0,0.0,0.0,0.0,0.0,0.0,2.3242,2.353,2.442,0.0,0.0,2.9422,3.2521,3.4033,3.553,3.7433,3.8191,0.0,3.6646,3.5803,3.4579,3.2384,3.289,3.3665,3.4029,3.6035,3.7378,3.6605,3.683,3.728,3.7692,3.6126,3.5082,3.5971,3.6128,3.618,3.6801,3.7227,3.7438,3.6305,3.4158,3.3296,3.3643,3.4675,3.429,3.5289,3.7202,3.6766,3.6302,3.5873,3.509,3.3592,3.1567,3.0213,0.0,0.0,0.0,3.4964,3.6385,3.7334,3.8209,3.8942,3.9155,3.9246,3.9212,3.8171,3.7671,3.7636,3.6004,3.2916,2.8552,0.0,0.0,2.5473,2.6889,2.8545,3.0296,3.1419,3.2324,3.3063,3.2591,3.2441,3.2669,3.1915,3.1553,3.1676,3.0128,2.8941,2.8242,2.5817,2.3442,0.0,0.0,0.0,0.0,0.0,0.0,0.0,0.0,0.0,0.0,0.0,1.3953,1.1462,0.0,0.0,0.0,1.724,1.9499,2.1364,2.2224,0.0,0.0,0.0,0.0,0.0,0.0,0.0,2.6569,2.594,2.5248,2.4735,2.4456,2.4642,2.5458,2.602,2.7505,3.0736,0.0,3.4482,3.6737,3.8529,3.93,3.8345,3.7848,3.6793,3.4468,3.4221,3.4376,3.4681,3.5932,3.6844,3.689,3.689,3.6981,3.7279,3.6465,3.614,3.7369,3.7889,3.8261,3.87,3.8768,3.8785,3.8964,3.8804,3.6775,3.6299,3.6868,3.6949,3.7361,3.7894,3.7347,3.7811,3.887,3.7591,3.6707,3.6122,3.4177,0.0,3.6145,3.6023,3.7094,3.9073,3.9073,3.9453,4.0062,3.9402,3.9089,3.9097,3.8396,3.8075,3.8075,3.7918,3.6814,3.47,3.0816,2.8808,2.864,2.8872,2.9557,3.0748,3.2013,3.2613,3.2499,3.1765,3.1871,3.2815,3.2057,3.1479,3.1188,3.0407,2.9561,2.8591,2.6905,2.5215,2.3497,0.0,0.0,0.0,0.0,0.0,0.0,0.0,0.0,0.0,0.0,0.0,0.0,0.0,0.0,0.0,2.1243,0.0,2.4726,2.6691,0.0,0.0,0.0,2.8516,2.8279,2.9122,2.9587,2.9275,0.0,0.0,2.6143,2.5337,2.4957,2.4957,2.506,2.6242,2.9198,3.1343,3.3478,3.6055,3.8384,3.9961,4.0106,4.0106,3.9084,3.6515,3.5627,3.4913,3.4302,3.489,3.5472,3.5587,3.5522,3.5718,3.643,3.7093,3.7991,3.8575,3.9432,4.0045,3.9994,3.9977,3.996,3.9569,3.9551,3.9037,3.8315,3.76,3.8167,3.852,3.8678,3.9143,3.9199,3.8954,3.8633,3.8106,3.7481,3.7522,3.7802,3.8276,3.8805,3.9309,3.9825,3.9842,3.9943,4.0079,3.9926,3.9859,3.9842,3.9673,3.9588,3.9529,3.8395,3.754,3.691,3.4351,3.2473,3.1427,3.1947,3.2198,3.2039,3.2867,3.304,3.2522,3.2296,3.2055,3.1703,3.0563,3.0074,3.0275,2.8956,2.828,2.8325,2.6619,2.5151,2.4118,2.1089,0.0,0.0,0.0,0.0,0.0,0.0,0.0,0.0,0.0,1.9143,1.4788,0.0,2.1574,0.0,2.4022,2.6334,2.7791,2.8417,0.0,0.0,3.172,3.2143,3.3668,3.3466,3.3123,3.2915,3.133,2.9815,2.87,2.714,2.6099,2.6088,2.5427,2.6006,2.9061,3.1066,3.3226,3.5981,3.8626,4.0474,4.0643,3.9712,3.8523,3.7173,3.6014,3.4928,3.4134,3.4824,3.5489,3.5489,3.5489,3.5587,3.575,3.686,3.7777,3.8121,3.9146,4.0113,4.0113,4.0113,4.0113,3.9267,3.922,3.8901,3.8275,3.7701,3.8499,3.8873,3.8897,3.9358,3.9324,3.8982,3.9337,3.9397,3.9262,3.9423,3.9634,3.9843,4.0017,4.0113,4.0113,4.0113,4.0113,4.0113,4.0113,4.0113,4.0113,4.0113,4.0113,4.0028,3.889,3.8305,3.8218,3.64,3.5027,3.4218,3.3708,3.3275,3.2961,3.3031,3.2887,3.2547,3.221,3.1674,3.0953,3.0238,2.9529,2.8879,2.7954,2.7379,2.7198,2.5939,2.4902,2.4202,2.1922,2.0163,0.0,0.0,0.0,0.0,0.0,0.0,0.0,0.0,0.0,0.0,0.0,2.4307,2.5221,2.7655,2.9822,3.1312,3.2341,3.365,3.5275,3.5396,3.5811,3.6988,3.66,3.608,3.5594,3.41,3.2326,3.0319,2.8743,2.7676,2.7267,2.7007,2.7514,2.9195,3.0716,3.2619,3.5453,3.8035,4.0131,4.108,4.0141,3.8923,3.7942,3.6712,3.5569,3.4828,3.51,3.5489,3.5489,3.5489,3.5489,3.5554,3.6415,3.7338,3.7863,3.8734,3.961,4.002,4.0113,4.0113,3.8692,3.8642,3.7952,3.7674,3.7702,3.8434,3.8739,3.8808,3.895,3.9029,3.9067,3.979,4.0385,4.0756,4.0311,4.0343,4.0756,4.0294,4.0113,4.0113,4.0113,4.0113,4.0113,4.0113,4.0113,4.0113,4.0113,4.0113,4.0087,3.9209,3.8772,3.869,3.7217,3.6477,3.64,3.4651,3.3709,3.3619,3.2901,3.2535,3.2576,3.184,3.112,3.0521,3.0227,2.9178,2.7374,2.7136,2.67,2.5866,2.5282,2.4745,2.4239,2.278,2.1789,0.0,2.0012,0.0,0.0,0.0,0.0,0.0,0.0,0.0,0.0,2.554,2.7732,2.9317,3.1607,3.3546,3.481,3.6823,3.8091,3.8186,3.8756,3.9096,3.9003,3.8984,3.8695,3.7892,3.7041,3.5241,3.2317,3.0847,2.9834,2.9199,2.9449,2.9935,3.02,3.0995,3.2506,3.4901,3.7123,3.937,4.0804,4.0585,3.9583,3.8535,3.7353,3.6322,3.5347,3.5246,3.5279,3.5246,3.5246,3.5311,3.5457,3.6117,3.6889,3.7632,3.8442,3.9193,3.9876,4.0113,4.0113,3.9234,3.9249,3.9107,3.9,3.899,3.8635,3.854,3.8699,3.9353,3.9684,3.972,3.9982,4.0146,4.0254,4.0129,4.0171,4.0254,4.0146,4.0113,4.0113,4.0113,4.0113,4.0113,4.0113,4.0113,4.0113,4.0113,4.0113,4.007,3.8679,3.8007,3.7978,3.6477,3.5701,3.5686,0.0,0.0,0.0,3.3125,3.2496,3.2508,3.1832,3.1171,3.0472,2.8949,0.0,2.6711,2.6096,2.5675,2.5519,2.5675,0.0,0.0,0.0,0.0,0.0,0.0,0.0,0.0,0.0,0.0,0.0,2.7041,2.6312,2.546,2.9896,3.2554,3.1869,3.4818,3.6941,3.7246,3.8176,3.9022,3.9622,4.0171,4.0511,4.0515,4.0868,4.1139,4.0998,3.9754,3.8338,3.6835,3.5107,3.3527,3.2607,3.2254,3.2365,3.3003,3.3213,3.3858,3.5143,3.7139,3.8844,3.9768,3.9362,3.8619,3.7814,3.7137,3.6026,3.4681,3.4312,3.4312,3.4312,3.4279,3.4576,3.5344,3.6071,3.6783,3.7648,3.8358,3.9139,3.9927,4.0113,4.0113,3.9709,3.9388,3.9388,3.9388,0.0,3.905,3.8938,3.9009,3.9165,3.9694,4.0478,4.0973,4.0993,4.0671,4.0646,4.0426,4.0113,4.0113,4.0113,4.0113,4.0113,4.0113,4.0113,4.0113,4.0113,4.007,3.9688,3.9516,3.9411,3.7946,3.7219,3.7189,3.607,3.5489,3.5489,3.5489,3.5175,3.4518,3.3814,3.317,3.2512,3.2153,3.1396,3.0076,2.9392,0.0,0.0,0.0,0.0,0.0,0.0,0.0,0.0,0.0,0.0,2.5096,2.5426,2.577,2.6115,2.7041,2.8122,2.9329,3.0261,3.0361,2.923,3.2519,3.4698,3.5054,3.7142,3.8582,3.8954,3.9326,3.9706,4.007,4.0577,4.0995,4.137,4.2232,4.2819,4.2827,4.2183,4.1153,3.9599,3.7745,3.6111,3.4953,3.4476,3.4299,3.4413,3.4214,3.4422,3.5666,3.6733,3.7854,3.8461,3.8075,3.7527,3.7062,3.6477,3.5563,3.4216,3.3979,3.3979,3.3979,3.3979,3.4327,3.5279,3.5814,3.629,3.7054,3.7819,3.858,3.9342,3.9808,4.0113,4.0247,3.9753,3.9634,3.9604,3.9589,3.9433,3.9388,3.937,3.8953,0.0,0.0,4.1532,4.1611,4.1163,4.1163,4.0785,4.012,4.0104,4.0036,3.9901,3.9876,3.9952,4.0113,4.0113,4.0113,4.007,3.9289,3.8924,3.8854,3.735,3.66,3.6523,3.5878,3.5489,3.5489,3.5489,3.5235,3.4713,3.4578,3.3948,3.2901,3.2721,3.1809,2.9968,3.0298,2.937,2.7066,2.7495,2.6991,2.5427,2.5412,2.5689,2.6093,2.6258,2.7051,2.8622,2.8876,2.9041,2.928,3.0268,3.0746,3.0447,3.2542,3.3593,3.297,3.4219,3.5786,3.766,3.8528,3.9286,4.002,4.0113,4.0113,4.0096,4.0655,4.1303,4.2001,4.3216,4.4114,4.4382,4.433,4.3617,4.1782,4.0134,3.8527,3.715,3.663,3.6292,3.5687,3.4947,3.4813,3.5993,3.6399,3.6676,3.71,3.6919,3.6446,3.6384,3.5926,3.5166,3.4312,3.3979,3.3979,3.3979,3.3979,3.4428,3.5231,3.5522,3.575,3.6477,3.7233,3.8007,3.8745,3.9542,4.007,4.119,4.107,4.0502,4.0262,4.0217,3.9664,3.9388,3.9385,3.9458,3.9592,3.9825,4.0034,4.0466,4.1019,4.1036,4.0712,4.0133,4.0117,3.9725,3.9076,3.9043,3.9437,4.007,4.0113,4.0113,4.0045,3.9289,3.8924,3.8745,3.732,3.66,3.6492,3.5847,3.5489,3.5489,3.5489,3.5459,3.5355,3.4786,3.4414,3.4203,3.3649,3.2691,3.1301,3.0748,2.9834,2.8397,2.8427,2.8338,2.8068,2.8577,2.8682,2.8233,2.8712,2.9187,2.9472,2.9939,3.0746,3.1854,3.2123,3.2691,3.374,3.4681,3.4955,3.4345,3.5507,3.6739,3.7732,3.8455,3.9225,3.9978,4.007,4.0113,4.0188,4.1053,4.1955,4.2721,4.3889,4.5095,4.6302,4.6164,4.5557,4.4473,4.3186,4.1708,4.0387,3.887,3.8207,3.7846,3.6507,3.5484,3.5572,3.5636,3.5701,3.6063,3.5812,3.5778,3.5683,3.5634,3.5166,3.4163,3.3979,3.3979,3.3979,3.3979,3.4394,3.5279,3.5489,3.5782,3.6415,3.7189,3.8007,3.8718,3.9506,4.007,4.1737,4.1369,4.1055,4.0935,4.0891,4.0232,3.9738,3.9394,3.9491,3.9761,4.0228,4.0768,4.0985,4.0936,4.0936,4.0577,3.9943,3.9927,3.9538,3.8873,3.8857,3.8844,3.8876,3.9252,3.9236,3.8859,3.8469,3.8088,3.7584,3.6508,3.6006,3.5975,3.5668,3.5489,3.5489,3.5489,3.5489,3.5489,3.519,3.4893,3.4518,3.4219,3.3559,3.2617,3.2273,3.1689,3.0761,3.0731,3.0567,3.018,3.0477,3.0672,3.0731,3.1001,3.133,3.1674,3.1958,3.2407,3.3006,3.338,3.3993,3.4951,3.531,3.5385,3.507,3.6013,3.6752,3.7144,3.8201,3.9059,3.942,3.9833,4.0248,4.0663,4.1477,4.2389,4.3496,4.4733,4.5911,4.689,4.6957,4.6609,4.5936,4.462,4.3203,4.1719,4.021,3.9447,3.985,3.8827,3.7746,3.7315,3.6839,3.6585,3.6507,3.6222,3.6073,3.6043,3.5729,3.5129,3.4245,3.4027,3.4041,3.3979,3.4027,3.4394,3.5309,3.5504,3.5668,3.5958,3.7025,3.7863,3.8346,3.9252,3.9876,4.2282,4.1818,4.1707,4.1557,4.1339,4.0846,4.0247,3.9664,3.9634,3.9909,4.0447,4.1129,4.1178,4.088,4.0864,4.0468,3.9834,3.977,3.939,3.8772,3.877,3.848,3.8094,3.863,3.8492,3.7838,3.7632,3.7203,3.6554,3.5863,3.5489,3.5489,3.5489,3.5489,3.5489,3.5489,3.5489,3.5489,3.5489,3.5235,3.4773,3.4728,3.4414,3.3769,3.374,3.341,3.2751,3.2736,3.2467,3.1989,3.1944,3.2183,3.2662,3.2736,3.3021,3.3619,3.3709,3.3799,3.3963,3.4412,3.4936,3.5444,3.5489,3.5489,3.5554,3.6006,3.643,3.6691,3.7658,3.8425,3.8734,3.9541,4.0321,4.092,4.1816,4.2838,4.4038,4.5241,4.6239,4.6828,4.7087,4.6892,4.6156,4.5043,4.3614,4.2138,4.1101,4.0848,4.1305,4.0916,4.0164,3.9469,3.8466,3.7602,3.7443,3.703,3.6731,3.6701,3.6327,3.5774,3.5136,3.4845,3.4796,3.4937,3.486,3.5219,3.5773,3.5983,3.6013,3.624,3.7188,3.8146,3.8746,3.9622,3.9962,4.3155,4.3021,4.2491,4.1961,4.1452,4.1362,4.092,4.0352,4.0307,3.9984,3.9634,3.961,4.01,4.0665,4.0702,4.0329,3.9738,3.9707,3.9316,3.8662,3.8615,3.8654,3.8619,3.8766,3.8459,3.7756,3.7131,3.6814,3.6492,3.5831,3.5489,3.5489,3.5489,3.5489,3.5489,3.5489,3.5489,3.5489,3.5489,3.5474,3.5415,3.5415,3.5085,3.4444,3.4414,3.4114,3.3469,3.341,3.338,3.332,3.332,3.3335,3.341,3.341,3.3709,3.4369,3.4414,3.4683,3.522,3.537,3.5415,3.5489,3.5489,3.5489,3.5489,3.5554,3.5894,3.6446,3.6722,3.7233,3.7867,3.9196,4.0128,4.053,4.1945,4.3432,4.4289,4.4906,4.5579,4.637,4.6523,4.6264,4.5596,4.4633,4.356,4.222,4.225,4.248,4.271,4.2244,4.1677,4.1247,3.9955,3.8437,3.7767,3.7389,3.733,3.733,3.727,3.6973,3.6733,3.6777,3.7009,3.6433,3.6807,3.6831,3.6958,3.7225,3.7135,3.7042,3.7837,3.8952,4.0229,4.0871,4.058,4.3305,4.3275,4.3045,4.2551,4.2036,4.2006,4.1617,4.101,4.098,4.0621,4.0038,3.9993,3.9971,3.9935,3.992,3.9768,3.9525,3.951,3.9146,3.852,3.8474,3.8296,3.8029,3.8481,3.8122,3.7187,3.7606,3.7219,3.6099,3.5636,3.5489,3.5489,3.5489,3.5489,3.5489,3.5489,3.5489,3.5489,3.5489,3.5489,3.5489,3.5489,3.537,3.5115,3.5085,3.4981,3.4711,3.4696,3.4681,3.4681,3.4696,3.4681,3.4681,3.4696,3.4786,3.507,3.5085,3.519,3.5474,3.5489,3.5489,3.5489,3.5489,3.5489,3.5489,3.5489,3.5636,3.5911,3.6322,3.6908,3.7634,3.8686,3.9829,4.1103,4.2144,4.3223,4.4888,4.5237,4.5632,4.6235,4.607,4.5578,4.4749,4.3652,4.2747,4.2109,4.2363,4.2645,4.3139,4.297,4.2583,4.2029,4.1167,4.0164,3.8881,3.8212,3.8048,3.7928,3.7644,3.7419,3.7464,3.7404,3.7355,3.7434,3.7509,3.746,3.7295,3.7404,3.7404,3.7654,3.8596,3.9733,4.0807,4.1455,4.1261,4.3305,4.3305,4.3305,4.306,4.2641,4.2665,4.2291,4.1722,4.1692,4.1317,4.0681,4.0487,4.0142,3.9709,3.9514,3.9388,3.9388,3.9388,3.9155,3.8691,3.8676,3.8317,3.7788,3.8257,3.7922,3.7044,3.7651,3.7202,3.5679,3.5718,3.5701,3.5537,3.5489,3.5489,3.5489,3.5489,3.5489,3.5489,3.5489,3.5489,3.5489,3.5489,3.5489,3.5489,3.5489,3.5489,3.5489,3.5489,3.5619,3.5782,3.5814,3.591,3.6116,3.6116,3.6022,3.5814,3.5587,3.5489,3.5489,3.5489,3.5489,3.5489,3.5489,3.5489,3.5489,3.5489,3.5594,3.5839,3.6265,3.6796,3.726,3.8341,3.9779,4.1338,4.2008,4.3239,4.462,4.5064,4.539,4.5783,4.5225,4.4444,4.3385,4.2312,4.1642,4.1593,4.1626,4.2093,4.2939,4.3078,4.2724,4.2347,4.1965,4.0948,3.9672,3.9005,3.8706,3.8601,3.8287,3.8093,3.7958,3.7973,3.7938,3.8312,3.8028,3.7983,3.8177,3.8108,3.7928,3.8258,3.9236,4.0507,4.1219,4.2114,4.2601,4.3305,4.3305,4.3305,4.3275,4.3245,4.3215,4.291,4.2366,4.2366,4.1991,4.1294,4.0741,4.0397,4.0322,3.9753,3.9388,3.9388,3.9388,3.9343,3.9269,3.9298,3.899,3.8377,3.8367,3.8072,3.736,3.7168,3.6534,3.5677,3.6196,3.6181,3.5537,3.5489,3.5489,3.5489,3.5489,3.5489,3.5489,3.5489,3.5489,3.5489,3.5489,3.5489,3.5554,3.5504,3.5489,3.5489,3.5489,3.5814,3.6523,3.6554,3.6889,3.7544,3.7618,3.7219,3.6554,3.5863,3.5489,3.5489,3.5489,3.5489,3.5489,3.5489,3.5489,3.5519,3.5564,3.5818,3.639,3.6547,3.6703,3.6905,3.8391,3.9582,4.011,4.1912,4.3054,4.3423,4.4231,4.4581,4.4631,4.4042,4.2935,4.1266,4.0811,4.0826,4.0777,4.0792,4.1379,4.2645,4.2552,4.2489,4.2693,4.1965,4.05,3.9631,3.9275,3.9275,3.92,3.905,3.9134,3.9254,3.9298,3.9224,3.9179,3.9029,3.9014,3.9209,3.926,3.9197,3.9586,4.0573,4.155,4.1934,4.3398,4.3871,4.3678,4.3305,4.3305,4.3305,4.3305,4.3305,4.314,4.2985,4.3,4.2611,4.2081,4.1796,4.1429,4.098,4.0337,3.9813,3.9418,3.9388,3.9388,3.9388,3.9388,3.929,3.908,3.905,3.8691,3.8147,3.8311,3.7925,3.6914,3.6662,3.6189,3.5599,3.5489,3.5489,3.5489,3.5489,3.5489,3.5504,3.5489,3.5489,3.5489,3.5489,3.5701,3.6149,3.575,3.5489,3.5489,3.5943,3.6322,3.6569,3.707,3.7515,3.7706,3.7308,3.6904,3.6584,3.5926,3.5489,3.5489,3.5489,3.5489,3.5489,3.5489,3.5504,3.5579,3.5878,3.6237,3.6585,3.7349,3.7708,3.7833,3.8469,3.9261,4.0272,4.1122,4.2125,4.3047,4.3591,4.396,4.4207,4.3396,4.1981,4.1046,4.0724,4.0485,4.006,4.0343,4.1213,4.2062,4.2173,4.2347,4.3,4.2754,4.1836,4.0378,3.9702,3.9409,3.9373,3.9343,3.9298,3.9373,3.9373,3.9298,3.9284,3.9373,3.9388,3.9379,3.9508,3.961,4.0274,4.133,4.2252,4.2738,4.3798,4.4384,4.4022,4.3604,4.3394,4.3305,4.3305,4.3305,4.3305,4.3305,4.329,4.3075,4.2701,4.25,4.2156,4.1677,4.101,4.0367,3.9753,3.9493,3.9388,3.9388,3.9388,3.9388,3.9388,3.9388,3.9149,3.8862,3.9302,3.8882,3.7652,3.7281,3.6803,3.6163,3.6118,3.5998,3.5863,3.5818,3.5759,3.5564,3.5489,3.5489,3.5489,3.5489,3.5863,3.6415,3.6117,3.599,3.6227,3.6722,3.7114,3.7395,3.7876,3.8149,3.8092,3.7411,3.6843,3.6554,3.5879,3.5489,3.5489,3.5489,3.5489,3.5489,3.5504,3.5549,3.5804,3.6237,3.6626,3.715,3.7793,3.8472,3.8732,3.8973,3.9438,4.0217,4.0519,4.1147,4.23,4.2724,4.297,4.3031,4.2567,4.1576,4.0569,4.0343,3.999,3.9445,4.015,4.1013,4.1756,4.2284,4.2707,4.3486,4.3426,4.2583,4.1379,4.05,3.9702,3.9574,3.9424,3.9388,3.9388,3.9388,3.9388,3.9388,3.9388,3.9388,3.9481,3.9646,4.0095,4.0675,4.1723,4.2785,4.3336,4.3948,4.4384,4.4332,4.4182,4.3629,4.3334,4.3305,4.3305,4.3305,4.3305,4.3305,4.3245,4.3095,4.2671,4.2485,4.2276,4.1722,4.104,4.0487,3.9843,3.9484,3.9388,3.9388,3.9388,3.9388,3.9388,3.9373,3.9326,3.9512,3.8837,3.7605,3.805,3.7971,3.7447,3.7225,3.6941,3.6492,3.6477,3.6193,3.5789,3.5669,3.5579,3.5504,3.5534,3.5894,3.6584,3.6646,3.6994,3.7748,3.7806,3.8076,3.8646,3.8837,3.8908,3.8745,3.8104,3.7427,3.6615,3.5926,3.5522,3.5489,3.5489,3.5489,3.5519,3.5519,3.5848,3.6282,3.6582,3.7105,3.7973,3.8377,3.8712,3.9414,4.0043,4.0182,3.9666,4.0185,4.0792,4.0995,4.1543,4.1707,4.1264,4.1511,4.1213,3.9955,3.9666,3.9666,3.9646,4.015,4.1013,4.1869,4.2614,4.3562,4.4121,4.396,4.3169,4.2221,4.1313,4.0447,3.9737,3.9517,3.9388,3.9388,3.9388,3.9388,3.9388,3.9388,3.9424,3.9517,3.9773,4.0447,4.1147,4.2252,4.3169,4.3756,4.4224,4.4412,4.4721,4.4276,4.4107,4.3693,4.3319,4.3305,4.3305,4.3305,4.3305,4.3305,4.326,4.312,4.303,4.288,4.2357,4.1976,4.1692,4.0621,3.9873,3.9478,3.9403,3.9388,3.9388,3.9388,3.9388,3.9394,3.9435,3.9018,3.8287,3.8374,3.8075,3.7528,3.7434,3.7315,3.7135,3.7105,3.6985,3.6806,3.6387,3.6178,3.6133,3.5744,3.6116,3.7249,3.7427,3.8019,3.9252,3.8843,3.8707,3.8935,3.9437,3.9489,3.8897,3.8206,3.7411,3.6646,3.5894,3.5489,3.5489,3.5504,3.5519,3.5594,3.5908,3.6237,3.6567,3.73,3.7933,3.8437,3.8796,3.9414,4.0159,4.0535,4.0378,3.9517,4.0185,4.0724,4.0811,4.1495,4.1511,4.0995,4.1478,4.1162,4.006,3.9844,4.0095,3.9681,4.0274,4.1147,4.1885,4.28,4.3591,4.4327,4.4035,4.3739,4.2847,4.2029,4.128,4.0343,3.9864,3.9481,3.9445,3.9388,3.9388,3.9388,3.9388,3.946,3.9574,4.0025,4.069,4.1543,4.252,4.329,4.4006,4.4338,4.4525,4.5439,4.502,4.4511,4.4092,4.3633,4.3409,4.3305,4.3305,4.3305,4.3305,4.3305,4.329,4.3305,4.3215,4.2895,4.2635,4.2321,4.1497,4.0771,4.0113,3.9523,3.9403,3.9388,3.9388,3.9388,3.9388,3.9388,3.9215,3.8796,3.8751,3.8571,3.8227,3.8153,3.8018,3.7808,3.7764,3.7689,3.7404,3.703,3.6836,3.6746,3.6417,3.6961,3.8291,3.832,3.8993,4.0306,3.9761,3.9342,3.942,3.9859,3.9705,3.8935,3.8206,3.7456,3.6646,3.5943,3.5489,3.5519,3.5759,3.5863,3.5983,3.6462,3.6956,3.7255,3.8063,3.8422,3.8811,3.914,3.9758,4.0535,4.1046,4.086,4.0447,4.0535,4.0724,4.0844,4.1772,4.2029,4.1658,4.1997,4.1657,4.0977,4.0706,4.0995,4.0585,4.1129,4.1543,4.2252,4.3061,4.3768,4.4253,4.4253,4.3873,4.3383,4.2754,4.2109,4.118,4.0274,3.9829,3.9538,3.9445,3.9388,3.9388,3.9388,3.9388,3.9517,4.017,4.0844,4.1836,4.2693,4.3456,4.4093,4.4412,4.4598,4.6309,4.6115,4.4915,4.4362,4.4182,4.3559,4.3305,4.3305,4.3305,4.3305,4.3305,4.3305,4.3305,4.3305,4.3215,4.2955,4.253,4.2306,4.1916,4.1145,4.0307,3.9694,3.9604,3.9448,3.9388,3.9388,3.9388,3.9373,3.9269,3.9305,3.9409,3.9224,3.9149,3.9065,3.8556,3.8437,3.8197,3.7764,3.7554,3.7464,3.7449,3.733,3.8027,3.9497,3.9063,3.9379,4.0494,4.0237,4.001,4.0079,4.007,3.9714,3.8951,3.8234,3.7557,3.6707,3.5973,3.5724,3.5746,3.6207,3.6522,3.6582,3.7105,3.7704,3.8167,3.8422,3.8781,3.923,3.9343,3.9809,4.0724,4.1445,4.182,4.1933,4.1346,4.0979,4.0946,4.2221,4.241,4.2221,4.2645,4.2925,4.1933,4.1933,4.1965,4.1965,4.2458,4.2583,4.241,4.2953,4.3693,4.3902,4.3768,4.3515,4.2863,4.3047,4.2347,4.1264,4.0569,4.0274,3.9666,3.9445,3.9388,3.9388,3.9445,3.946,3.9717,4.0378,4.1046,4.1836,4.2707,4.3575,4.4121,4.4468,4.4598,4.677,4.6232,4.5394,4.4766,4.4257,4.3559,4.3305,4.3305,4.3305,4.3305,4.3305,4.3305,4.3305,4.3305,4.3305,4.3185,4.2985,4.262,4.2351,4.2036,4.1332,4.0591,4.0098,3.9634,3.9388,3.9388,3.9388,3.9388,3.9388,3.9388,3.9388,3.9388,3.9388,3.9349,3.9155,3.911,3.908,3.8826,3.8347,3.8138,3.8063,3.7674,3.7883,3.8774,3.8778,3.9185,4.0078,4.0005,3.9962,4.0088,4.0113,3.9756,3.9098,3.8788,3.816,3.7106,3.6939,3.6768,3.6493,3.6806,3.7135,3.7225,3.7764,3.8182,3.8377,3.8871,3.9185,3.9388,3.9424,3.999,4.128,4.1869,4.2269,4.2754,4.2221,4.1723,4.1723,4.1997,4.2221,4.2125,4.2847,4.2847,4.2552,4.2583,4.2754,4.2458,4.2738,4.3,4.2567,4.28,4.3545,4.2769,4.252,4.2489,4.2489,4.2847,4.2489,4.133,4.0811,4.0826,4.0095,3.9424,3.9388,3.9388,3.961,3.9666,4.006,4.0603,4.1295,4.1965,4.3031,4.396,4.4281,4.4598,4.4598,4.7085,4.6638,4.6007,4.5334,4.4676,4.3977,4.3544,4.3334,4.3305,4.3305,4.3305,4.3305,4.3305,4.3305,4.3305,4.3305,4.323,4.294,4.2791,4.2656,4.2126,4.128,4.0516,3.9963,3.9709,3.9388,3.9403,3.9388,3.9388,3.9388,3.9388,3.9388,3.9388,3.9388,3.9358,3.9388,3.9388,3.9298,3.9005,3.8826,3.8766,3.8467,3.8743,3.9234,3.9214,3.9293,3.9767,3.981,3.9975,4.0358,4.0468,4.0408,4.0338,4.0029,3.945,3.8537,3.8325,3.7831,3.7608,3.7707,3.7793,3.7943,3.8437,3.8766,3.8886,3.9215,3.9388,3.9388,3.9388,4.0095,4.1213,4.2062,4.2909,4.3621,4.338,4.2939,4.2614,4.2923,4.3061,4.3213,4.3456,4.368,4.3139,4.3578,4.3532,4.3366,4.3575,4.3092,4.2426,4.2878,4.2816,4.1933,4.1739,4.1901,4.1836,4.2029,4.2316,4.1297,4.0656,4.0758,4.0185,3.9424,3.9445,3.9517,3.9737,3.999,4.0359,4.0808,4.1543,4.2379,4.3469,4.4093,4.4338,4.4412,4.444,4.7309,4.7249,4.6548,4.592,4.5334,4.4616,4.3932,4.3484,4.3334,4.3305,4.3305,4.3305,4.3305,4.3305,4.3305,4.3305,4.3305,4.323,4.3245,4.309,4.2641,4.1878,4.0905,4.0606,4.0277,3.9858,3.9619,3.9574,3.9589,3.9493,3.9388,3.9388,3.9388,3.9388,3.9388,3.9388,3.9388,3.9388,3.9328,3.9254,3.9254,3.9215,3.9501,3.9918,3.9683,3.9508,3.9722,3.9865,4.0264,4.1082,4.1037,4.1305,4.191,4.1561,4.1163,4.0816,3.9823,3.9171,3.8845,3.8682,3.8587,3.8672,3.905,3.9373,3.9328,3.9358,3.9388,3.9388,3.9388,3.997,4.1044,4.2412,4.3701,4.4481,4.4693,4.4435,4.4014,4.4306,4.475,4.4835,4.484,4.4823,4.4818,4.4767,4.4694,4.4374,4.4327,4.3439,4.2676,4.252,4.1933,4.0792,4.0979,4.1495,4.1346,4.118,4.1445,4.1231,4.0554,4.0274,3.99,3.9424,3.9517,3.9666,4.008,4.0274,4.0413,4.0995,4.1901,4.2442,4.329,4.3814,4.4196,4.4093,4.4093,4.7309,4.7249,4.6606,4.6247,4.5876,4.484,4.4201,4.4062,4.3529,4.3364,4.3305,4.3305,4.3305,4.3305,4.3305,4.3305,4.3305,4.3305,4.3305,4.3275,4.3185,4.2701,4.1923,4.1497,4.11,4.0801,4.0382,4.0202,4.0113,3.9738,3.9403,3.9418,3.9418,3.9388,3.9388,3.9388,3.9388,3.9388,3.9388,3.9388,3.9388,3.9388,3.9517,3.9758,3.9571,3.9466,3.961,4.0137,4.0905,4.1403,4.1409,4.1593,4.2223,4.2244,4.1933,4.1584,4.1491,4.0842,3.9872,3.9871,3.9852,3.9227,3.9239,3.9388,3.9388,3.9388,3.9388,3.9388,3.9424,4.0152,4.1551,4.3182,4.434,4.5182,4.5843,4.6152,4.6018,4.5672,4.5703,4.6041,4.6223,4.6324,4.6244,4.5669,4.5517,4.5415,4.474,4.3822,4.3125,4.2506,4.1445,4.0397,4.015,4.0638,4.0638,4.0569,4.0894,4.1013,4.0466,3.9955,3.9574,3.9481,3.9574,3.999,4.05,4.0638,4.0672,4.1788,4.2785,4.297,4.297,4.335,4.3651,4.3651,4.3785,4.7309,4.7264,4.692,4.6606,4.619,4.5544,4.5065,4.4691,4.4037,4.3793,4.3663,4.3454,4.3305,4.3305,4.3305,4.3305,4.3305,4.3305,4.3305,4.3305,4.3275,4.3135,4.288,4.2417,4.2058,4.1474,4.1055,4.0876,4.0681,4.0247,3.9918,3.9828,3.9604,3.9403,3.9388,3.9418,3.9388,3.9388,3.9388,3.9388,3.9388,3.9388,3.9388,3.9388,3.9388,3.9388,3.9472,4.0224,4.1098,4.1758,4.2036,4.2439,4.317,4.3396,4.3143,4.2947,4.2613,4.2169,4.1213,4.0645,4.0293,3.9481,3.9388,3.9388,3.9388,3.9388,3.9388,3.9499,3.9802,4.0568,4.2171,4.341,4.4587,4.5463,4.6309,4.6874,4.7107,4.6684,4.6312,4.6701,4.6701,4.6701,4.6583,4.643,4.6312,4.6177,4.5573,4.4683,4.3641,4.2893,4.1607,4.0603,3.9829,3.9646,3.9809,3.999,4.0413,4.05,4.0343,3.99,3.9553,3.9574,3.9702,4.022,4.0792,4.0995,4.1213,4.2426,4.2785,4.2125,4.2029,4.2645,4.2923,4.2738,4.3092,4.7309,4.7309,4.7309,4.698,4.6501,4.6294,4.5948,4.5394,4.4631,4.4227,4.4182,4.3574,4.3305,4.3305,4.3305,4.3305,4.3305,4.3305,4.3305,4.3305,4.3305,4.326,4.317,4.3035,4.2716,4.1728,4.1564,4.1572,4.1354,4.0905,4.0561,4.0457,4.0053,3.9948,3.9813,3.9738,3.9783,3.9672,3.9679,3.9508,3.9418,3.9388,3.9388,3.9388,3.9388,3.9388,3.9589,4.0239,4.1098,4.1965,4.2816,4.3697,4.4355,4.4598,4.4598,4.4474,4.3831,4.2947,4.1901,4.1248,4.0569,3.9589,3.9388,3.9478,3.9574,3.9642,3.9783,3.9978,4.0351,4.1118,4.2546,4.3796,4.4705,4.5582,4.6522,4.7352,4.7767,4.7496,4.731,4.7259,4.7496,4.7581,4.7361,4.7175,4.7056,4.6853,4.6232,4.5475,4.4462,4.3312,4.2055,4.0721,3.9935,3.9247,3.9291,3.9557,3.994,3.9687,3.9721,3.961,3.9356,3.9511,3.9696,4.0466,4.0946,4.108,4.1412,4.2157,4.2062,4.1147,4.1313,4.2125,4.2157,4.1869,4.2316,4.7309,4.7309,4.7309,4.7234,4.7055,4.6576,4.6249,4.5948,4.4915,4.4332,4.4257,4.3618,4.3349,4.3305,4.3305,4.3305,4.3305,4.3305,4.3305,4.3305,4.3305,4.3305,4.3305,4.329,4.3095,4.294,4.2506,4.2246,4.2096,4.1617,4.1272,4.1175,4.101,4.0935,4.0891,4.101,4.0621,4.0292,4.0232,4.0023,3.9582,3.9418,3.9388,3.9388,3.9388,3.9388,3.961,4.0239,4.1113,4.1965,4.2831,4.371,4.4355,4.457,4.4525,4.4542,4.4298,4.3456,4.2221,4.1852,4.0909,3.9879,3.9508,3.9813,4.0083,4.0277,4.0472,4.0913,4.1183,4.1714,4.2623,4.4221,4.5349,4.6388,4.7534,4.8528,4.8663,4.8562,4.8409,4.8308,4.8443,4.846,4.8156,4.7919,4.7784,4.7547,4.7039,4.6228,4.5269,4.3989,4.2634,4.1302,3.9955,3.9358,3.8908,3.9184,3.9425,3.8828,3.8749,3.8981,3.8926,3.9254,3.967,4.0294,4.0808,4.1046,4.1478,4.1933,4.1511,4.0706,4.1162,4.1674,4.128,4.0961,4.1379,4.7309,4.7309,4.7309,4.7309,4.7249,4.698,4.683,4.6696,4.5756,4.5155,4.4721,4.4152,4.3589,4.3379,4.3305,4.3305,4.3305,4.3305,4.3305,4.3305,4.3305,4.3305,4.3305,4.3305,4.3305,4.3215,4.3,4.2851,4.2791,4.2246,4.1961,4.1826,4.1632,4.1422,4.1422,4.1362,4.1257,4.095,4.0876,4.0591,3.9933,3.9679,3.9433,3.9403,3.9439,3.9388,3.9646,4.0774,4.1511,4.2157,4.3259,4.4047,4.4355,4.427,4.4184,4.4462,4.42,4.3443,4.2238,4.1894,4.121,4.0218,4.0187,4.0546,4.0801,4.0965,4.1272,4.1836,4.2545,4.295,4.3799,4.533,4.6483,4.7111,4.8249,4.8889,4.9018,4.9018,4.9018,4.9018,4.8866,4.8781,4.8832,4.8629,4.8511,4.8206,4.7784,4.6972,4.6068,4.4767,4.3423,4.1984,4.0637,3.958,3.8935,3.8785,3.8754,3.8159,3.7952,3.8193,3.8533,3.8847,3.9332,3.9896,4.0375,4.0782,4.0961,4.1229,4.074,4.0309,4.0413,4.0447,4.022,4.017,4.0638,4.7309,4.7309,4.7309,4.7309,4.7309,4.7309,4.7294,4.7174,4.6533,4.5858,4.5259,4.4586,4.3928,4.3439,4.3305,4.3305,4.3305,4.3305,4.3305,4.3305,4.3305,4.3305,4.3305,4.3305,4.3305,4.329,4.3245,4.3305,4.318,4.2791,4.2596,4.2462,4.1983,4.1773,4.1863,4.1998,4.1743,4.1617,4.1602,4.125,4.0621,4.0113,3.9723,3.9655,3.9733,3.9898,3.995,4.1095,4.1965,4.2583,4.3456,4.4422,4.4614,4.4165,4.4097,4.4461,4.38,4.2873,4.2202,4.2024,4.1643,4.0703,4.1093,4.1354,4.1692,4.1811,4.2143,4.2841,4.3176,4.4041,4.4914,4.6352,4.7206,4.7721,4.8319,4.9018,4.9018,4.9018,4.9018,4.9018,4.9018,4.9001,4.8984,4.8968,4.8765,4.8731,4.8308,4.7922,4.6988,4.5682,4.4341,4.282,4.1414,4.0056,3.9178,3.8448,3.8098,3.747,3.745,3.7723,3.8062,3.846,3.892,3.9298,3.9938,4.0329,4.0446,4.0459,4.013,3.9809,3.9517,3.9481,3.9646,3.9702,3.997,4.7309,4.7309,4.7266,4.7309,4.7309,4.7309,4.7309,4.7219,4.6651,4.5933,4.5349,4.4631,4.3988,4.3424,4.3305,4.3305,4.3305,4.3305,4.3305,4.3305,4.3305,4.3305,4.3305,4.3305,4.3305,4.3305,4.3305,4.3305,4.326,4.3155,4.3125,4.3035,4.3,4.3006,4.2781,4.2751,4.2791,4.2381,4.2261,4.1946,4.1392,4.1115,4.0741,4.0691,4.0929,4.1175,4.0997,4.1911,4.2573,4.3195,4.3388,4.424,4.5243,4.551,4.533,4.4913,4.3977,4.2677,4.2094,4.2184,4.2153,4.1453,4.1474,4.1752,4.2186,4.2719,4.3238,4.4379,4.4014,4.437,4.5678,4.6314,4.6866,4.7638,4.8513,4.8909,4.9018,4.9018,4.9018,4.9018,4.9018,4.9018,4.9001,4.9001,4.8984,4.8968,4.8866,4.8446,4.7771,4.6453,4.506,4.3511,4.1608,4.0139,3.9144,3.8453,3.7332,3.6695,3.6942,3.7131,3.7215,3.7474,3.8115,3.8558,3.9265,4.0009,4.039,4.0252,3.9721,3.9706,3.9918,3.9738,3.9424,3.949,3.9787,4.5584,4.6211,4.6196,4.6638,4.7266,4.7309,4.7309,4.7249,4.6995,4.6501,4.5843,4.517,4.4317,4.3469,4.3305,4.3305,4.3305,4.3305,4.3305,4.3305,4.3305,4.3305,4.3305,4.3305,4.3305,4.3305,4.3305,4.3305,4.3305,4.3305,4.3305,4.3305,4.3305,4.323,4.3305,4.3305,4.314,4.2865,4.259,4.2261,4.1946,4.1655,4.1535,4.1754,4.214,4.2365,4.2746,4.3525,4.4085,4.4632,4.4939,4.5526,4.6005,4.5878,4.5509,4.5347,4.4221,4.3134,4.2472,4.2521,4.2312,4.2273,4.2237,4.2656,4.294,4.3174,4.3747,4.4646,4.4952,4.5618,4.673,4.7456,4.7901,4.8433,4.8719,4.8829,4.9018,4.9018,4.9018,4.9018,4.9018,4.9018,4.9018,4.9018,4.9018,4.9001,4.8937,4.872,4.8035,4.6946,4.554,4.4072,4.2035,3.9998,3.9079,3.8216,3.6514,3.5906,3.6353,3.6404,3.6088,3.6325,3.7095,3.7968,3.8782,3.9495,4.0197,4.0459,4.0338,4.0435,4.0531,4.0367,4.0232,4.0472,4.0954,4.3313,4.4489,4.5115,4.5973,4.6873,4.7164,4.7309,4.7309,4.7294,4.692,4.6217,4.5394,4.4362,4.3514,4.3305,4.3305,4.3305,4.3305,4.3305,4.3305,4.3305,4.3305,4.3305,4.3305,4.3305,4.3305,4.3305,4.3305,4.3305,4.3305,4.3305,4.3305,4.3305,4.3305,4.3305,4.3305,4.3245,4.3185,4.2865,4.2656,4.2536,4.2162,4.2236,4.2619,4.3147,4.3633,4.421,4.5254,4.574,4.5893,4.6227,4.6625,4.69,4.6633,4.6319,4.6139,4.5391,4.4484,4.3572,4.3023,4.2707,4.2761,4.2955,4.314,4.3215,4.3329,4.3935,4.5101,4.5248,4.633,4.7622,4.8401,4.8433,4.8639,4.897,4.9001,4.9018,4.9018,4.9018,4.9018,4.9018,4.9018,4.9018,4.9018,4.9018,4.9018,4.897,4.8892,4.8127,4.7156,4.5955,4.4487,4.2545,4.0576,3.9483,3.8249,3.6398,3.5271,3.5763,3.569,3.5399,3.572,3.6447,3.7319,3.8198,3.9135,3.9939,4.051,4.1035,4.1002,4.0995,4.1212,4.1272,4.1467,4.1798,4.0693,4.2084,4.441,4.5434,4.5689,4.6829,4.7309,4.7309,4.7309,4.6905,4.6097,4.502,4.4062,4.3454,4.3305,4.3305,4.3305,4.3305,4.3305,4.3305,4.3305,4.3305,4.3305,4.3305,4.3305,4.3305,4.3305,4.3305,4.3305,4.3305,4.3305,4.3305,4.3305,4.3305,4.3305,4.3305,4.3305,4.329,4.3125,4.3125,4.3125,4.3,4.2932,4.2978,4.3945,4.4729,4.4274,4.5772,4.6663,4.668,4.6988,4.7327,4.7673,4.7619,4.7448,4.7256,4.6946,4.6046,4.5018,4.3876,4.3322,4.3254,4.326,4.3305,4.3305,4.3305,4.4151,4.5545,4.5634,4.6504,4.7638,4.8401,4.8545,4.8767,4.9018,4.9018,4.9018,4.9018,4.9018,4.9018,4.9018,4.9018,4.9018,4.9018,4.9018,4.9018,4.894,4.8861,4.7998,4.7071,4.6138,4.4806,4.3011,4.1376,4.019,3.8716,3.718,3.5854,3.5547,3.5162,3.4691,3.5282,3.6248,3.6667,3.7528,3.8604,3.9619,4.0081,4.0597,4.1175,4.1512,4.1833,4.1908,4.1938,4.2296,3.9981,4.0655,4.317,4.4688,4.5494,4.6785,4.7309,4.7309,4.7294,4.6666,4.5648,4.4721,4.3943,4.3439,4.3305,4.3305,4.3305,4.3305,4.3305,4.3305,4.3305,4.3305,4.3305,4.3305,4.3305,4.3305,4.3305,4.3305,4.3305,4.3305,4.3305,4.3305,4.3305,4.3305,4.3305,4.3305,4.3305,4.3305,4.3305,4.3305,4.3305,4.3329,4.347,4.4036,4.426,4.5144,4.5523,4.6602,4.7104,4.7389,4.7732,4.8009,4.8287,4.8354,4.8351,4.8239,4.7933,4.7239,4.633,4.5048,4.4028,4.3369,4.329,4.3305,4.3305,4.3329,4.4327,4.529,4.5925,4.6815,4.8306,4.8688,4.8736,4.894,4.9018,4.9018,4.9018,4.9018,4.9018,4.9018,4.9018,4.9018,4.9018,4.9018,4.9018,4.9001,4.894,4.8719,4.7966,4.729,4.6488,4.573,4.4121,4.2902,4.1703,4.0009,3.8166,3.6739,3.5485,3.4993,3.4715,3.5559,3.638,3.6581,3.6896,3.7971,3.8888,3.9543,4.0456,4.1696,4.2339,4.2686,4.2656,4.2462,4.2803,3.9942,4.0503,4.2606,4.4022,4.501,4.6594,4.7309,4.7309,4.7309,4.6561,4.5274,4.4601,4.3917,4.3439,4.3305,4.3305,4.3305,4.3305,4.3305,4.3305,4.3305,4.3305,4.3305,4.3305,4.3305,4.3305,4.3305,4.3305,4.3305,4.3305,4.3305,4.3305,4.3305,4.3305,4.3305,4.3305,4.3305,4.3305,4.3305,4.3305,4.3305,4.3329,4.3472,4.4213,4.4547,4.5001,4.5619,4.6399,4.6925,4.7192,4.7539,4.7981,4.8208,4.8401,4.8528,4.8433,4.8289,4.7901,4.7205,4.5905,4.4396,4.3472,4.3305,4.3305,4.3329,4.3551,4.4706,4.5905,4.6419,4.7223,4.8829,4.8909,4.8861,4.9018,4.9018,4.9018,4.9018,4.9018,4.9018,4.9018,4.9018,4.9018,4.9018,4.9018,4.9018,4.9018,4.897,4.8829,4.8433,4.7786,4.7223,4.6491,4.5563,4.4496,4.3447,4.1895,4.0125,3.7293,3.6103,3.5329,3.5234,3.6023,3.6392,3.6499,3.6896,3.752,3.8344,3.9275,4.0942,4.2797,4.3051,4.3065,4.3065,4.2925,4.3265,4.0364,4.1703,4.293,4.3537,4.3975,4.6255,4.7309,4.7279,4.7145,4.6411,4.517,4.4511,4.3888,4.3394,4.3305,4.3305,4.3305,4.3305,4.3305,4.3305,4.3305,4.3305,4.3305,4.3305,4.3305,4.3305,4.3305,4.3305,4.3305,4.3305,4.3305,4.3305,4.3305,4.3305,4.3305,4.3305,4.3305,4.3305,4.3305,4.3305,4.3305,4.3305,4.3448,4.3669,4.4182,4.4646,4.493,4.5726,4.6189,4.633,4.6539,4.6747,4.6781,4.734,4.7589,4.7589,4.8401,4.8338,4.7589,4.5814,4.4684,4.3693,4.3527,4.3305,4.3472,4.4066,4.4796,4.5726,4.6643,4.7655,4.8528,4.9001,4.897,4.9018,4.9018,4.9018,4.9018,4.9018,4.9018,4.9018,4.9018,4.9018,4.9018,4.9018,4.9018,4.9018,4.9018,4.8861,4.8688,4.8416,4.7917,4.785,4.7193,4.6625,4.5598,4.4019,4.1983,3.8929,3.7183,3.6847,3.6241,3.6351,3.6577,3.6534,3.6943,3.7599,3.8347,3.9112,4.0916,4.2563,4.313,4.3245,4.329,4.3329,4.3472,3.9929,4.0503,4.2606,4.349,4.3882,4.6211,4.7309,4.7145,4.6367,4.5469,4.4646,4.3958,4.3544,4.3334,4.3305,4.3305,4.3305,4.3305,4.3305,4.3305,4.3305,4.3305,4.3305,4.3305,4.3305,4.3305,4.3305,4.3305,4.3305,4.3305,4.3305,4.3305,4.3305,4.3305,4.3305,4.3305,4.3305,4.3305,4.3305,4.3305,4.3305,4.3305,4.3305,4.329,4.3693,4.3888,4.3966,4.484,4.5211,4.5342,4.5597,4.5961,4.6032,4.6574,4.6643,4.685,4.7539,4.795,4.7589,4.6747,4.5905,4.4743,4.3732,4.3448,4.3409,4.3551,4.4305,4.5232,4.626,4.7155,4.7803,4.8656,4.8909,4.897,4.9018,4.9018,4.9018,4.9018,4.9018,4.9018,4.9018,4.9018,4.9018,4.9018,4.9018,4.9018,4.9018,4.9018,4.8861,4.8937,4.87,4.9167,4.8988,4.8609,4.7756,4.6262,4.4716,4.2227,4.0474,3.9579,3.8786,3.7606,3.7442,3.7769,3.7678,3.771,3.8379,3.9258,4.0732,4.2029,4.2725,4.325,4.3305,4.3305,4.3329,3.9981,4.0554,4.2133,4.3409,4.441,4.6403,4.7204,4.6756,4.5574,4.4691,4.4242,4.3604,4.3305,4.3305,4.3305,4.3305,4.3305,4.3305,4.3305,4.3305,4.3305,4.3305,4.3305,4.3305,4.3305,4.3305,4.3305,4.3305,4.3305,4.3305,4.3305,4.3305,4.3305,4.3305,4.3305,4.3305,4.3305,4.3305,4.3305,4.3305,4.3305,4.3305,4.3305,4.3305,4.3369,4.3329,4.3488,4.3849,4.4297,4.451,4.4803,4.5253,4.529,4.5509,4.5654,4.5977,4.6539,4.7172,4.7456,4.7054,4.6189,4.5431,4.4381,4.3693,4.3551,4.3771,4.4182,4.493,4.5654,4.6523,4.7406,4.8257,4.8306,4.837,4.8338,4.8306,4.8849,4.8818,4.8769,4.8801,4.9018,4.9018,4.9018,4.9018,4.9018,4.9018,4.9018,4.9018,4.9018,4.9063,4.9226,4.9676,5.0027,4.9689,4.9245,4.8587,4.6979,4.5327,4.3692,4.203,4.0534,3.9267,3.9159,3.8827,3.8379,3.8153,3.8501,3.9376,4.0732,4.1823,4.2644,4.3036,4.325,4.3305,4.3305,4.0415,4.1455,4.1604,4.2951,4.5104,4.6256,4.6582,4.61,4.4859,4.4332,4.4197,4.3529,4.3305,4.3305,4.3305,4.3305,4.3305,4.3305,4.3305,4.3305,4.3305,4.3305,4.3305,4.3305,4.3305,4.3305,4.3305,4.3305,4.3305,4.3305,4.3305,4.3305,4.3305,4.3305,4.3305,4.3305,4.3305,4.3305,4.3305,4.3305,4.3305,4.3305,4.3305,4.3305,4.3305,4.3305,4.3369,4.3488,4.3488,4.3527,4.3512,4.3488,4.3693,4.4243,4.4586,4.5095,4.5778,4.6504,4.7138,4.6662,4.626,4.5597,4.5079,4.4282,4.3771,4.3849,4.4143,4.4608,4.5269,4.626,4.7172,4.7172,4.7172,4.7138,4.7104,4.7572,4.8358,4.8503,4.8438,4.8549,4.8863,4.8987,4.9018,4.9018,4.8909,4.9018,4.9018,4.9018,4.9018,4.9001,4.9256,4.9821,5.0167,5.05,5.0223,4.9882,4.8927,4.7156,4.554,4.392,4.2351,4.1068,4.0746,4.0176,3.8979,3.8635,3.8992,3.961,4.0518,4.1518,4.2508,4.3036,4.3305,4.3305,4.3344,3.9942,4.0313,4.1219,4.183,4.2242,4.3425,4.4282,4.4728,4.4421,4.4092,4.3559,4.3394,4.3305,4.3305,4.3305,4.3305,4.3305,4.3305,4.3305,4.3305,4.3305,4.3305,4.3305,4.3305,4.3305,4.3305,4.3305,4.3305,4.3305,4.3305,4.3305,4.3305,4.3305,4.3305,4.3305,4.3305,4.3305,4.3305,4.3305,4.3305,4.3305,4.3305,4.3305,4.3305,4.3305,4.3305,4.3305,4.3305,4.3305,4.3305,4.3305,4.3305,4.3369,4.363,4.3888,4.4737,4.519,4.5561,4.6365,4.6349,4.5973,4.5494,4.5008,4.4335,4.3771,4.3651,4.3925,4.435,4.4838,4.5657,4.6275,4.6414,4.6648,4.6875,4.6766,4.6953,4.766,4.7817,4.7784,4.8068,4.841,4.8482,4.8545,4.8829,4.875,4.894,4.9018,4.9018,4.9018,4.9018,4.9286,4.9861,5.0279,5.0581,5.106,5.0892,5.0066,4.899,4.7274,4.5729,4.4399,4.3247,4.2511,4.1419,4.006,3.9522,3.9492,4.0232,4.0986,4.1545,4.2452,4.2941,4.3305,4.3329,4.3448,4.0465,4.0566,4.1523,4.172,4.1682,4.274,4.3387,4.3345,4.3696,4.3633,4.3319,4.3305,4.3305,4.3305,4.3305,4.3305,4.3305,4.3305,4.3305,4.3305,4.3305,4.3305,4.3305,4.3305,4.3305,4.3305,4.3305,4.3305,4.3305,4.3305,4.3305,4.3305,4.3305,4.3305,4.3305,4.3305,4.3305,4.3305,4.3305,4.3305,4.3305,4.3305,4.3305,4.3305,4.3305,4.3305,4.3305,4.3305,4.3305,4.3305,4.3305,4.3305,4.3305,4.3329,4.3394,4.4105,4.4182,4.4721,4.5416,4.5634,4.5389,4.5241,4.5124,4.4816,4.4216,4.3858,4.3853,4.3982,4.4406,4.488,4.5348,4.5815,4.6397,4.6945,4.6676,4.6438,4.6702,4.6997,4.7238,4.7507,4.7634,4.7704,4.7901,4.8257,4.8465,4.8465,4.8688,4.9018,4.9018,4.9018,4.9359,4.9861,5.0297,5.0662,5.1086,5.1317,5.0539,4.9631,4.8575,4.716,4.6106,4.4787,4.3455,4.2257,4.1042,4.0618,4.0275,4.0817,4.1545,4.2056,4.26,4.3324,4.3591,4.3512,4.363,4.1515,4.1508,4.212,4.2272,4.2524,4.3446,4.3093,4.1796,4.2729,4.3115,4.3076,4.3115,4.313,4.325,4.3305,4.3305,4.3305,4.3305,4.3305,4.3305,4.3305,4.3305,4.3305,4.3305,4.3305,4.3305,4.3305,4.3305,4.3305,4.3305,4.3305,4.3305,4.3305,4.3305,4.3305,4.3305,4.3305,4.3305,4.3305,4.3305,4.3305,4.3305,4.3305,4.3305,4.3305,4.3305,4.3305,4.3305,4.3305,4.3305,4.3305,4.3305,4.3305,4.3305,4.3369,4.3409,4.3527,4.4063,4.4634,4.4909,4.5233,4.538,4.5634,4.5346,4.474,4.4302,4.4242,4.4317,4.478,4.5071,4.5511,4.5587,4.5942,4.6222,4.6168,4.6306,4.6711,4.6834,4.685,4.7045,4.6953,4.7051,4.744,4.7836,4.8338,4.8161,4.8401,4.894,4.9018,4.9018,4.9286,4.9763,5.01,5.0435,5.0635,5.0796,5.0608,4.9901,4.9078,4.8264,4.7004,4.5566,4.4121,4.317,4.2246,4.142,4.1127,4.1767,4.2179,4.2316,4.2936,4.3741,4.4004,4.3989,4.4305,4.1291,4.0839,4.1058,4.1581,4.2295,4.227,4.2051,4.1629,4.185,4.1988,4.1988,4.2029,4.2508,4.3115,4.317,4.317,4.329,4.3305,4.3305,4.3305,4.3305,4.3305,4.3305,4.3305,4.3305,4.3305,4.3305,4.3305,4.3305,4.3305,4.3305,4.3305,4.3305,4.3305,4.3305,4.3305,4.3305,4.3305,4.3305,4.3305,4.3305,4.3305,4.3305,4.3305,4.3319,4.3334,4.3334,4.3319,4.3305,4.3305,4.3305,4.3305,4.3305,4.3305,4.3305,4.3305,4.3305,4.3722,4.4137,4.4486,4.4834,4.5223,4.5455,4.5357,4.5177,4.4956,4.4885,4.502,4.5151,4.5432,4.5608,4.5571,4.5533,4.5684,4.5818,4.6325,4.6803,4.6683,4.6561,4.6418,4.6343,4.6545,4.6947,4.7423,4.7982,4.837,4.8688,4.9018,4.9018,4.9018,4.9018,4.9419,4.9821,5.0118,5.0241,5.0258,5.0061,4.9879,4.9214,4.8476,4.7754,4.6419,4.4995,4.4327,4.3554,4.2942,4.2581,4.275,4.3046,4.3056,4.3563,4.4555,4.5005,4.5064,4.5452,4.0628,4.041,4.1201,4.201,4.2648,4.2462,4.1809,4.0958,4.0873,4.0518,4.0204,4.0646,4.1476,4.2412,4.2548,4.2941,4.3155,4.3305,4.3305,4.3305,4.3305,4.3305,4.3305,4.3305,4.3305,4.3305,4.3305,4.3305,4.3305,4.3305,4.3305,4.3305,4.3305,4.3305,4.3305,4.3305,4.3305,4.3305,4.3305,4.3319,4.3319,4.3319,4.3305,4.3305,4.3514,4.3529,4.3454,4.3469,4.3514,4.3409,4.3305,4.3305,4.3305,4.3305,4.3305,4.3305,4.3334,4.3454,4.3843,4.4272,4.4676,4.5185,4.5693,4.5825,4.6349,4.6172,4.5918,4.5992,4.5798,4.5953,4.6389,4.6469,4.6469,4.6554,4.6536,4.6768,4.6716,4.6455,4.6188,4.5852,4.5688,4.5597,4.6039,4.6601,4.7186,4.8047,4.8482,4.897,4.9018,4.9018,4.9018,4.9094,4.9492,4.9563,4.9534,4.958,4.9521,4.9346,4.9273,4.8606,4.7836,4.6934,4.5957,4.5379,4.4974,4.4847,4.46,4.4327,4.4105,4.4074,4.4675,4.5452,4.5778,4.6154,4.6678,4.0093,4.0466,4.1819,4.276,4.3215,4.3076,4.1864,4.0145,3.9885,3.9152,3.8243,3.9183,4.0318,4.1085,4.1629,4.2316,4.2845,4.3155,4.325,4.3305,4.3305,4.3305,4.3305,4.3305,4.3305,4.3305,4.3305,4.3305,4.3305,4.3305,4.3305,4.3305,4.3305,4.3305,4.3305,4.3305,4.3305,4.3305,4.3319,4.3364,4.3364,4.3349,4.3394,4.3604,4.3873,4.3962,4.3873,4.3888,4.3992,4.3648,4.3394,4.3305,4.3305,4.3305,4.3305,4.3305,4.3305,4.3484,4.3828,4.4377,4.4945,4.5544,4.607,4.6621,4.7115,4.71,4.6845,4.6723,4.6529,4.6589,4.7023,4.7261,4.7261,4.7218,4.7143,4.7055,4.6768,4.6424,4.5972,4.556,4.5328,4.5151,4.573,4.6246,4.6837,4.7655,4.8225,4.8688,4.9018,4.9018,4.9018,4.9018,4.9182,4.9152,4.9046,4.9138,4.9212,4.9168,4.9046,4.8528,4.795,4.7323,4.6831,4.6504,4.6173,4.5854,4.5782,4.5566,4.5379,4.5079,4.5778,4.64,4.6609,4.7104,4.7901,4.0772,4.208,4.1893,4.2351,4.3036,4.233,4.1127,4.0015,3.9812,3.8751,3.7461,3.7939,3.9081,4.0232,4.1253,4.1988,4.2467,4.2845,4.321,4.3305,4.3305,4.3305,4.3305,4.3305,4.3305,4.3305,4.3305,4.3305,4.3305,4.3305,4.3305,4.3305,4.3305,4.3305,4.3305,4.3305,4.3305,4.3305,4.3379,4.3454,4.3783,4.3783,4.3693,4.3902,4.4186,4.4571,4.4811,4.5005,4.4691,4.4157,4.3678,4.3499,4.3409,4.3409,4.3379,4.3305,4.3305,4.3693,4.4097,4.4676,4.5319,4.6217,4.6711,4.6995,4.7279,4.7279,4.7158,4.7299,4.7179,4.7179,4.745,4.7606,4.7649,4.7493,4.742,4.7291,4.7098,4.6723,4.6304,4.5945,4.5683,4.6107,4.6882,4.7229,4.747,4.8183,4.8642,4.9035,4.9018,4.9018,4.9018,4.9018,4.9018,4.9001,4.9032,4.9032,4.9094,4.9032,4.897,4.8719,4.837,4.795,4.7523,4.734,4.685,4.6384,4.6384,4.6815,4.6349,4.6154,4.6815,4.7373,4.7523,4.7836,4.8465]}]]